Time,TemperatureF,DewpointF,PressureIn,WindDirection,WindDirectionDegrees,WindSpeedMPH,WindSpeedGustMPH,Humidity,HourlyPrecipIn,Conditions,Clouds,dailyrainin,SoftwareType,DateUTC
2013-02-11 00:00:00,13.4,8.9,30.44,ENE,77,3.0,5.0,82,0.00,,SKC,0.00,VWS V14.01,2013-02-11 07:00:00,
2013-02-11 00:01:00,13.4,8.9,30.44,East,89,9.0,9.0,82,0.00,,SKC,0.00,VWS V14.01,2013-02-11 07:01:00,
2013-02-11 00:02:00,13.4,8.9,30.44,East,80,8.0,9.0,82,0.00,,SKC,0.00,VWS V14.01,2013-02-11 07:02:00,
2013-02-11 00:03:00,13.4,8.9,30.44,ENE,78,3.0,8.0,82,0.00,,SKC,0.00,VWS V14.01,2013-02-11 07:03:00,
2013-02-11 00:04:00,13.4,8.9,30.44,ENE,78,3.0,8.0,82,0.00,,SKC,0.00,VWS V14.01,2013-02-11 07:04:00,
2013-02-11 00:05:00,13.3,8.8,30.44,East,84,4.0,9.0,82,0.00,,SKC,0.00,VWS V14.01,2013-02-11 07:05:00,
2013-02-11 00:06:00,13.3,8.8,30.44,East,84,8.0,9.0,82,0.00,,SKC,0.00,VWS V14.01,2013-02-11 07:06:00,
2013-02-11 00:07:00,13.2,8.8,30.44,ENE,67,2.0,8.0,82,0.00,,SKC,0.00,VWS V14.01,2013-02-11 07:07:00,
2013-02-11 00:08:00,13.2,8.8,30.44,ENE,61,0.0,5.0,82,0.00,,SKC,0.00,VWS V14.01,2013-02-11 07:08:00,
2013-02-11 00:09:00,13.2,8.8,30.44,ENE,63,4.0,9.0,82,0.00,,SKC,0.00,VWS V14.01,2013-02-11 07:09:00,
2013-02-11 00:10:00,13.1,8.6,30.44,NE,54,4.0,6.0,82,0.00,,SKC,0.00,VWS V14.01,2013-02-11 07:10:00,
2013-02-11 00:11:00,13.1,8.6,30.44,ENE,77,5.0,11.0,82,0.00,,SKC,0.00,VWS V14.01,2013-02-11 07:11:00,
2013-02-11 00:12:00,13.1,8.6,30.44,ENE,65,3.0,7.0,82,0.00,,SKC,0.00,VWS V14.01,2013-02-11 07:12:00,
2013-02-11 00:13:00,13.0,8.6,30.44,ENE,78,6.0,10.0,82,0.00,,SKC,0.00,VWS V14.01,2013-02-11 07:13:00,
2013-02-11 00:14:00,13.0,8.6,30.44,East,91,10.0,11.0,82,0.00,,SKC,0.00,VWS V14.01,2013-02-11 07:14:00,
2013-02-11 00:15:00,13.0,8.6,30.44,East,96,11.0,13.0,82,0.00,,SKC,0.00,VWS V14.01,2013-02-11 07:15:00,
2013-02-11 00:16:00,12.9,8.4,30.44,East,101,7.0,11.0,82,0.00,,SKC,0.00,VWS V14.01,2013-02-11 07:16:00,
2013-02-11 00:17:00,12.9,8.7,30.45,East,94,10.0,10.0,83,0.00,,SKC,0.00,VWS V14.01,2013-02-11 07:17:00,
2013-02-11 00:18:00,12.9,8.7,30.45,ENE,78,6.0,10.0,83,0.00,,SKC,0.00,VWS V14.01,2013-02-11 07:18:00,
2013-02-11 00:19:00,12.9,8.7,30.45,East,91,9.0,11.0,83,0.00,,SKC,0.00,VWS V14.01,2013-02-11 07:19:00,
2013-02-11 00:20:00,12.9,8.7,30.45,North,360,7.0,11.0,83,0.00,,SKC,0.00,VWS V14.01,2013-02-11 07:20:00,
2013-02-11 00:21:00,12.8,8.6,30.45,East,91,6.0,9.0,83,0.00,,SKC,0.00,VWS V14.01,2013-02-11 07:21:00,
2013-02-11 00:22:00,12.8,8.6,30.45,East,90,5.0,9.0,83,0.00,,SKC,0.00,VWS V14.01,2013-02-11 07:22:00,
2013-02-11 00:23:00,12.8,8.6,30.45,East,86,4.0,9.0,83,0.00,,SKC,0.00,VWS V14.01,2013-02-11 07:23:00,
2013-02-11 00:24:00,12.8,8.6,30.45,North,360,9.0,10.0,83,0.00,,SKC,0.00,VWS V14.01,2013-02-11 07:24:00,
2013-02-11 00:25:00,12.8,8.6,30.45,East,98,6.0,10.0,83,0.00,,SKC,0.00,VWS V14.01,2013-02-11 07:25:00,
2013-02-11 00:26:00,12.7,8.5,30.45,East,87,7.0,7.0,83,0.00,,SKC,0.00,VWS V14.01,2013-02-11 07:26:00,
2013-02-11 00:27:00,12.7,8.5,30.45,East,92,3.0,7.0,83,0.00,,SKC,0.00,VWS V14.01,2013-02-11 07:27:00,
2013-02-11 00:28:00,12.7,8.5,30.44,East,90,3.0,5.0,83,0.00,,SKC,0.00,VWS V14.01,2013-02-11 07:28:00,
2013-02-11 00:29:00,12.6,8.4,30.45,East,84,6.0,7.0,83,0.00,,SKC,0.00,VWS V14.01,2013-02-11 07:29:00,
2013-02-11 00:30:00,12.6,8.4,30.45,ENE,71,4.0,8.0,83,0.00,,SKC,0.00,VWS V14.01,2013-02-11 07:30:00,
2013-02-11 00:31:00,12.6,8.7,30.45,East,97,5.0,9.0,84,0.00,,SKC,0.00,VWS V14.01,2013-02-11 07:31:00,
2013-02-11 00:32:00,12.6,8.7,30.45,East,91,4.0,6.0,84,0.00,,SKC,0.00,VWS V14.01,2013-02-11 07:32:00,
2013-02-11 00:33:00,12.6,8.7,30.45,ENE,61,2.0,6.0,84,0.00,,SKC,0.00,VWS V14.01,2013-02-11 07:33:00,
2013-02-11 00:34:00,12.6,8.7,30.45,East,88,5.0,7.0,84,0.00,,SKC,0.00,VWS V14.01,2013-02-11 07:34:00,
2013-02-11 00:35:00,12.6,8.7,30.45,ENE,76,3.0,5.0,84,0.00,,SKC,0.00,VWS V14.01,2013-02-11 07:35:00,
2013-02-11 00:36:00,12.5,8.6,30.45,East,85,3.0,6.0,84,0.00,,SKC,0.00,VWS V14.01,2013-02-11 07:36:00,
2013-02-11 00:37:00,12.5,8.6,30.45,ENE,63,0.0,4.0,84,0.00,,SKC,0.00,VWS V14.01,2013-02-11 07:37:00,
2013-02-11 00:38:00,12.5,8.6,30.45,ENE,72,3.0,4.0,84,0.00,,SKC,0.00,VWS V14.01,2013-02-11 07:38:00,
2013-02-11 00:39:00,12.5,8.6,30.45,East,80,2.0,5.0,84,0.00,,SKC,0.00,VWS V14.01,2013-02-11 07:39:00,
2013-02-11 00:40:00,12.5,8.6,30.45,ENE,61,0.0,5.0,84,0.00,,SKC,0.00,VWS V14.01,2013-02-11 07:40:00,
2013-02-11 00:41:00,12.4,8.5,30.45,ENE,67,3.0,5.0,84,0.00,,SKC,0.00,VWS V14.01,2013-02-11 07:41:00,
2013-02-11 00:42:00,12.4,8.5,30.45,ENE,74,2.0,6.0,84,0.00,,SKC,0.00,VWS V14.01,2013-02-11 07:42:00,
2013-02-11 00:43:00,12.4,8.5,30.45,ENE,74,0.0,4.0,84,0.00,,SKC,0.00,VWS V14.01,2013-02-11 07:43:00,
2013-02-11 00:44:00,12.4,8.5,30.45,ENE,61,0.0,4.0,84,0.00,,SKC,0.00,VWS V14.01,2013-02-11 07:44:00,
2013-02-11 00:45:00,12.4,8.5,30.45,ENE,69,0.0,1.0,84,0.00,,SKC,0.00,VWS V14.01,2013-02-11 07:45:00,
2013-02-11 00:46:00,12.3,8.4,30.45,ENE,66,0.0,0.0,84,0.00,,SKC,0.00,VWS V14.01,2013-02-11 07:46:00,
2013-02-11 00:47:00,12.3,8.4,30.45,ENE,64,0.0,2.0,84,0.00,,SKC,0.00,VWS V14.01,2013-02-11 07:47:00,
2013-02-11 00:48:00,12.3,8.4,30.45,ENE,66,0.0,2.0,84,0.00,,SKC,0.00,VWS V14.01,2013-02-11 07:48:00,
2013-02-11 00:49:00,12.3,8.4,30.45,ENE,65,0.0,2.0,84,0.00,,SKC,0.00,VWS V14.01,2013-02-11 07:49:00,
2013-02-11 00:50:00,12.3,8.4,30.45,ENE,73,0.0,3.0,84,0.00,,SKC,0.00,VWS V14.01,2013-02-11 07:50:00,
2013-02-11 00:51:00,12.3,8.4,30.45,East,82,1.0,3.0,84,0.00,,SKC,0.00,VWS V14.01,2013-02-11 07:51:00,
2013-02-11 00:52:00,12.3,8.4,30.45,East,84,2.0,3.0,84,0.00,,SKC,0.00,VWS V14.01,2013-02-11 07:52:00,
2013-02-11 00:53:00,12.3,8.4,30.45,East,84,2.0,3.0,84,0.00,,SKC,0.00,VWS V14.01,2013-02-11 07:53:00,
2013-02-11 00:54:00,12.3,8.4,30.45,East,84,0.0,4.0,84,0.00,,SKC,0.00,VWS V14.01,2013-02-11 07:54:00,
2013-02-11 00:55:00,12.3,8.4,30.45,ENE,76,1.0,2.0,84,0.00,,SKC,0.00,VWS V14.01,2013-02-11 07:55:00,
2013-02-11 00:56:00,12.3,8.4,30.45,East,84,0.0,2.0,84,0.00,,SKC,0.00,VWS V14.01,2013-02-11 07:56:00,
2013-02-11 00:57:00,12.3,8.4,30.45,East,80,0.0,3.0,84,0.00,,SKC,0.00,VWS V14.01,2013-02-11 07:57:00,
2013-02-11 00:58:00,12.3,8.4,30.45,East,80,0.0,1.0,84,0.00,,SKC,0.00,VWS V14.01,2013-02-11 07:58:00,
2013-02-11 00:59:00,12.3,8.4,30.45,East,80,0.0,1.0,84,0.00,,SKC,0.00,VWS V14.01,2013-02-11 07:59:00,
2013-02-11 01:00:00,12.3,8.4,30.45,East,86,0.0,2.0,84,0.00,,SKC,0.00,VWS V14.01,2013-02-11 08:00:00,
2013-02-11 01:01:00,12.3,8.4,30.45,East,84,0.0,0.0,84,0.00,,SKC,0.00,VWS V14.01,2013-02-11 08:01:00,
2013-02-11 01:02:00,12.3,8.4,30.45,East,81,0.0,0.0,84,0.00,,SKC,0.00,VWS V14.01,2013-02-11 08:02:00,
2013-02-11 01:03:00,12.3,8.4,30.45,East,81,0.0,0.0,84,0.00,,SKC,0.00,VWS V14.01,2013-02-11 08:03:00,
2013-02-11 01:04:00,12.3,8.4,30.45,ENE,78,0.0,0.0,84,0.00,,SKC,0.00,VWS V14.01,2013-02-11 08:04:00,
2013-02-11 01:05:00,12.3,8.4,30.45,East,81,0.0,1.0,84,0.00,,SKC,0.00,VWS V14.01,2013-02-11 08:05:00,
2013-02-11 01:06:00,12.3,8.4,30.45,East,80,2.0,2.0,84,0.00,,SKC,0.00,VWS V14.01,2013-02-11 08:06:00,
2013-02-11 01:07:00,12.3,8.4,30.45,East,80,0.0,2.0,84,0.00,,SKC,0.00,VWS V14.01,2013-02-11 08:07:00,
2013-02-11 01:08:00,12.3,8.4,30.45,East,81,0.0,1.0,84,0.00,,SKC,0.00,VWS V14.01,2013-02-11 08:08:00,
2013-02-11 01:09:00,12.3,8.4,30.45,ENE,76,1.0,2.0,84,0.00,,SKC,0.00,VWS V14.01,2013-02-11 08:09:00,
2013-02-11 01:10:00,12.3,8.4,30.45,East,84,0.0,1.0,84,0.00,,SKC,0.00,VWS V14.01,2013-02-11 08:10:00,
2013-02-11 01:11:00,12.3,8.1,30.45,ENE,78,1.0,2.0,83,0.00,,SKC,0.00,VWS V14.01,2013-02-11 08:11:00,
2013-02-11 01:12:00,12.3,8.1,30.45,East,80,1.0,3.0,83,0.00,,SKC,0.00,VWS V14.01,2013-02-11 08:12:00,
2013-02-11 01:13:00,12.3,8.1,30.45,ENE,75,1.0,3.0,83,0.00,,SKC,0.00,VWS V14.01,2013-02-11 08:13:00,
2013-02-11 01:14:00,12.3,8.1,30.45,East,79,1.0,2.0,83,0.00,,SKC,0.00,VWS V14.01,2013-02-11 08:14:00,
2013-02-11 01:15:00,12.3,8.1,30.45,ENE,78,0.0,1.0,83,0.00,,SKC,0.00,VWS V14.01,2013-02-11 08:15:00,
2013-02-11 01:16:00,12.3,8.1,30.45,East,82,2.0,2.0,83,0.00,,SKC,0.00,VWS V14.01,2013-02-11 08:16:00,
2013-02-11 01:17:00,12.3,8.4,30.45,East,79,3.0,3.0,84,0.00,,SKC,0.00,VWS V14.01,2013-02-11 08:17:00,
2013-02-11 01:18:00,12.3,8.4,30.45,ENE,76,1.0,3.0,84,0.00,,SKC,0.00,VWS V14.01,2013-02-11 08:18:00,
2013-02-11 01:19:00,12.3,8.4,30.45,East,82,0.0,1.0,84,0.00,,SKC,0.00,VWS V14.01,2013-02-11 08:19:00,
2013-02-11 01:20:00,12.3,8.4,30.45,East,82,2.0,2.0,84,0.00,,SKC,0.00,VWS V14.01,2013-02-11 08:20:00,
2013-02-11 01:21:00,12.3,8.4,30.45,East,80,0.0,2.0,84,0.00,,SKC,0.00,VWS V14.01,2013-02-11 08:21:00,
2013-02-11 01:22:00,12.3,8.1,30.45,ENE,78,0.0,2.0,83,0.00,,SKC,0.00,VWS V14.01,2013-02-11 08:22:00,
2013-02-11 01:23:00,12.3,8.1,30.45,East,82,0.0,0.0,83,0.00,,SKC,0.00,VWS V14.01,2013-02-11 08:23:00,
2013-02-11 01:24:00,12.3,8.1,30.45,ENE,76,0.0,0.0,83,0.00,,SKC,0.00,VWS V14.01,2013-02-11 08:24:00,
2013-02-11 01:25:00,12.3,8.1,30.45,East,80,0.0,0.0,83,0.00,,SKC,0.00,VWS V14.01,2013-02-11 08:25:00,
2013-02-11 01:26:00,12.3,8.1,30.45,East,79,0.0,0.0,83,0.00,,SKC,0.00,VWS V14.01,2013-02-11 08:26:00,
2013-02-11 01:27:00,12.3,8.1,30.45,ENE,77,0.0,0.0,83,0.00,,SKC,0.00,VWS V14.01,2013-02-11 08:27:00,
2013-02-11 01:28:00,12.3,8.1,30.45,East,82,0.0,0.0,83,0.00,,SKC,0.00,VWS V14.01,2013-02-11 08:28:00,
2013-02-11 01:29:00,12.3,8.1,30.45,East,84,0.0,0.0,83,0.00,,SKC,0.00,VWS V14.01,2013-02-11 08:29:00,
2013-02-11 01:30:00,12.3,8.1,30.45,ENE,78,0.0,0.0,83,0.00,,SKC,0.00,VWS V14.01,2013-02-11 08:30:00,
2013-02-11 01:31:00,12.3,8.1,30.45,ENE,78,0.0,0.0,83,0.00,,SKC,0.00,VWS V14.01,2013-02-11 08:31:00,
2013-02-11 01:32:00,12.3,8.4,30.46,East,81,0.0,0.0,84,0.00,,SKC,0.00,VWS V14.01,2013-02-11 08:32:00,
2013-02-11 01:33:00,12.3,8.4,30.45,East,79,0.0,0.0,84,0.00,,SKC,0.00,VWS V14.01,2013-02-11 08:33:00,
2013-02-11 01:34:00,12.3,8.1,30.45,ENE,78,0.0,0.0,83,0.00,,SKC,0.00,VWS V14.01,2013-02-11 08:34:00,
2013-02-11 01:35:00,12.4,8.2,30.45,ENE,76,0.0,1.0,83,0.00,,SKC,0.00,VWS V14.01,2013-02-11 08:35:00,
2013-02-11 01:36:00,12.4,8.2,30.46,East,80,0.0,1.0,83,0.00,,SKC,0.00,VWS V14.01,2013-02-11 08:36:00,
2013-02-11 01:37:00,12.4,8.2,30.46,East,81,0.0,2.0,83,0.00,,SKC,0.00,VWS V14.01,2013-02-11 08:37:00,
2013-02-11 01:38:00,12.4,8.5,30.46,East,80,1.0,4.0,84,0.00,,SKC,0.00,VWS V14.01,2013-02-11 08:38:00,
2013-02-11 01:39:00,12.4,8.5,30.45,East,88,0.0,2.0,84,0.00,,SKC,0.00,VWS V14.01,2013-02-11 08:39:00,
2013-02-11 01:40:00,12.4,8.5,30.46,East,80,0.0,0.0,84,0.00,,SKC,0.00,VWS V14.01,2013-02-11 08:40:00,
2013-02-11 01:41:00,12.4,8.5,30.46,East,82,1.0,1.0,84,0.00,,SKC,0.00,VWS V14.01,2013-02-11 08:41:00,
2013-02-11 01:42:00,12.4,8.5,30.46,East,80,1.0,3.0,84,0.00,,SKC,0.00,VWS V14.01,2013-02-11 08:42:00,
2013-02-11 01:43:00,12.4,8.2,30.46,East,84,0.0,2.0,83,0.00,,SKC,0.00,VWS V14.01,2013-02-11 08:43:00,
2013-02-11 01:44:00,12.4,8.2,30.45,East,80,0.0,2.0,83,0.00,,SKC,0.00,VWS V14.01,2013-02-11 08:44:00,
2013-02-11 01:45:00,12.4,8.2,30.46,East,81,2.0,3.0,83,0.00,,SKC,0.00,VWS V14.01,2013-02-11 08:45:00,
2013-02-11 01:46:00,12.4,8.2,30.46,East,81,0.0,3.0,83,0.00,,SKC,0.00,VWS V14.01,2013-02-11 08:46:00,
2013-02-11 01:47:00,12.4,8.2,30.46,ENE,78,0.0,1.0,83,0.00,,SKC,0.00,VWS V14.01,2013-02-11 08:47:00,
2013-02-11 01:48:00,12.3,8.1,30.46,ENE,78,1.0,2.0,83,0.00,,SKC,0.00,VWS V14.01,2013-02-11 08:48:00,
2013-02-11 01:49:00,12.3,8.1,30.45,East,89,0.0,1.0,83,0.00,,SKC,0.00,VWS V14.01,2013-02-11 08:49:00,
2013-02-11 01:50:00,12.3,8.1,30.46,East,84,0.0,1.0,83,0.00,,SKC,0.00,VWS V14.01,2013-02-11 08:50:00,
2013-02-11 01:51:00,12.3,8.1,30.45,East,81,0.0,1.0,83,0.00,,SKC,0.00,VWS V14.01,2013-02-11 08:51:00,
2013-02-11 01:52:00,12.3,8.1,30.45,East,81,0.0,1.0,83,0.00,,SKC,0.00,VWS V14.01,2013-02-11 08:52:00,
2013-02-11 01:53:00,12.3,8.1,30.45,East,81,0.0,1.0,83,0.00,,SKC,0.00,VWS V14.01,2013-02-11 08:53:00,
2013-02-11 01:54:00,12.3,8.1,30.45,East,81,1.0,2.0,83,0.00,,SKC,0.00,VWS V14.01,2013-02-11 08:54:00,
2013-02-11 01:55:00,12.3,8.1,30.46,East,85,0.0,2.0,83,0.00,,SKC,0.00,VWS V14.01,2013-02-11 08:55:00,
2013-02-11 01:56:00,12.3,8.1,30.45,East,81,0.0,1.0,83,0.00,,SKC,0.00,VWS V14.01,2013-02-11 08:56:00,
2013-02-11 01:57:00,12.3,8.1,30.46,East,80,2.0,3.0,83,0.00,,SKC,0.00,VWS V14.01,2013-02-11 08:57:00,
2013-02-11 01:58:00,12.3,8.1,30.46,ENE,74,0.0,3.0,83,0.00,,SKC,0.00,VWS V14.01,2013-02-11 08:58:00,
2013-02-11 01:59:00,12.3,8.1,30.45,ENE,78,0.0,1.0,83,0.00,,SKC,0.00,VWS V14.01,2013-02-11 08:59:00,
2013-02-11 02:00:00,12.3,8.1,30.46,East,80,0.0,0.0,83,0.00,,SKC,0.00,VWS V14.01,2013-02-11 09:00:00,
2013-02-11 02:01:00,12.2,8.0,30.46,East,80,3.0,3.0,83,0.00,,SKC,0.00,VWS V14.01,2013-02-11 09:01:00,
2013-02-11 02:02:00,12.2,8.0,30.46,ENE,72,1.0,3.0,83,0.00,,SKC,0.00,VWS V14.01,2013-02-11 09:02:00,
2013-02-11 02:03:00,12.2,8.0,30.45,East,80,0.0,2.0,83,0.00,,SKC,0.00,VWS V14.01,2013-02-11 09:03:00,
2013-02-11 02:04:00,12.2,8.0,30.45,East,80,0.0,2.0,83,0.00,,SKC,0.00,VWS V14.01,2013-02-11 09:04:00,
2013-02-11 02:05:00,12.1,7.9,30.45,ENE,72,0.0,1.0,83,0.00,,SKC,0.00,VWS V14.01,2013-02-11 09:05:00,
2013-02-11 02:06:00,12.1,7.9,30.45,East,80,0.0,1.0,83,0.00,,SKC,0.00,VWS V14.01,2013-02-11 09:06:00,
2013-02-11 02:07:00,12.1,7.9,30.45,ENE,78,0.0,0.0,83,0.00,,SKC,0.00,VWS V14.01,2013-02-11 09:07:00,
2013-02-11 02:08:00,12.1,7.9,30.45,ENE,57,0.0,1.0,83,0.00,,SKC,0.00,VWS V14.01,2013-02-11 09:08:00,
2013-02-11 02:09:00,12.0,7.8,30.45,ENE,64,2.0,3.0,83,0.00,,SKC,0.00,VWS V14.01,2013-02-11 09:09:00,
2013-02-11 02:10:00,12.0,7.8,30.45,ENE,73,2.0,3.0,83,0.00,,SKC,0.00,VWS V14.01,2013-02-11 09:10:00,
2013-02-11 02:11:00,12.0,7.8,30.45,ENE,66,0.0,2.0,83,0.00,,SKC,0.00,VWS V14.01,2013-02-11 09:11:00,
2013-02-11 02:12:00,12.0,7.8,30.45,ENE,65,0.0,2.0,83,0.00,,SKC,0.00,VWS V14.01,2013-02-11 09:12:00,
2013-02-11 02:13:00,11.9,7.7,30.45,ENE,67,0.0,1.0,83,0.00,,SKC,0.00,VWS V14.01,2013-02-11 09:13:00,
2013-02-11 02:14:00,11.9,7.7,30.45,ENE,71,0.0,0.0,83,0.00,,SKC,0.00,VWS V14.01,2013-02-11 09:14:00,
2013-02-11 02:15:00,11.9,7.7,30.45,ENE,68,0.0,0.0,83,0.00,,SKC,0.00,VWS V14.01,2013-02-11 09:15:00,
2013-02-11 02:16:00,11.9,7.7,30.45,ENE,68,0.0,0.0,83,0.00,,SKC,0.00,VWS V14.01,2013-02-11 09:16:00,
2013-02-11 02:17:00,11.8,7.6,30.45,ENE,67,0.0,0.0,83,0.00,,SKC,0.00,VWS V14.01,2013-02-11 09:17:00,
2013-02-11 02:18:00,11.8,7.6,30.45,ENE,71,0.0,0.0,83,0.00,,SKC,0.00,VWS V14.01,2013-02-11 09:18:00,
2013-02-11 02:19:00,11.8,7.6,30.45,ENE,69,0.0,0.0,83,0.00,,SKC,0.00,VWS V14.01,2013-02-11 09:19:00,
2013-02-11 02:20:00,11.8,7.6,30.45,ENE,69,0.0,0.0,83,0.00,,SKC,0.00,VWS V14.01,2013-02-11 09:20:00,
2013-02-11 02:21:00,11.8,7.6,30.45,ENE,69,0.0,0.0,83,0.00,,SKC,0.00,VWS V14.01,2013-02-11 09:21:00,
2013-02-11 02:22:00,11.7,7.6,30.45,ENE,70,0.0,0.0,83,0.00,,SKC,0.00,VWS V14.01,2013-02-11 09:22:00,
2013-02-11 02:23:00,11.7,7.6,30.45,ENE,76,0.0,0.0,83,0.00,,SKC,0.00,VWS V14.01,2013-02-11 09:23:00,
2013-02-11 02:24:00,11.7,7.6,30.45,ENE,66,0.0,0.0,83,0.00,,SKC,0.00,VWS V14.01,2013-02-11 09:24:00,
2013-02-11 02:25:00,11.6,7.2,30.45,ENE,70,0.0,0.0,82,0.00,,SKC,0.00,VWS V14.01,2013-02-11 09:25:00,
2013-02-11 02:26:00,11.6,7.2,30.45,ENE,69,0.0,0.0,82,0.00,,SKC,0.00,VWS V14.01,2013-02-11 09:26:00,
2013-02-11 02:27:00,11.6,7.2,30.45,ENE,67,0.0,0.0,82,0.00,,SKC,0.00,VWS V14.01,2013-02-11 09:27:00,
2013-02-11 02:28:00,11.5,7.1,30.45,ENE,68,0.0,0.0,82,0.00,,SKC,0.00,VWS V14.01,2013-02-11 09:28:00,
2013-02-11 02:29:00,11.5,7.1,30.45,ENE,72,0.0,0.0,82,0.00,,SKC,0.00,VWS V14.01,2013-02-11 09:29:00,
2013-02-11 02:30:00,11.4,7.0,30.45,ENE,67,0.0,0.0,82,0.00,,SKC,0.00,VWS V14.01,2013-02-11 09:30:00,
2013-02-11 02:31:00,11.4,7.0,30.45,ENE,71,0.0,0.0,82,0.00,,SKC,0.00,VWS V14.01,2013-02-11 09:31:00,
2013-02-11 02:32:00,11.3,6.9,30.45,ENE,75,0.0,0.0,82,0.00,,SKC,0.00,VWS V14.01,2013-02-11 09:32:00,
2013-02-11 02:33:00,11.3,6.9,30.45,ENE,69,0.0,0.0,82,0.00,,SKC,0.00,VWS V14.01,2013-02-11 09:33:00,
2013-02-11 02:34:00,11.3,6.9,30.45,ENE,73,0.0,0.0,82,0.00,,SKC,0.00,VWS V14.01,2013-02-11 09:34:00,
2013-02-11 02:35:00,11.2,6.8,30.45,ENE,69,0.0,0.0,82,0.00,,SKC,0.00,VWS V14.01,2013-02-11 09:35:00,
2013-02-11 02:36:00,11.2,7.1,30.45,ENE,69,0.0,0.0,83,0.00,,SKC,0.00,VWS V14.01,2013-02-11 09:36:00,
2013-02-11 02:37:00,11.1,7.0,30.45,ENE,69,0.0,0.0,83,0.00,,SKC,0.00,VWS V14.01,2013-02-11 09:37:00,
2013-02-11 02:38:00,11.1,7.0,30.45,ENE,67,0.0,0.0,83,0.00,,SKC,0.00,VWS V14.01,2013-02-11 09:38:00,
2013-02-11 02:39:00,11.0,6.9,30.45,ENE,70,0.0,0.0,83,0.00,,SKC,0.00,VWS V14.01,2013-02-11 09:39:00,
2013-02-11 02:40:00,11.0,6.9,30.45,ENE,73,0.0,0.0,83,0.00,,SKC,0.00,VWS V14.01,2013-02-11 09:40:00,
2013-02-11 02:41:00,11.0,6.9,30.45,ENE,71,0.0,0.0,83,0.00,,SKC,0.00,VWS V14.01,2013-02-11 09:41:00,
2013-02-11 02:42:00,11.0,6.9,30.45,ENE,67,0.0,0.0,83,0.00,,SKC,0.00,VWS V14.01,2013-02-11 09:42:00,
2013-02-11 02:43:00,10.9,6.8,30.45,ENE,69,0.0,0.0,83,0.00,,SKC,0.00,VWS V14.01,2013-02-11 09:43:00,
2013-02-11 02:44:00,10.9,6.8,30.45,ENE,69,0.0,0.0,83,0.00,,SKC,0.00,VWS V14.01,2013-02-11 09:44:00,
2013-02-11 02:45:00,10.9,6.8,30.45,ENE,72,0.0,0.0,83,0.00,,SKC,0.00,VWS V14.01,2013-02-11 09:45:00,
2013-02-11 02:46:00,10.9,6.8,30.45,ENE,65,0.0,0.0,83,0.00,,SKC,0.00,VWS V14.01,2013-02-11 09:46:00,
2013-02-11 02:47:00,10.8,6.7,30.45,ENE,69,0.0,0.0,83,0.00,,SKC,0.00,VWS V14.01,2013-02-11 09:47:00,
2013-02-11 02:48:00,10.8,6.9,30.45,ENE,70,0.0,1.0,84,0.00,,SKC,0.00,VWS V14.01,2013-02-11 09:48:00,
2013-02-11 02:49:00,10.8,6.9,30.45,ENE,63,0.0,1.0,84,0.00,,SKC,0.00,VWS V14.01,2013-02-11 09:49:00,
2013-02-11 02:50:00,10.8,6.9,30.45,ENE,74,0.0,0.0,84,0.00,,SKC,0.00,VWS V14.01,2013-02-11 09:50:00,
2013-02-11 02:51:00,10.8,6.9,30.45,ENE,68,0.0,0.0,84,0.00,,SKC,0.00,VWS V14.01,2013-02-11 09:51:00,
2013-02-11 02:52:00,10.8,6.9,30.45,ENE,67,0.0,0.0,84,0.00,,SKC,0.00,VWS V14.01,2013-02-11 09:52:00,
2013-02-11 02:53:00,10.8,6.9,30.45,ENE,67,0.0,0.0,84,0.00,,SKC,0.00,VWS V14.01,2013-02-11 09:53:00,
2013-02-11 02:54:00,10.8,6.9,30.45,ENE,71,0.0,0.0,84,0.00,,SKC,0.00,VWS V14.01,2013-02-11 09:54:00,
2013-02-11 02:55:00,10.8,6.9,30.45,ENE,67,0.0,0.0,84,0.00,,SKC,0.00,VWS V14.01,2013-02-11 09:55:00,
2013-02-11 02:56:00,10.8,7.2,30.45,ENE,70,0.0,0.0,85,0.00,,SKC,0.00,VWS V14.01,2013-02-11 09:56:00,
2013-02-11 02:57:00,10.8,7.2,30.45,ENE,69,0.0,0.0,85,0.00,,SKC,0.00,VWS V14.01,2013-02-11 09:57:00,
2013-02-11 02:58:00,10.7,7.1,30.44,ENE,69,0.0,0.0,85,0.00,,SKC,0.00,VWS V14.01,2013-02-11 09:58:00,
2013-02-11 02:59:00,10.7,7.1,30.44,ENE,69,0.0,0.0,85,0.00,,SKC,0.00,VWS V14.01,2013-02-11 09:59:00,
2013-02-11 03:00:00,10.7,7.1,30.44,ENE,71,0.0,0.0,85,0.00,,SKC,0.00,VWS V14.01,2013-02-11 10:00:00,
2013-02-11 03:01:00,10.7,7.1,30.44,ENE,68,0.0,0.0,85,0.00,,SKC,0.00,VWS V14.01,2013-02-11 10:01:00,
2013-02-11 03:02:00,10.7,7.1,30.44,ENE,62,0.0,0.0,85,0.00,,SKC,0.00,VWS V14.01,2013-02-11 10:02:00,
2013-02-11 03:03:00,10.6,7.0,30.45,ENE,71,0.0,0.0,85,0.00,,SKC,0.00,VWS V14.01,2013-02-11 10:03:00,
2013-02-11 03:04:00,10.6,7.0,30.44,ENE,69,0.0,0.0,85,0.00,,SKC,0.00,VWS V14.01,2013-02-11 10:04:00,
2013-02-11 03:05:00,10.6,7.0,30.44,ENE,69,0.0,0.0,85,0.00,,SKC,0.00,VWS V14.01,2013-02-11 10:05:00,
2013-02-11 03:06:00,10.6,7.0,30.44,ENE,67,0.0,0.0,85,0.00,,SKC,0.00,VWS V14.01,2013-02-11 10:06:00,
2013-02-11 03:07:00,10.6,7.0,30.45,ENE,70,0.0,0.0,85,0.00,,SKC,0.00,VWS V14.01,2013-02-11 10:07:00,
2013-02-11 03:08:00,10.6,7.0,30.44,ENE,69,0.0,0.0,85,0.00,,SKC,0.00,VWS V14.01,2013-02-11 10:08:00,
2013-02-11 03:09:00,10.5,6.9,30.44,ENE,74,0.0,0.0,85,0.00,,SKC,0.00,VWS V14.01,2013-02-11 10:09:00,
2013-02-11 03:10:00,10.5,6.9,30.45,ENE,71,0.0,0.0,85,0.00,,SKC,0.00,VWS V14.01,2013-02-11 10:10:00,
2013-02-11 03:11:00,10.5,6.9,30.44,ENE,72,0.0,0.0,85,0.00,,SKC,0.00,VWS V14.01,2013-02-11 10:11:00,
2013-02-11 03:12:00,10.5,6.9,30.44,ENE,71,0.0,0.0,85,0.00,,SKC,0.00,VWS V14.01,2013-02-11 10:12:00,
2013-02-11 03:13:00,10.5,6.9,30.44,ENE,70,0.0,0.0,85,0.00,,SKC,0.00,VWS V14.01,2013-02-11 10:13:00,
2013-02-11 03:14:00,10.5,7.2,30.44,ENE,67,0.0,0.0,86,0.00,,SKC,0.00,VWS V14.01,2013-02-11 10:14:00,
2013-02-11 03:15:00,10.5,7.2,30.44,ENE,73,0.0,0.0,86,0.00,,SKC,0.00,VWS V14.01,2013-02-11 10:15:00,
2013-02-11 03:16:00,10.5,7.2,30.44,ENE,71,0.0,0.0,86,0.00,,SKC,0.00,VWS V14.01,2013-02-11 10:16:00,
2013-02-11 03:17:00,10.5,7.2,30.44,ENE,68,0.0,0.0,86,0.00,,SKC,0.00,VWS V14.01,2013-02-11 10:17:00,
2013-02-11 03:18:00,10.5,7.2,30.44,ENE,67,0.0,0.0,86,0.00,,SKC,0.00,VWS V14.01,2013-02-11 10:18:00,
2013-02-11 03:19:00,10.5,7.2,30.44,ENE,65,0.0,0.0,86,0.00,,SKC,0.00,VWS V14.01,2013-02-11 10:19:00,
2013-02-11 03:20:00,10.5,7.2,30.44,ENE,72,0.0,0.0,86,0.00,,SKC,0.00,VWS V14.01,2013-02-11 10:20:00,
2013-02-11 03:21:00,10.5,7.2,30.45,ENE,71,0.0,0.0,86,0.00,,SKC,0.00,VWS V14.01,2013-02-11 10:21:00,
2013-02-11 03:22:00,10.5,7.2,30.44,ENE,72,0.0,0.0,86,0.00,,SKC,0.00,VWS V14.01,2013-02-11 10:22:00,
2013-02-11 03:23:00,10.5,7.2,30.44,ENE,73,0.0,0.0,86,0.00,,SKC,0.00,VWS V14.01,2013-02-11 10:23:00,
2013-02-11 03:24:00,10.5,7.2,30.44,ENE,69,0.0,0.0,86,0.00,,SKC,0.00,VWS V14.01,2013-02-11 10:24:00,
2013-02-11 03:25:00,10.5,7.2,30.44,ENE,69,0.0,0.0,86,0.00,,SKC,0.00,VWS V14.01,2013-02-11 10:25:00,
2013-02-11 03:26:00,10.5,7.2,30.45,ENE,70,0.0,0.0,86,0.00,,SKC,0.00,VWS V14.01,2013-02-11 10:26:00,
2013-02-11 03:27:00,10.5,7.2,30.44,ENE,76,0.0,0.0,86,0.00,,SKC,0.00,VWS V14.01,2013-02-11 10:27:00,
2013-02-11 03:28:00,10.5,7.2,30.45,ENE,67,0.0,0.0,86,0.00,,SKC,0.00,VWS V14.01,2013-02-11 10:28:00,
2013-02-11 03:29:00,10.5,7.2,30.45,ENE,73,0.0,0.0,86,0.00,,SKC,0.00,VWS V14.01,2013-02-11 10:29:00,
2013-02-11 03:30:00,10.5,7.2,30.45,ENE,73,0.0,0.0,86,0.00,,SKC,0.00,VWS V14.01,2013-02-11 10:30:00,
2013-02-11 03:31:00,10.4,7.1,30.45,ENE,74,0.0,0.0,86,0.00,,SKC,0.00,VWS V14.01,2013-02-11 10:31:00,
2013-02-11 03:32:00,10.4,7.1,30.45,ENE,67,0.0,0.0,86,0.00,,SKC,0.00,VWS V14.01,2013-02-11 10:32:00,
2013-02-11 03:33:00,10.4,7.1,30.45,ENE,69,0.0,0.0,86,0.00,,SKC,0.00,VWS V14.01,2013-02-11 10:33:00,
2013-02-11 03:34:00,10.4,7.1,30.44,ENE,67,0.0,0.0,86,0.00,,SKC,0.00,VWS V14.01,2013-02-11 10:34:00,
2013-02-11 03:35:00,10.4,7.1,30.44,ENE,70,0.0,0.0,86,0.00,,SKC,0.00,VWS V14.01,2013-02-11 10:35:00,
2013-02-11 03:36:00,10.4,7.1,30.44,ENE,70,0.0,0.0,86,0.00,,SKC,0.00,VWS V14.01,2013-02-11 10:36:00,
2013-02-11 03:37:00,10.4,7.1,30.44,ENE,75,0.0,0.0,86,0.00,,SKC,0.00,VWS V14.01,2013-02-11 10:37:00,
2013-02-11 03:38:00,10.4,7.1,30.44,ENE,68,0.0,0.0,86,0.00,,SKC,0.00,VWS V14.01,2013-02-11 10:38:00,
2013-02-11 03:39:00,10.3,6.9,30.45,ENE,71,0.0,0.0,86,0.00,,SKC,0.00,VWS V14.01,2013-02-11 10:39:00,
2013-02-11 03:40:00,10.3,6.9,30.44,ENE,68,0.0,0.0,86,0.00,,SKC,0.00,VWS V14.01,2013-02-11 10:40:00,
2013-02-11 03:41:00,10.3,6.9,30.44,ENE,71,0.0,0.0,86,0.00,,SKC,0.00,VWS V14.01,2013-02-11 10:41:00,
2013-02-11 03:42:00,10.3,6.9,30.45,ENE,68,0.0,0.0,86,0.00,,SKC,0.00,VWS V14.01,2013-02-11 10:42:00,
2013-02-11 03:43:00,10.3,6.9,30.45,ENE,71,0.0,1.0,86,0.00,,SKC,0.00,VWS V14.01,2013-02-11 10:43:00,
2013-02-11 03:44:00,10.3,6.9,30.45,ENE,71,0.0,0.0,86,0.00,,SKC,0.00,VWS V14.01,2013-02-11 10:44:00,
2013-02-11 03:45:00,10.3,6.9,30.44,ENE,68,0.0,1.0,86,0.00,,SKC,0.00,VWS V14.01,2013-02-11 10:45:00,
2013-02-11 03:46:00,10.3,6.9,30.44,ENE,67,2.0,2.0,86,0.00,,SKC,0.00,VWS V14.01,2013-02-11 10:46:00,
2013-02-11 03:47:00,10.3,6.9,30.45,ENE,64,1.0,2.0,86,0.00,,SKC,0.00,VWS V14.01,2013-02-11 10:47:00,
2013-02-11 03:48:00,10.3,6.9,30.45,ENE,65,2.0,2.0,86,0.00,,SKC,0.00,VWS V14.01,2013-02-11 10:48:00,
2013-02-11 03:49:00,10.2,6.6,30.45,ENE,71,0.0,2.0,85,0.00,,SKC,0.00,VWS V14.01,2013-02-11 10:49:00,
2013-02-11 03:50:00,10.1,6.5,30.45,ENE,73,1.0,2.0,85,0.00,,SKC,0.00,VWS V14.01,2013-02-11 10:50:00,
2013-02-11 03:51:00,10.0,6.4,30.45,ENE,65,1.0,3.0,85,0.00,,SKC,0.00,VWS V14.01,2013-02-11 10:51:00,
2013-02-11 03:52:00,9.9,6.3,30.45,NNE,19,3.0,3.0,85,0.00,,SKC,0.00,VWS V14.01,2013-02-11 10:52:00,
2013-02-11 03:53:00,9.9,6.0,30.45,NNE,15,4.0,5.0,84,0.00,,SKC,0.00,VWS V14.01,2013-02-11 10:53:00,
2013-02-11 03:54:00,9.9,6.0,30.45,NNE,18,0.0,4.0,84,0.00,,SKC,0.00,VWS V14.01,2013-02-11 10:54:00,
2013-02-11 03:55:00,9.7,5.8,30.45,NNE,20,1.0,3.0,84,0.00,,SKC,0.00,VWS V14.01,2013-02-11 10:55:00,
2013-02-11 03:56:00,9.6,5.8,30.45,NNE,16,2.0,2.0,84,0.00,,SKC,0.00,VWS V14.01,2013-02-11 10:56:00,
2013-02-11 03:57:00,9.5,5.7,30.44,NNE,17,0.0,2.0,84,0.00,,SKC,0.00,VWS V14.01,2013-02-11 10:57:00,
2013-02-11 03:58:00,9.5,5.7,30.45,NNE,13,1.0,1.0,84,0.00,,SKC,0.00,VWS V14.01,2013-02-11 10:58:00,
2013-02-11 03:59:00,9.4,5.3,30.45,NNE,14,0.0,1.0,83,0.00,,SKC,0.00,VWS V14.01,2013-02-11 10:59:00,
2013-02-11 04:00:00,9.4,5.3,30.45,NNE,13,0.0,1.0,83,0.00,,SKC,0.00,VWS V14.01,2013-02-11 11:00:00,
2013-02-11 04:01:00,9.3,5.2,30.45,NNE,14,0.0,0.0,83,0.00,,SKC,0.00,VWS V14.01,2013-02-11 11:01:00,
2013-02-11 04:02:00,9.2,5.1,30.45,NNE,15,0.0,1.0,83,0.00,,SKC,0.00,VWS V14.01,2013-02-11 11:02:00,
2013-02-11 04:03:00,9.2,5.1,30.45,NNE,16,0.0,2.0,83,0.00,,SKC,0.00,VWS V14.01,2013-02-11 11:03:00,
2013-02-11 04:04:00,9.2,5.1,30.45,NNE,21,0.0,0.0,83,0.00,,SKC,0.00,VWS V14.01,2013-02-11 11:04:00,
2013-02-11 04:05:00,9.1,5.0,30.45,NNE,14,0.0,0.0,83,0.00,,SKC,0.00,VWS V14.01,2013-02-11 11:05:00,
2013-02-11 04:06:00,9.1,5.0,30.45,NNE,19,1.0,1.0,83,0.00,,SKC,0.00,VWS V14.01,2013-02-11 11:06:00,
2013-02-11 04:07:00,9.0,4.9,30.45,NNE,13,1.0,2.0,83,0.00,,SKC,0.00,VWS V14.01,2013-02-11 11:07:00,
2013-02-11 04:08:00,9.0,4.9,30.45,NNE,13,1.0,2.0,83,0.00,,SKC,0.00,VWS V14.01,2013-02-11 11:08:00,
2013-02-11 04:09:00,8.9,4.5,30.45,NNE,17,0.0,0.0,82,0.00,,SKC,0.00,VWS V14.01,2013-02-11 11:09:00,
2013-02-11 04:10:00,8.8,4.4,30.45,NNE,16,0.0,0.0,82,0.00,,SKC,0.00,VWS V14.01,2013-02-11 11:10:00,
2013-02-11 04:11:00,8.7,4.3,30.45,NNE,15,0.0,0.0,82,0.00,,SKC,0.00,VWS V14.01,2013-02-11 11:11:00,
2013-02-11 04:12:00,8.6,4.2,30.45,NNE,16,0.0,0.0,82,0.00,,SKC,0.00,VWS V14.01,2013-02-11 11:12:00,
2013-02-11 04:13:00,8.6,4.2,30.45,NNE,14,0.0,0.0,82,0.00,,SKC,0.00,VWS V14.01,2013-02-11 11:13:00,
2013-02-11 04:14:00,8.6,4.2,30.45,NNE,15,0.0,0.0,82,0.00,,SKC,0.00,VWS V14.01,2013-02-11 11:14:00,
2013-02-11 04:15:00,8.5,4.4,30.45,NNE,15,0.0,0.0,83,0.00,,SKC,0.00,VWS V14.01,2013-02-11 11:15:00,
2013-02-11 04:16:00,8.5,4.1,30.45,NNE,16,0.0,0.0,82,0.00,,SKC,0.00,VWS V14.01,2013-02-11 11:16:00,
2013-02-11 04:17:00,8.4,4.1,30.45,NNE,18,0.0,0.0,82,0.00,,SKC,0.00,VWS V14.01,2013-02-11 11:17:00,
2013-02-11 04:18:00,8.3,4.0,30.45,NNE,17,1.0,2.0,82,0.00,,SKC,0.00,VWS V14.01,2013-02-11 11:18:00,
2013-02-11 04:19:00,8.2,3.8,30.45,NNE,17,0.0,2.0,82,0.00,,SKC,0.00,VWS V14.01,2013-02-11 11:19:00,
2013-02-11 04:20:00,8.1,3.5,30.45,NNE,16,0.0,1.0,81,0.00,,SKC,0.00,VWS V14.01,2013-02-11 11:20:00,
2013-02-11 04:21:00,8.0,3.7,30.45,NNE,18,0.0,0.0,82,0.00,,SKC,0.00,VWS V14.01,2013-02-11 11:21:00,
2013-02-11 04:22:00,7.9,3.3,30.45,NNE,14,0.0,0.0,81,0.00,,SKC,0.00,VWS V14.01,2013-02-11 11:22:00,
2013-02-11 04:23:00,7.8,3.2,30.45,NNE,13,0.0,0.0,81,0.00,,SKC,0.00,VWS V14.01,2013-02-11 11:23:00,
2013-02-11 04:24:00,7.7,3.1,30.45,NNE,17,0.0,0.0,81,0.00,,SKC,0.00,VWS V14.01,2013-02-11 11:24:00,
2013-02-11 04:25:00,7.6,3.0,30.45,NNE,15,0.0,0.0,81,0.00,,SKC,0.00,VWS V14.01,2013-02-11 11:25:00,
2013-02-11 04:26:00,7.5,2.9,30.45,North,11,0.0,2.0,81,0.00,,SKC,0.00,VWS V14.01,2013-02-11 11:26:00,
2013-02-11 04:27:00,7.4,2.8,30.45,NNE,15,1.0,1.0,81,0.00,,SKC,0.00,VWS V14.01,2013-02-11 11:27:00,
2013-02-11 04:28:00,7.3,2.7,30.45,NNE,13,1.0,2.0,81,0.00,,SKC,0.00,VWS V14.01,2013-02-11 11:28:00,
2013-02-11 04:29:00,7.3,2.7,30.45,NNE,13,1.0,2.0,81,0.00,,SKC,0.00,VWS V14.01,2013-02-11 11:29:00,
2013-02-11 04:30:00,7.2,2.6,30.45,NNE,15,2.0,5.0,81,0.00,,SKC,0.00,VWS V14.01,2013-02-11 11:30:00,
2013-02-11 04:31:00,7.1,2.5,30.45,NNE,15,2.0,5.0,81,0.00,,SKC,0.00,VWS V14.01,2013-02-11 11:31:00,
2013-02-11 04:32:00,7.1,2.5,30.45,NNE,17,2.0,4.0,81,0.00,,SKC,0.00,VWS V14.01,2013-02-11 11:32:00,
2013-02-11 04:33:00,7.0,2.4,30.46,NNE,17,0.0,2.0,81,0.00,,SKC,0.00,VWS V14.01,2013-02-11 11:33:00,
2013-02-11 04:34:00,7.0,2.4,30.46,NNE,17,0.0,2.0,81,0.00,,SKC,0.00,VWS V14.01,2013-02-11 11:34:00,
2013-02-11 04:35:00,6.9,2.3,30.46,NNE,17,1.0,2.0,81,0.00,,SKC,0.00,VWS V14.01,2013-02-11 11:35:00,
2013-02-11 04:36:00,6.9,2.3,30.46,NNE,17,0.0,1.0,81,0.00,,SKC,0.00,VWS V14.01,2013-02-11 11:36:00,
2013-02-11 04:37:00,6.8,2.5,30.45,NNE,17,0.0,0.0,82,0.00,,SKC,0.00,VWS V14.01,2013-02-11 11:37:00,
2013-02-11 04:38:00,6.8,2.5,30.45,NNE,15,0.0,0.0,82,0.00,,SKC,0.00,VWS V14.01,2013-02-11 11:38:00,
2013-02-11 04:39:00,6.9,2.6,30.45,NNE,15,0.0,0.0,82,0.00,,SKC,0.00,VWS V14.01,2013-02-11 11:39:00,
2013-02-11 04:40:00,6.9,2.6,30.45,NNE,17,0.0,0.0,82,0.00,,SKC,0.00,VWS V14.01,2013-02-11 11:40:00,
2013-02-11 04:41:00,6.9,2.6,30.45,NNE,15,0.0,0.0,82,0.00,,SKC,0.00,VWS V14.01,2013-02-11 11:41:00,
2013-02-11 04:42:00,6.9,2.8,30.45,NNE,17,0.0,0.0,83,0.00,,SKC,0.00,VWS V14.01,2013-02-11 11:42:00,
2013-02-11 04:43:00,7.0,2.9,30.45,NNE,13,0.0,0.0,83,0.00,,SKC,0.00,VWS V14.01,2013-02-11 11:43:00,
2013-02-11 04:44:00,7.0,2.9,30.46,NNE,16,0.0,1.0,83,0.00,,SKC,0.00,VWS V14.01,2013-02-11 11:44:00,
2013-02-11 04:45:00,7.0,2.9,30.46,NNE,16,0.0,1.0,83,0.00,,SKC,0.00,VWS V14.01,2013-02-11 11:45:00,
2013-02-11 04:46:00,7.0,2.7,30.46,NNE,17,0.0,0.0,82,0.00,,SKC,0.00,VWS V14.01,2013-02-11 11:46:00,
2013-02-11 04:47:00,6.9,2.6,30.46,NNE,15,0.0,0.0,82,0.00,,SKC,0.00,VWS V14.01,2013-02-11 11:47:00,
2013-02-11 04:48:00,6.8,2.2,30.46,NNE,14,0.0,0.0,81,0.00,,SKC,0.00,VWS V14.01,2013-02-11 11:48:00,
2013-02-11 04:49:00,6.8,2.2,30.46,NNE,15,0.0,1.0,81,0.00,,SKC,0.00,VWS V14.01,2013-02-11 11:49:00,
2013-02-11 04:50:00,6.6,2.0,30.46,NNE,15,0.0,0.0,81,0.00,,SKC,0.00,VWS V14.01,2013-02-11 11:50:00,
2013-02-11 04:51:00,6.6,2.0,30.46,NNE,13,0.0,0.0,81,0.00,,SKC,0.00,VWS V14.01,2013-02-11 11:51:00,
2013-02-11 04:52:00,6.5,1.9,30.46,NNE,15,0.0,0.0,81,0.00,,SKC,0.00,VWS V14.01,2013-02-11 11:52:00,
2013-02-11 04:53:00,6.4,1.8,30.46,North,11,0.0,0.0,81,0.00,,SKC,0.00,VWS V14.01,2013-02-11 11:53:00,
2013-02-11 04:54:00,6.4,1.8,30.46,NNE,15,0.0,1.0,81,0.00,,SKC,0.00,VWS V14.01,2013-02-11 11:54:00,
2013-02-11 04:55:00,6.3,1.7,30.46,NNE,12,0.0,1.0,81,0.00,,SKC,0.00,VWS V14.01,2013-02-11 11:55:00,
2013-02-11 04:56:00,6.3,1.7,30.46,NNE,12,0.0,0.0,81,0.00,,SKC,0.00,VWS V14.01,2013-02-11 11:56:00,
2013-02-11 04:57:00,6.3,1.7,30.47,NNE,15,0.0,0.0,81,0.00,,SKC,0.00,VWS V14.01,2013-02-11 11:57:00,
2013-02-11 04:58:00,6.2,1.6,30.46,NNE,15,0.0,0.0,81,0.00,,SKC,0.00,VWS V14.01,2013-02-11 11:58:00,
2013-02-11 04:59:00,6.2,1.6,30.46,NNE,17,0.0,0.0,81,0.00,,SKC,0.00,VWS V14.01,2013-02-11 11:59:00,
2013-02-11 05:00:00,6.1,1.5,30.47,NNE,16,0.0,0.0,81,0.00,,SKC,0.00,VWS V14.01,2013-02-11 12:00:00,
2013-02-11 05:01:00,6.1,1.5,30.47,NNE,13,0.0,0.0,81,0.00,,SKC,0.00,VWS V14.01,2013-02-11 12:01:00,
2013-02-11 05:02:00,6.1,1.5,30.46,NNE,13,1.0,1.0,81,0.00,,SKC,0.00,VWS V14.01,2013-02-11 12:02:00,
2013-02-11 05:03:00,6.1,1.5,30.47,NNE,16,0.0,1.0,81,0.00,,SKC,0.00,VWS V14.01,2013-02-11 12:03:00,
2013-02-11 05:04:00,6.0,1.4,30.47,NNE,17,0.0,0.0,81,0.00,,SKC,0.00,VWS V14.01,2013-02-11 12:04:00,
2013-02-11 05:05:00,6.0,1.4,30.47,NNE,16,0.0,0.0,81,0.00,,SKC,0.00,VWS V14.01,2013-02-11 12:05:00,
2013-02-11 05:06:00,6.0,1.4,30.46,North,11,0.0,0.0,81,0.00,,SKC,0.00,VWS V14.01,2013-02-11 12:06:00,
2013-02-11 05:07:00,6.0,1.4,30.47,NNE,15,0.0,0.0,81,0.00,,SKC,0.00,VWS V14.01,2013-02-11 12:07:00,
2013-02-11 05:08:00,6.0,1.4,30.47,NNE,18,0.0,0.0,81,0.00,,SKC,0.00,VWS V14.01,2013-02-11 12:08:00,
2013-02-11 05:09:00,6.0,1.4,30.47,NNE,14,0.0,0.0,81,0.00,,SKC,0.00,VWS V14.01,2013-02-11 12:09:00,
2013-02-11 05:10:00,6.0,1.4,30.47,NNE,17,0.0,0.0,81,0.00,,SKC,0.00,VWS V14.01,2013-02-11 12:10:00,
2013-02-11 05:11:00,6.0,1.4,30.47,NNE,18,0.0,0.0,81,0.00,,SKC,0.00,VWS V14.01,2013-02-11 12:11:00,
2013-02-11 05:12:00,6.0,1.4,30.47,NNE,18,0.0,0.0,81,0.00,,SKC,0.00,VWS V14.01,2013-02-11 12:12:00,
2013-02-11 05:13:00,5.9,1.3,30.47,NNE,13,0.0,0.0,81,0.00,,SKC,0.00,VWS V14.01,2013-02-11 12:13:00,
2013-02-11 05:14:00,5.9,1.3,30.47,NNE,12,0.0,0.0,81,0.00,,SKC,0.00,VWS V14.01,2013-02-11 12:14:00,
2013-02-11 05:15:00,6.0,1.4,30.47,NNE,12,0.0,0.0,81,0.00,,SKC,0.00,VWS V14.01,2013-02-11 12:15:00,
2013-02-11 05:16:00,6.0,1.4,30.47,NNE,12,0.0,0.0,81,0.00,,SKC,0.00,VWS V14.01,2013-02-11 12:16:00,
2013-02-11 05:17:00,5.9,1.3,30.47,NNE,17,0.0,0.0,81,0.00,,SKC,0.00,VWS V14.01,2013-02-11 12:17:00,
2013-02-11 05:18:00,5.9,1.3,30.47,NNE,15,0.0,0.0,81,0.00,,SKC,0.00,VWS V14.01,2013-02-11 12:18:00,
2013-02-11 05:19:00,5.9,1.3,30.47,NNE,17,0.0,0.0,81,0.00,,SKC,0.00,VWS V14.01,2013-02-11 12:19:00,
2013-02-11 05:20:00,5.8,1.2,30.47,NNE,14,0.0,0.0,81,0.00,,SKC,0.00,VWS V14.01,2013-02-11 12:20:00,
2013-02-11 05:21:00,5.8,1.2,30.47,NNE,14,0.0,0.0,81,0.00,,SKC,0.00,VWS V14.01,2013-02-11 12:21:00,
2013-02-11 05:22:00,5.8,1.2,30.47,NNE,13,0.0,0.0,81,0.00,,SKC,0.00,VWS V14.01,2013-02-11 12:22:00,
2013-02-11 05:23:00,5.7,1.1,30.47,NNE,15,0.0,0.0,81,0.00,,SKC,0.00,VWS V14.01,2013-02-11 12:23:00,
2013-02-11 05:24:00,5.7,1.1,30.47,NNE,15,2.0,2.0,81,0.00,,SKC,0.00,VWS V14.01,2013-02-11 12:24:00,
2013-02-11 05:25:00,5.6,1.0,30.47,NNE,17,2.0,3.0,81,0.00,,SKC,0.00,VWS V14.01,2013-02-11 12:25:00,
2013-02-11 05:26:00,5.6,1.0,30.47,NNE,16,0.0,2.0,81,0.00,,SKC,0.00,VWS V14.01,2013-02-11 12:26:00,
2013-02-11 05:27:00,5.5,0.9,30.47,NNE,17,0.0,0.0,81,0.00,,SKC,0.00,VWS V14.01,2013-02-11 12:27:00,
2013-02-11 05:28:00,5.4,0.6,30.47,NNE,16,0.0,0.0,80,0.00,,SKC,0.00,VWS V14.01,2013-02-11 12:28:00,
2013-02-11 05:29:00,5.3,0.5,30.47,NNE,16,0.0,0.0,80,0.00,,SKC,0.00,VWS V14.01,2013-02-11 12:29:00,
2013-02-11 05:30:00,5.3,0.5,30.47,NNE,17,0.0,0.0,80,0.00,,SKC,0.00,VWS V14.01,2013-02-11 12:30:00,
2013-02-11 05:31:00,5.2,0.4,30.47,NNE,17,0.0,0.0,80,0.00,,SKC,0.00,VWS V14.01,2013-02-11 12:31:00,
2013-02-11 05:32:00,5.2,0.4,30.47,NNE,17,0.0,0.0,80,0.00,,SKC,0.00,VWS V14.01,2013-02-11 12:32:00,
2013-02-11 05:33:00,5.1,0.3,30.47,NNE,14,0.0,0.0,80,0.00,,SKC,0.00,VWS V14.01,2013-02-11 12:33:00,
2013-02-11 05:34:00,5.1,0.6,30.47,NNE,12,0.0,0.0,81,0.00,,SKC,0.00,VWS V14.01,2013-02-11 12:34:00,
2013-02-11 05:35:00,5.1,0.6,30.47,NNE,19,0.0,0.0,81,0.00,,SKC,0.00,VWS V14.01,2013-02-11 12:35:00,
2013-02-11 05:36:00,5.1,0.6,30.47,NNE,19,0.0,0.0,81,0.00,,SKC,0.00,VWS V14.01,2013-02-11 12:36:00,
2013-02-11 05:37:00,5.1,0.6,30.47,NNE,13,0.0,0.0,81,0.00,,SKC,0.00,VWS V14.01,2013-02-11 12:37:00,
2013-02-11 05:38:00,5.0,0.5,30.47,NNE,15,0.0,0.0,81,0.00,,SKC,0.00,VWS V14.01,2013-02-11 12:38:00,
2013-02-11 05:39:00,5.0,3.0,30.47,NNE,15,0.0,0.0,91,0.00,,SKC,0.00,VWS V14.01,2013-02-11 12:39:00,
2013-02-11 05:40:00,5.0,3.0,30.47,NNE,21,0.0,0.0,91,0.00,,SKC,0.00,VWS V14.01,2013-02-11 12:40:00,
2013-02-11 05:41:00,5.0,0.5,30.47,NNE,16,0.0,0.0,81,0.00,,SKC,0.00,VWS V14.01,2013-02-11 12:41:00,
2013-02-11 05:42:00,4.9,0.4,30.47,NNE,16,0.0,0.0,81,0.00,,SKC,0.00,VWS V14.01,2013-02-11 12:42:00,
2013-02-11 05:43:00,4.9,0.4,30.47,NNE,16,0.0,0.0,81,0.00,,SKC,0.00,VWS V14.01,2013-02-11 12:43:00,
2013-02-11 05:44:00,4.9,0.4,30.47,North,11,0.0,0.0,81,0.00,,SKC,0.00,VWS V14.01,2013-02-11 12:44:00,
2013-02-11 05:45:00,4.9,0.4,30.47,NNE,16,0.0,0.0,81,0.00,,SKC,0.00,VWS V14.01,2013-02-11 12:45:00,
2013-02-11 05:46:00,4.9,0.4,30.47,NNE,15,0.0,0.0,81,0.00,,SKC,0.00,VWS V14.01,2013-02-11 12:46:00,
2013-02-11 05:47:00,4.8,0.3,30.47,NNE,14,0.0,0.0,81,0.00,,SKC,0.00,VWS V14.01,2013-02-11 12:47:00,
2013-02-11 05:48:00,4.8,0.3,30.47,NNE,17,0.0,0.0,81,0.00,,SKC,0.00,VWS V14.01,2013-02-11 12:48:00,
2013-02-11 05:49:00,4.8,0.3,30.47,NNE,14,0.0,0.0,81,0.00,,SKC,0.00,VWS V14.01,2013-02-11 12:49:00,
2013-02-11 05:50:00,4.8,0.3,30.47,NNE,15,0.0,0.0,81,0.00,,SKC,0.00,VWS V14.01,2013-02-11 12:50:00,
2013-02-11 05:51:00,4.8,0.3,30.46,NNE,13,0.0,0.0,81,0.00,,SKC,0.00,VWS V14.01,2013-02-11 12:51:00,
2013-02-11 05:52:00,4.8,0.3,30.47,NNE,15,0.0,0.0,81,0.00,,SKC,0.00,VWS V14.01,2013-02-11 12:52:00,
2013-02-11 05:53:00,4.7,0.2,30.47,NNE,17,0.0,0.0,81,0.00,,SKC,0.00,VWS V14.01,2013-02-11 12:53:00,
2013-02-11 05:54:00,4.8,0.3,30.47,NNE,16,0.0,0.0,81,0.00,,SKC,0.00,VWS V14.01,2013-02-11 12:54:00,
2013-02-11 05:55:00,4.7,0.2,30.47,NNE,16,0.0,0.0,81,0.00,,SKC,0.00,VWS V14.01,2013-02-11 12:55:00,
2013-02-11 05:56:00,4.7,0.4,30.47,North,9,0.0,0.0,82,0.00,,SKC,0.00,VWS V14.01,2013-02-11 12:56:00,
2013-02-11 05:57:00,4.7,0.4,30.47,North,10,0.0,0.0,82,0.00,,SKC,0.00,VWS V14.01,2013-02-11 12:57:00,
2013-02-11 05:58:00,4.7,0.4,30.47,North,10,0.0,0.0,82,0.00,,SKC,0.00,VWS V14.01,2013-02-11 12:58:00,
2013-02-11 05:59:00,4.8,0.5,30.47,NNE,19,0.0,0.0,82,0.00,,SKC,0.00,VWS V14.01,2013-02-11 12:59:00,
2013-02-11 06:00:00,4.8,0.5,30.47,NNE,16,0.0,0.0,82,0.00,,SKC,0.00,VWS V14.01,2013-02-11 13:00:00,
2013-02-11 06:01:00,4.8,0.5,30.47,NNE,16,0.0,0.0,82,0.00,,SKC,0.00,VWS V14.01,2013-02-11 13:01:00,
2013-02-11 06:02:00,4.8,0.5,30.47,NNE,17,0.0,0.0,82,0.00,,SKC,0.00,VWS V14.01,2013-02-11 13:02:00,
2013-02-11 06:03:00,4.8,0.5,30.47,NNE,19,0.0,0.0,82,0.00,,SKC,0.00,VWS V14.01,2013-02-11 13:03:00,
2013-02-11 06:04:00,4.8,0.5,30.47,North,10,0.0,0.0,82,0.00,,SKC,0.00,VWS V14.01,2013-02-11 13:04:00,
2013-02-11 06:05:00,4.8,0.5,30.47,NNE,15,0.0,0.0,82,0.00,,SKC,0.00,VWS V14.01,2013-02-11 13:05:00,
2013-02-11 06:06:00,4.8,0.5,30.47,NNE,15,0.0,0.0,82,0.00,,SKC,0.00,VWS V14.01,2013-02-11 13:06:00,
2013-02-11 06:07:00,4.8,0.5,30.47,NNE,16,0.0,0.0,82,0.00,,SKC,0.00,VWS V14.01,2013-02-11 13:07:00,
2013-02-11 06:08:00,4.8,0.5,30.47,NNE,13,0.0,0.0,82,0.00,,SKC,0.00,VWS V14.01,2013-02-11 13:08:00,
2013-02-11 06:09:00,4.8,0.3,30.47,NNE,16,0.0,0.0,81,0.00,,SKC,0.00,VWS V14.01,2013-02-11 13:09:00,
2013-02-11 06:10:00,4.7,0.4,30.47,NNE,14,0.0,0.0,82,0.00,,SKC,0.00,VWS V14.01,2013-02-11 13:10:00,
2013-02-11 06:11:00,4.7,0.4,30.47,NNE,16,0.0,0.0,82,0.00,,SKC,0.00,VWS V14.01,2013-02-11 13:11:00,
2013-02-11 06:12:00,4.7,0.2,30.47,NNE,12,0.0,0.0,81,0.00,,SKC,0.00,VWS V14.01,2013-02-11 13:12:00,
2013-02-11 06:13:00,4.7,0.4,30.47,NNE,15,1.0,2.0,82,0.00,,SKC,0.00,VWS V14.01,2013-02-11 13:13:00,
2013-02-11 06:14:00,4.8,0.5,30.47,NNE,17,0.0,1.0,82,0.00,,SKC,0.00,VWS V14.01,2013-02-11 13:14:00,
2013-02-11 06:15:00,4.7,0.4,30.47,NNE,18,0.0,0.0,82,0.00,,SKC,0.00,VWS V14.01,2013-02-11 13:15:00,
2013-02-11 06:16:00,4.8,0.5,30.47,NNE,12,0.0,0.0,82,0.00,,SKC,0.00,VWS V14.01,2013-02-11 13:16:00,
2013-02-11 06:17:00,4.8,0.5,30.47,NNE,13,0.0,0.0,82,0.00,,SKC,0.00,VWS V14.01,2013-02-11 13:17:00,
2013-02-11 06:18:00,4.8,0.5,30.47,NNE,15,0.0,0.0,82,0.00,,SKC,0.00,VWS V14.01,2013-02-11 13:18:00,
2013-02-11 06:19:00,4.9,0.6,30.47,NNE,17,0.0,0.0,82,0.00,,SKC,0.00,VWS V14.01,2013-02-11 13:19:00,
2013-02-11 06:20:00,4.9,0.6,30.47,NNE,17,0.0,0.0,82,0.00,,SKC,0.00,VWS V14.01,2013-02-11 13:20:00,
2013-02-11 06:21:00,5.0,1.0,30.47,NNE,15,0.0,0.0,83,0.00,,SKC,0.00,VWS V14.01,2013-02-11 13:21:00,
2013-02-11 06:22:00,5.0,1.0,30.48,NNE,15,0.0,0.0,83,0.00,,SKC,0.00,VWS V14.01,2013-02-11 13:22:00,
2013-02-11 06:23:00,5.0,0.7,30.48,NNE,16,0.0,0.0,82,0.00,,SKC,0.00,VWS V14.01,2013-02-11 13:23:00,
2013-02-11 06:24:00,5.0,0.7,30.48,NNE,13,0.0,1.0,82,0.00,,SKC,0.00,VWS V14.01,2013-02-11 13:24:00,
2013-02-11 06:25:00,5.0,0.7,30.48,NNE,13,0.0,1.0,82,0.00,,SKC,0.00,VWS V14.01,2013-02-11 13:25:00,
2013-02-11 06:26:00,5.1,0.8,30.47,NNE,15,0.0,0.0,82,0.00,,SKC,0.00,VWS V14.01,2013-02-11 13:26:00,
2013-02-11 06:27:00,5.1,0.8,30.47,NNE,17,1.0,1.0,82,0.00,,SKC,0.00,VWS V14.01,2013-02-11 13:27:00,
2013-02-11 06:28:00,5.2,0.9,30.48,NNE,18,0.0,1.0,82,0.00,,SKC,0.00,VWS V14.01,2013-02-11 13:28:00,
2013-02-11 06:29:00,5.2,0.9,30.48,NNE,15,0.0,0.0,82,0.00,,SKC,0.00,VWS V14.01,2013-02-11 13:29:00,
2013-02-11 06:30:00,5.3,1.0,30.48,NNE,18,0.0,0.0,82,0.00,,SKC,0.00,VWS V14.01,2013-02-11 13:30:00,
2013-02-11 06:31:00,5.4,1.1,30.48,NNE,13,0.0,0.0,82,0.00,,SKC,0.00,VWS V14.01,2013-02-11 13:31:00,
2013-02-11 06:32:00,5.5,1.5,30.48,NNE,13,0.0,0.0,83,0.00,,SKC,0.00,VWS V14.01,2013-02-11 13:32:00,
2013-02-11 06:33:00,5.5,1.5,30.48,NNE,12,0.0,0.0,83,0.00,,SKC,0.00,VWS V14.01,2013-02-11 13:33:00,
2013-02-11 06:34:00,5.6,1.6,30.48,NNE,16,0.0,0.0,83,0.00,,SKC,0.00,VWS V14.01,2013-02-11 13:34:00,
2013-02-11 06:35:00,5.6,1.6,30.48,NNE,18,0.0,0.0,83,0.00,,SKC,0.00,VWS V14.01,2013-02-11 13:35:00,
2013-02-11 06:36:00,5.6,1.6,30.48,NNE,18,0.0,0.0,83,0.00,,SKC,0.00,VWS V14.01,2013-02-11 13:36:00,
2013-02-11 06:37:00,5.7,1.7,30.48,NNE,13,0.0,0.0,83,0.00,,SKC,0.00,VWS V14.01,2013-02-11 13:37:00,
2013-02-11 06:38:00,5.7,1.7,30.48,NNE,14,0.0,0.0,83,0.00,,SKC,0.00,VWS V14.01,2013-02-11 13:38:00,
2013-02-11 06:39:00,5.8,4.0,30.48,NNE,16,0.0,0.0,92,0.00,,SKC,0.00,VWS V14.01,2013-02-11 13:39:00,
2013-02-11 06:40:00,5.8,1.5,30.48,NNE,13,0.0,0.0,82,0.00,,SKC,0.00,VWS V14.01,2013-02-11 13:40:00,
2013-02-11 06:41:00,5.8,1.5,30.48,NNE,18,0.0,0.0,82,0.00,,SKC,0.00,VWS V14.01,2013-02-11 13:41:00,
2013-02-11 06:42:00,5.8,1.5,30.48,NNE,18,0.0,0.0,82,0.00,,SKC,0.00,VWS V14.01,2013-02-11 13:42:00,
2013-02-11 06:43:00,5.8,1.5,30.48,NNE,17,0.0,0.0,82,0.00,,SKC,0.00,VWS V14.01,2013-02-11 13:43:00,
2013-02-11 06:44:00,5.8,1.5,30.49,NNE,15,0.0,0.0,82,0.00,,SKC,0.00,VWS V14.01,2013-02-11 13:44:00,
2013-02-11 06:45:00,5.8,1.5,30.48,NNE,16,0.0,0.0,82,0.00,,SKC,0.00,VWS V14.01,2013-02-11 13:45:00,
2013-02-11 06:46:00,5.8,1.5,30.48,NNE,16,0.0,0.0,82,0.00,,SKC,0.00,VWS V14.01,2013-02-11 13:46:00,
2013-02-11 06:47:00,5.8,1.5,30.48,North,11,0.0,0.0,82,0.00,,SKC,0.00,VWS V14.01,2013-02-11 13:47:00,
2013-02-11 06:48:00,5.8,1.5,30.48,North,11,0.0,0.0,82,0.00,,SKC,0.00,VWS V14.01,2013-02-11 13:48:00,
2013-02-11 06:49:00,5.9,1.6,30.49,NNE,15,0.0,0.0,82,0.00,,SKC,0.00,VWS V14.01,2013-02-11 13:49:00,
2013-02-11 06:50:00,5.9,1.6,30.48,NNE,14,0.0,0.0,82,0.00,,SKC,0.00,VWS V14.01,2013-02-11 13:50:00,
2013-02-11 06:51:00,5.9,1.9,30.48,NNE,17,0.0,0.0,83,0.00,,SKC,0.00,VWS V14.01,2013-02-11 13:51:00,
2013-02-11 06:52:00,6.0,2.0,30.49,NNE,17,0.0,0.0,83,0.00,,SKC,0.00,VWS V14.01,2013-02-11 13:52:00,
2013-02-11 06:53:00,6.0,2.0,30.49,NNE,16,0.0,0.0,83,0.00,,SKC,0.00,VWS V14.01,2013-02-11 13:53:00,
2013-02-11 06:54:00,6.1,2.1,30.49,NNE,17,0.0,0.0,83,0.00,,SKC,0.00,VWS V14.01,2013-02-11 13:54:00,
2013-02-11 06:55:00,6.1,2.1,30.48,NNE,14,0.0,0.0,83,0.00,,SKC,0.00,VWS V14.01,2013-02-11 13:55:00,
2013-02-11 06:56:00,6.1,2.1,30.48,NNE,13,0.0,0.0,83,0.00,,SKC,0.00,VWS V14.01,2013-02-11 13:56:00,
2013-02-11 06:57:00,6.2,2.2,30.48,NNE,15,0.0,0.0,83,0.00,,SKC,0.00,VWS V14.01,2013-02-11 13:57:00,
2013-02-11 06:58:00,6.2,2.2,30.48,NNE,16,0.0,0.0,83,0.00,,SKC,0.00,VWS V14.01,2013-02-11 13:58:00,
2013-02-11 06:59:00,6.2,2.2,30.48,NNE,16,0.0,0.0,83,0.00,,SKC,0.00,VWS V14.01,2013-02-11 13:59:00,
2013-02-11 07:00:00,6.3,2.2,30.48,NNE,13,0.0,0.0,83,0.00,,SKC,0.00,VWS V14.01,2013-02-11 14:00:00,
2013-02-11 07:01:00,6.3,2.2,30.48,NNE,14,0.0,0.0,83,0.00,,SKC,0.00,VWS V14.01,2013-02-11 14:01:00,
2013-02-11 07:02:00,6.3,2.2,30.49,NNE,12,0.0,0.0,83,0.00,,SKC,0.00,VWS V14.01,2013-02-11 14:02:00,
2013-02-11 07:03:00,6.4,2.3,30.49,NNE,16,0.0,0.0,83,0.00,,SKC,0.00,VWS V14.01,2013-02-11 14:03:00,
2013-02-11 07:04:00,6.4,2.3,30.49,NNE,15,0.0,0.0,83,0.00,,SKC,0.00,VWS V14.01,2013-02-11 14:04:00,
2013-02-11 07:05:00,6.4,2.3,30.49,NNE,15,0.0,0.0,83,0.00,,SKC,0.00,VWS V14.01,2013-02-11 14:05:00,
2013-02-11 07:06:00,6.4,2.3,30.49,NNE,13,0.0,0.0,83,0.00,,SKC,0.00,VWS V14.01,2013-02-11 14:06:00,
2013-02-11 07:07:00,6.4,2.1,30.49,NNE,16,0.0,1.0,82,0.00,,SKC,0.00,VWS V14.01,2013-02-11 14:07:00,
2013-02-11 07:08:00,6.4,2.1,30.49,NNE,16,0.0,0.0,82,0.00,,SKC,0.00,VWS V14.01,2013-02-11 14:08:00,
2013-02-11 07:09:00,6.4,2.1,30.49,NNE,16,0.0,0.0,82,0.00,,SKC,0.00,VWS V14.01,2013-02-11 14:09:00,
2013-02-11 07:10:00,6.4,2.1,30.49,NNE,13,0.0,0.0,82,0.00,,SKC,0.00,VWS V14.01,2013-02-11 14:10:00,
2013-02-11 07:11:00,6.4,2.1,30.49,NNE,14,0.0,0.0,82,0.00,,SKC,0.00,VWS V14.01,2013-02-11 14:11:00,
2013-02-11 07:12:00,6.3,2.0,30.49,NNE,22,0.0,1.0,82,0.00,,SKC,0.00,VWS V14.01,2013-02-11 14:12:00,
2013-02-11 07:13:00,6.3,2.0,30.49,North,11,0.0,0.0,82,0.00,,SKC,0.00,VWS V14.01,2013-02-11 14:13:00,
2013-02-11 07:14:00,6.3,2.0,30.49,North,11,0.0,0.0,82,0.00,,SKC,0.00,VWS V14.01,2013-02-11 14:14:00,
2013-02-11 07:15:00,6.3,2.0,30.49,NNE,15,0.0,0.0,82,0.00,,SKC,0.00,VWS V14.01,2013-02-11 14:15:00,
2013-02-11 07:16:00,6.3,2.0,30.49,NNE,14,0.0,0.0,82,0.00,,SKC,0.00,VWS V14.01,2013-02-11 14:16:00,
2013-02-11 07:17:00,6.3,2.0,30.49,NNE,13,0.0,0.0,82,0.00,,SKC,0.00,VWS V14.01,2013-02-11 14:17:00,
2013-02-11 07:18:00,6.3,2.0,30.49,NNE,16,0.0,0.0,82,0.00,,SKC,0.00,VWS V14.01,2013-02-11 14:18:00,
2013-02-11 07:19:00,6.3,2.0,30.49,NNE,17,0.0,0.0,82,0.00,,SKC,0.00,VWS V14.01,2013-02-11 14:19:00,
2013-02-11 07:20:00,6.3,2.0,30.49,NNE,17,0.0,0.0,82,0.00,,SKC,0.00,VWS V14.01,2013-02-11 14:20:00,
2013-02-11 07:21:00,6.3,2.0,30.49,NNE,17,0.0,0.0,82,0.00,,SKC,0.00,VWS V14.01,2013-02-11 14:21:00,
2013-02-11 07:22:00,6.3,2.0,30.49,NNE,15,0.0,0.0,82,0.00,,SKC,0.00,VWS V14.01,2013-02-11 14:22:00,
2013-02-11 07:23:00,6.3,2.0,30.49,NNE,13,0.0,0.0,82,0.00,,SKC,0.00,VWS V14.01,2013-02-11 14:23:00,
2013-02-11 07:24:00,6.3,2.0,30.49,NNE,15,0.0,0.0,82,0.00,,SKC,0.00,VWS V14.01,2013-02-11 14:24:00,
2013-02-11 07:25:00,6.2,1.9,30.49,NNE,15,0.0,0.0,82,0.00,,SKC,0.00,VWS V14.01,2013-02-11 14:25:00,
2013-02-11 07:26:00,6.2,1.9,30.49,NNE,13,0.0,0.0,82,0.00,,SKC,0.00,VWS V14.01,2013-02-11 14:26:00,
2013-02-11 07:27:00,6.2,1.9,30.49,NNE,15,0.0,0.0,82,0.00,,SKC,0.00,VWS V14.01,2013-02-11 14:27:00,
2013-02-11 07:28:00,6.2,1.6,30.49,North,11,0.0,0.0,81,0.00,,SKC,0.00,VWS V14.01,2013-02-11 14:28:00,
2013-02-11 07:29:00,6.2,1.6,30.49,North,11,0.0,0.0,81,0.00,,SKC,0.00,VWS V14.01,2013-02-11 14:29:00,
2013-02-11 07:30:00,6.2,1.6,30.49,NNE,17,0.0,0.0,81,0.00,,SKC,0.00,VWS V14.01,2013-02-11 14:30:00,
2013-02-11 07:31:00,6.1,1.5,30.49,NNE,13,0.0,0.0,81,0.00,,SKC,0.00,VWS V14.01,2013-02-11 14:31:00,
2013-02-11 07:32:00,6.1,1.5,30.49,NNE,12,0.0,0.0,81,0.00,,SKC,0.00,VWS V14.01,2013-02-11 14:32:00,
2013-02-11 07:33:00,6.1,1.5,30.49,NNE,17,0.0,0.0,81,0.00,,SKC,0.00,VWS V14.01,2013-02-11 14:33:00,
2013-02-11 07:34:00,6.1,1.5,30.49,NNE,14,0.0,0.0,81,0.00,,SKC,0.00,VWS V14.01,2013-02-11 14:34:00,
2013-02-11 07:35:00,6.1,1.5,30.49,NNE,15,0.0,0.0,81,0.00,,SKC,0.00,VWS V14.01,2013-02-11 14:35:00,
2013-02-11 07:36:00,6.1,1.5,30.49,NNE,17,0.0,0.0,81,0.00,,SKC,0.00,VWS V14.01,2013-02-11 14:36:00,
2013-02-11 07:37:00,6.1,1.5,30.49,NNE,14,0.0,0.0,81,0.00,,SKC,0.00,VWS V14.01,2013-02-11 14:37:00,
2013-02-11 07:38:00,6.0,1.4,30.49,North,9,0.0,0.0,81,0.00,,SKC,0.00,VWS V14.01,2013-02-11 14:38:00,
2013-02-11 07:39:00,6.1,1.5,30.49,NNE,17,0.0,0.0,81,0.00,,SKC,0.00,VWS V14.01,2013-02-11 14:39:00,
2013-02-11 07:40:00,6.0,1.4,30.49,NNE,17,0.0,0.0,81,0.00,,SKC,0.00,VWS V14.01,2013-02-11 14:40:00,
2013-02-11 07:41:00,6.1,1.5,30.49,NNE,14,0.0,0.0,81,0.00,,SKC,0.00,VWS V14.01,2013-02-11 14:41:00,
2013-02-11 07:42:00,6.1,1.5,30.49,NNE,15,0.0,0.0,81,0.00,,SKC,0.00,VWS V14.01,2013-02-11 14:42:00,
2013-02-11 07:43:00,6.1,1.5,30.49,NNE,15,0.0,0.0,81,0.00,,SKC,0.00,VWS V14.01,2013-02-11 14:43:00,
2013-02-11 07:44:00,6.1,1.5,30.49,NNE,14,0.0,0.0,81,0.00,,SKC,0.00,VWS V14.01,2013-02-11 14:44:00,
2013-02-11 07:45:00,6.1,1.8,30.49,NNE,14,0.0,0.0,82,0.00,,SKC,0.00,VWS V14.01,2013-02-11 14:45:00,
2013-02-11 07:46:00,6.2,1.9,30.49,NNE,17,0.0,0.0,82,0.00,,SKC,0.00,VWS V14.01,2013-02-11 14:46:00,
2013-02-11 07:47:00,6.2,1.9,30.49,NNE,22,0.0,0.0,82,0.00,,SKC,0.00,VWS V14.01,2013-02-11 14:47:00,
2013-02-11 07:48:00,6.2,1.9,30.49,NNE,13,0.0,0.0,82,0.00,,SKC,0.00,VWS V14.01,2013-02-11 14:48:00,
2013-02-11 07:49:00,6.2,1.9,30.49,NNE,17,0.0,0.0,82,0.00,,SKC,0.00,VWS V14.01,2013-02-11 14:49:00,
2013-02-11 07:50:00,6.3,2.0,30.49,NNE,15,0.0,0.0,82,0.00,,SKC,0.00,VWS V14.01,2013-02-11 14:50:00,
2013-02-11 07:51:00,6.3,2.0,30.49,NNE,16,0.0,0.0,82,0.00,,SKC,0.00,VWS V14.01,2013-02-11 14:51:00,
2013-02-11 07:52:00,6.4,2.1,30.49,NNE,15,0.0,0.0,82,0.00,,SKC,0.00,VWS V14.01,2013-02-11 14:52:00,
2013-02-11 07:53:00,6.4,2.1,30.49,NNE,17,1.0,2.0,82,0.00,,SKC,0.00,VWS V14.01,2013-02-11 14:53:00,
2013-02-11 07:54:00,6.4,2.1,30.49,NNE,13,1.0,2.0,82,0.00,,SKC,0.00,VWS V14.01,2013-02-11 14:54:00,
2013-02-11 07:55:00,6.5,2.2,30.49,NNE,18,0.0,1.0,82,0.00,,SKC,0.00,VWS V14.01,2013-02-11 14:55:00,
2013-02-11 07:56:00,6.5,2.2,30.49,NNE,15,0.0,0.0,82,0.00,,SKC,0.00,VWS V14.01,2013-02-11 14:56:00,
2013-02-11 07:57:00,6.6,2.3,30.49,NNE,17,0.0,0.0,82,0.00,,SKC,0.00,VWS V14.01,2013-02-11 14:57:00,
2013-02-11 07:58:00,6.6,2.3,30.49,NNE,17,0.0,0.0,82,0.00,,SKC,0.00,VWS V14.01,2013-02-11 14:58:00,
2013-02-11 07:59:00,6.7,2.6,30.49,NNE,15,0.0,0.0,83,0.00,,SKC,0.00,VWS V14.01,2013-02-11 14:59:00,
2013-02-11 08:00:00,6.8,2.7,30.49,NNE,13,0.0,0.0,83,0.00,,SKC,0.00,VWS V14.01,2013-02-11 15:00:00,
2013-02-11 08:01:00,6.9,2.8,30.49,NNE,14,0.0,0.0,83,0.00,,SKC,0.00,VWS V14.01,2013-02-11 15:01:00,
2013-02-11 08:02:00,6.9,2.8,30.49,NNE,14,0.0,0.0,83,0.00,,SKC,0.00,VWS V14.01,2013-02-11 15:02:00,
2013-02-11 08:03:00,7.1,3.3,30.49,NNE,12,0.0,0.0,84,0.00,,SKC,0.00,VWS V14.01,2013-02-11 15:03:00,
2013-02-11 08:04:00,7.2,3.4,30.49,NNE,15,0.0,0.0,84,0.00,,SKC,0.00,VWS V14.01,2013-02-11 15:04:00,
2013-02-11 08:05:00,7.3,3.2,30.49,NNE,22,0.0,0.0,83,0.00,,SKC,0.00,VWS V14.01,2013-02-11 15:05:00,
2013-02-11 08:06:00,7.4,3.6,30.50,NNE,13,0.0,0.0,84,0.00,,SKC,0.00,VWS V14.01,2013-02-11 15:06:00,
2013-02-11 08:07:00,7.5,3.4,30.50,NNE,14,0.0,0.0,83,0.00,,SKC,0.00,VWS V14.01,2013-02-11 15:07:00,
2013-02-11 08:08:00,7.5,3.4,30.50,NNE,14,0.0,0.0,83,0.00,,SKC,0.00,VWS V14.01,2013-02-11 15:08:00,
2013-02-11 08:09:00,7.7,3.6,30.50,NNE,13,0.0,0.0,83,0.00,,SKC,0.00,VWS V14.01,2013-02-11 15:09:00,
2013-02-11 08:10:00,7.8,3.7,30.50,NNE,15,0.0,0.0,83,0.00,,SKC,0.00,VWS V14.01,2013-02-11 15:10:00,
2013-02-11 08:11:00,7.9,3.8,30.50,NNE,17,0.0,0.0,83,0.00,,SKC,0.00,VWS V14.01,2013-02-11 15:11:00,
2013-02-11 08:12:00,8.0,3.9,30.50,NNE,12,0.0,0.0,83,0.00,,SKC,0.00,VWS V14.01,2013-02-11 15:12:00,
2013-02-11 08:13:00,8.1,4.0,30.50,NNE,16,0.0,0.0,83,0.00,,SKC,0.00,VWS V14.01,2013-02-11 15:13:00,
2013-02-11 08:14:00,8.2,4.1,30.50,NNE,20,0.0,0.0,83,0.00,,SKC,0.00,VWS V14.01,2013-02-11 15:14:00,
2013-02-11 08:15:00,8.3,4.2,30.50,NNE,14,0.0,0.0,83,0.00,,SKC,0.00,VWS V14.01,2013-02-11 15:15:00,
2013-02-11 08:16:00,8.4,4.3,30.50,NNE,17,0.0,0.0,83,0.00,,SKC,0.00,VWS V14.01,2013-02-11 15:16:00,
2013-02-11 08:17:00,8.5,4.4,30.50,NNE,14,0.0,0.0,83,0.00,,SKC,0.00,VWS V14.01,2013-02-11 15:17:00,
2013-02-11 08:18:00,8.6,4.5,30.50,NNE,17,0.0,0.0,83,0.00,,SKC,0.00,VWS V14.01,2013-02-11 15:18:00,
2013-02-11 08:19:00,8.6,4.5,30.50,NNE,17,0.0,0.0,83,0.00,,SKC,0.00,VWS V14.01,2013-02-11 15:19:00,
2013-02-11 08:20:00,8.9,4.8,30.50,NNE,19,0.0,0.0,83,0.00,,SKC,0.00,VWS V14.01,2013-02-11 15:20:00,
2013-02-11 08:21:00,8.9,4.8,30.50,North,5,0.0,0.0,83,0.00,,SKC,0.00,VWS V14.01,2013-02-11 15:21:00,
2013-02-11 08:22:00,9.1,5.0,30.50,NNE,14,0.0,0.0,83,0.00,,SKC,0.00,VWS V14.01,2013-02-11 15:22:00,
2013-02-11 08:23:00,9.2,5.1,30.50,NNE,21,0.0,1.0,83,0.00,,SKC,0.00,VWS V14.01,2013-02-11 15:23:00,
2013-02-11 08:24:00,9.3,5.2,30.50,NNE,17,0.0,0.0,83,0.00,,SKC,0.00,VWS V14.01,2013-02-11 15:24:00,
2013-02-11 08:25:00,9.5,7.7,30.50,NNE,17,0.0,0.0,92,0.00,,SKC,0.00,VWS V14.01,2013-02-11 15:25:00,
2013-02-11 08:26:00,9.6,5.2,30.50,NNE,16,0.0,0.0,82,0.00,,SKC,0.00,VWS V14.01,2013-02-11 15:26:00,
2013-02-11 08:27:00,9.8,5.7,30.50,NNE,15,0.0,0.0,83,0.00,,SKC,0.00,VWS V14.01,2013-02-11 15:27:00,
2013-02-11 08:28:00,9.9,5.8,30.50,NNE,18,0.0,0.0,83,0.00,,SKC,0.00,VWS V14.01,2013-02-11 15:28:00,
2013-02-11 08:29:00,10.0,5.9,30.50,NNE,15,0.0,0.0,83,0.00,,SKC,0.00,VWS V14.01,2013-02-11 15:29:00,
2013-02-11 08:30:00,10.1,5.7,30.50,NNE,15,0.0,0.0,82,0.00,,SKC,0.00,VWS V14.01,2013-02-11 15:30:00,
2013-02-11 08:31:00,10.3,5.9,30.50,NNE,17,0.0,0.0,82,0.00,,SKC,0.00,VWS V14.01,2013-02-11 15:31:00,
2013-02-11 08:32:00,10.4,6.0,30.50,NNE,18,0.0,0.0,82,0.00,,SKC,0.00,VWS V14.01,2013-02-11 15:32:00,
2013-02-11 08:33:00,10.6,5.9,30.50,NNE,17,0.0,0.0,81,0.00,,SKC,0.00,VWS V14.01,2013-02-11 15:33:00,
2013-02-11 08:34:00,10.7,6.0,30.50,NNE,16,0.0,1.0,81,0.00,,SKC,0.00,VWS V14.01,2013-02-11 15:34:00,
2013-02-11 08:35:00,10.8,6.4,30.50,NNE,13,0.0,1.0,82,0.00,,SKC,0.00,VWS V14.01,2013-02-11 15:35:00,
2013-02-11 08:36:00,10.9,6.5,30.50,North,11,0.0,0.0,82,0.00,,SKC,0.00,VWS V14.01,2013-02-11 15:36:00,
2013-02-11 08:37:00,11.0,6.6,30.50,NNE,13,0.0,1.0,82,0.00,,SKC,0.00,VWS V14.01,2013-02-11 15:37:00,
2013-02-11 08:38:00,11.2,6.8,30.50,NNE,18,0.0,0.0,82,0.00,,SKC,0.00,VWS V14.01,2013-02-11 15:38:00,
2013-02-11 08:39:00,11.4,7.0,30.50,NNE,18,0.0,0.0,82,0.00,,SKC,0.00,VWS V14.01,2013-02-11 15:39:00,
2013-02-11 08:40:00,11.5,7.1,30.50,NNE,19,0.0,0.0,82,0.00,,SKC,0.00,VWS V14.01,2013-02-11 15:40:00,
2013-02-11 08:41:00,11.7,7.0,30.50,NNE,17,0.0,0.0,81,0.00,,SKC,0.00,VWS V14.01,2013-02-11 15:41:00,
2013-02-11 08:42:00,11.8,6.8,30.50,NNE,15,1.0,1.0,80,0.00,,SKC,0.00,VWS V14.01,2013-02-11 15:42:00,
2013-02-11 08:43:00,11.9,6.9,30.50,NNE,13,0.0,1.0,80,0.00,,SKC,0.00,VWS V14.01,2013-02-11 15:43:00,
2013-02-11 08:44:00,12.1,7.1,30.50,NNE,17,0.0,0.0,80,0.00,,SKC,0.00,VWS V14.01,2013-02-11 15:44:00,
2013-02-11 08:45:00,12.1,6.8,30.50,NNE,14,0.0,1.0,79,0.00,,SKC,0.00,VWS V14.01,2013-02-11 15:45:00,
2013-02-11 08:46:00,12.2,6.9,30.50,NNE,15,0.0,0.0,79,0.00,,SKC,0.00,VWS V14.01,2013-02-11 15:46:00,
2013-02-11 08:47:00,12.3,7.0,30.50,NNE,13,0.0,0.0,79,0.00,,SKC,0.00,VWS V14.01,2013-02-11 15:47:00,
2013-02-11 08:48:00,12.3,7.0,30.50,NNE,12,0.0,1.0,79,0.00,,SKC,0.00,VWS V14.01,2013-02-11 15:48:00,
2013-02-11 08:49:00,12.5,7.2,30.50,NNE,15,0.0,0.0,79,0.00,,SKC,0.00,VWS V14.01,2013-02-11 15:49:00,
2013-02-11 08:50:00,12.6,7.3,30.50,NNE,17,0.0,0.0,79,0.00,,SKC,0.00,VWS V14.01,2013-02-11 15:50:00,
2013-02-11 08:51:00,12.7,7.4,30.50,NNE,12,0.0,0.0,79,0.00,,SKC,0.00,VWS V14.01,2013-02-11 15:51:00,
2013-02-11 08:52:00,12.8,7.8,30.50,NNE,13,0.0,0.0,80,0.00,,SKC,0.00,VWS V14.01,2013-02-11 15:52:00,
2013-02-11 08:53:00,13.0,8.0,30.50,North,10,0.0,1.0,80,0.00,,SKC,0.00,VWS V14.01,2013-02-11 15:53:00,
2013-02-11 08:54:00,13.1,8.1,30.50,NNE,15,0.0,1.0,80,0.00,,SKC,0.00,VWS V14.01,2013-02-11 15:54:00,
2013-02-11 08:55:00,13.3,8.3,30.50,NNE,15,0.0,0.0,80,0.00,,SKC,0.00,VWS V14.01,2013-02-11 15:55:00,
2013-02-11 08:56:00,13.4,8.4,30.50,NNE,14,0.0,1.0,80,0.00,,SKC,0.00,VWS V14.01,2013-02-11 15:56:00,
2013-02-11 08:57:00,13.6,8.6,30.50,NNE,18,0.0,1.0,80,0.00,,SKC,0.00,VWS V14.01,2013-02-11 15:57:00,
2013-02-11 08:58:00,13.7,8.7,30.50,North,11,0.0,1.0,80,0.00,,SKC,0.00,VWS V14.01,2013-02-11 15:58:00,
2013-02-11 08:59:00,13.9,9.2,30.50,NNE,12,0.0,0.0,81,0.00,,SKC,0.00,VWS V14.01,2013-02-11 15:59:00,
2013-02-11 09:00:00,14.1,9.1,30.50,NNE,16,0.0,1.0,80,0.00,,SKC,0.00,VWS V14.01,2013-02-11 16:00:00,
2013-02-11 09:01:00,14.3,9.3,30.50,NNE,17,0.0,0.0,80,0.00,,SKC,0.00,VWS V14.01,2013-02-11 16:01:00,
2013-02-11 09:02:00,14.4,9.6,30.50,NNE,22,2.0,2.0,81,0.00,,SKC,0.00,VWS V14.01,2013-02-11 16:02:00,
2013-02-11 09:03:00,14.7,9.9,30.50,ENE,66,2.0,4.0,81,0.00,,SKC,0.00,VWS V14.01,2013-02-11 16:03:00,
2013-02-11 09:04:00,14.9,10.1,30.50,ESE,102,3.0,5.0,81,0.00,,SKC,0.00,VWS V14.01,2013-02-11 16:04:00,
2013-02-11 09:05:00,15.2,10.4,30.50,East,101,0.0,3.0,81,0.00,,SKC,0.00,VWS V14.01,2013-02-11 16:05:00,
2013-02-11 09:06:00,15.4,10.1,30.50,East,99,3.0,3.0,79,0.00,,SKC,0.00,VWS V14.01,2013-02-11 16:06:00,
2013-02-11 09:07:00,15.5,9.9,30.50,East,98,2.0,3.0,78,0.00,,SKC,0.00,VWS V14.01,2013-02-11 16:07:00,
2013-02-11 09:08:00,15.7,10.1,30.50,East,94,1.0,2.0,78,0.00,,SKC,0.00,VWS V14.01,2013-02-11 16:08:00,
2013-02-11 09:09:00,15.7,10.1,30.50,East,94,1.0,2.0,78,0.00,,SKC,0.00,VWS V14.01,2013-02-11 16:09:00,
2013-02-11 09:10:00,15.7,9.5,30.50,East,100,0.0,1.0,76,0.00,,SKC,0.00,VWS V14.01,2013-02-11 16:10:00,
2013-02-11 09:11:00,15.7,9.5,30.50,East,94,3.0,3.0,76,0.00,,SKC,0.00,VWS V14.01,2013-02-11 16:11:00,
2013-02-11 09:12:00,15.8,9.9,30.50,East,98,3.0,4.0,77,0.00,,SKC,0.00,VWS V14.01,2013-02-11 16:12:00,
2013-02-11 09:13:00,15.9,10.0,30.50,East,98,2.0,5.0,77,0.00,,SKC,0.00,VWS V14.01,2013-02-11 16:13:00,
2013-02-11 09:14:00,15.9,10.0,30.50,East,98,2.0,5.0,77,0.00,,SKC,0.00,VWS V14.01,2013-02-11 16:14:00,
2013-02-11 09:15:00,16.2,10.3,30.50,ESE,105,4.0,5.0,77,0.00,,SKC,0.00,VWS V14.01,2013-02-11 16:15:00,
2013-02-11 09:16:00,16.3,10.4,30.50,North,360,4.0,6.0,77,0.00,,SKC,0.00,VWS V14.01,2013-02-11 16:16:00,
2013-02-11 09:17:00,16.4,10.5,30.50,ESE,104,2.0,4.0,77,0.00,,SKC,0.00,VWS V14.01,2013-02-11 16:17:00,
2013-02-11 09:18:00,16.6,11.2,30.50,ESE,107,4.0,5.0,79,0.00,,SKC,0.00,VWS V14.01,2013-02-11 16:18:00,
2013-02-11 09:19:00,16.7,11.1,30.50,ESE,107,3.0,4.0,78,0.00,,SKC,0.00,VWS V14.01,2013-02-11 16:19:00,
2013-02-11 09:20:00,16.8,11.4,30.50,ESE,104,1.0,3.0,79,0.00,,SKC,0.00,VWS V14.01,2013-02-11 16:20:00,
2013-02-11 09:21:00,17.0,11.6,30.50,ESE,109,1.0,2.0,79,0.00,,SKC,0.00,VWS V14.01,2013-02-11 16:21:00,
2013-02-11 09:22:00,17.1,11.7,30.50,ESE,110,2.0,4.0,79,0.00,,SKC,0.00,VWS V14.01,2013-02-11 16:22:00,
2013-02-11 09:23:00,17.2,11.8,30.50,ESE,109,0.0,2.0,79,0.00,,SKC,0.00,VWS V14.01,2013-02-11 16:23:00,
2013-02-11 09:24:00,17.3,11.9,30.50,ESE,111,2.0,3.0,79,0.00,,SKC,0.00,VWS V14.01,2013-02-11 16:24:00,
2013-02-11 09:25:00,17.3,11.9,30.50,ESE,111,2.0,3.0,79,0.00,,SKC,0.00,VWS V14.01,2013-02-11 16:25:00,
2013-02-11 09:26:00,17.7,12.6,30.49,ESE,109,2.0,3.0,80,0.00,,SKC,0.00,VWS V14.01,2013-02-11 16:26:00,
2013-02-11 09:27:00,17.8,12.7,30.49,ESE,109,3.0,3.0,80,0.00,,SKC,0.00,VWS V14.01,2013-02-11 16:27:00,
2013-02-11 09:28:00,18.0,12.6,30.49,ESE,111,2.0,4.0,79,0.00,,SKC,0.00,VWS V14.01,2013-02-11 16:28:00,
2013-02-11 09:29:00,18.1,12.7,30.49,ESE,108,3.0,4.0,79,0.00,,SKC,0.00,VWS V14.01,2013-02-11 16:29:00,
2013-02-11 09:30:00,18.2,12.8,30.49,ESE,108,3.0,4.0,79,0.00,,SKC,0.00,VWS V14.01,2013-02-11 16:30:00,
2013-02-11 09:31:00,18.3,12.9,30.49,ESE,107,3.0,4.0,79,0.00,,SKC,0.00,VWS V14.01,2013-02-11 16:31:00,
2013-02-11 09:32:00,18.5,13.1,30.49,ESE,113,4.0,4.0,79,0.00,,SKC,0.00,VWS V14.01,2013-02-11 16:32:00,
2013-02-11 09:33:00,18.6,13.2,30.49,ESE,113,2.0,5.0,79,0.00,,SKC,0.00,VWS V14.01,2013-02-11 16:33:00,
2013-02-11 09:34:00,18.7,13.3,30.49,ESE,104,3.0,3.0,79,0.00,,SKC,0.00,VWS V14.01,2013-02-11 16:34:00,
2013-02-11 09:35:00,18.9,13.5,30.49,ESE,111,4.0,4.0,79,0.00,,SKC,0.00,VWS V14.01,2013-02-11 16:35:00,
2013-02-11 09:36:00,18.9,13.2,30.49,East,101,4.0,4.0,78,0.00,,SKC,0.00,VWS V14.01,2013-02-11 16:36:00,
2013-02-11 09:37:00,19.0,13.3,30.49,ESE,108,3.0,4.0,78,0.00,,SKC,0.00,VWS V14.01,2013-02-11 16:37:00,
2013-02-11 09:38:00,19.1,13.1,30.49,North,360,2.0,4.0,77,0.00,,SKC,0.00,VWS V14.01,2013-02-11 16:38:00,
2013-02-11 09:39:00,19.2,13.2,30.49,ESE,110,3.0,3.0,77,0.00,,SKC,0.00,VWS V14.01,2013-02-11 16:39:00,
2013-02-11 09:40:00,19.2,13.2,30.49,ESE,109,2.0,5.0,77,0.00,,SKC,0.00,VWS V14.01,2013-02-11 16:40:00,
2013-02-11 09:41:00,19.3,13.3,30.49,ESE,110,4.0,4.0,77,0.00,,SKC,0.00,VWS V14.01,2013-02-11 16:41:00,
2013-02-11 09:42:00,19.4,13.7,30.49,ESE,108,4.0,4.0,78,0.00,,SKC,0.00,VWS V14.01,2013-02-11 16:42:00,
2013-02-11 09:43:00,19.5,13.8,30.49,ESE,111,3.0,5.0,78,0.00,,SKC,0.00,VWS V14.01,2013-02-11 16:43:00,
2013-02-11 09:44:00,19.5,13.5,30.49,ESE,111,4.0,4.0,77,0.00,,SKC,0.00,VWS V14.01,2013-02-11 16:44:00,
2013-02-11 09:45:00,19.5,13.5,30.49,ESE,107,4.0,5.0,77,0.00,,SKC,0.00,VWS V14.01,2013-02-11 16:45:00,
2013-02-11 09:46:00,19.5,13.2,30.49,ESE,111,3.0,5.0,76,0.00,,SKC,0.00,VWS V14.01,2013-02-11 16:46:00,
2013-02-11 09:47:00,19.5,13.2,30.49,East,88,4.0,5.0,76,0.00,,SKC,0.00,VWS V14.01,2013-02-11 16:47:00,
2013-02-11 09:48:00,19.5,12.9,30.50,East,83,5.0,7.0,75,0.00,,SKC,0.00,VWS V14.01,2013-02-11 16:48:00,
2013-02-11 09:49:00,19.5,12.9,30.49,ENE,77,1.0,5.0,75,0.00,,SKC,0.00,VWS V14.01,2013-02-11 16:49:00,
2013-02-11 09:50:00,19.5,12.9,30.49,East,91,4.0,6.0,75,0.00,,SKC,0.00,VWS V14.01,2013-02-11 16:50:00,
2013-02-11 09:51:00,19.4,12.8,30.49,East,92,2.0,5.0,75,0.00,,SKC,0.00,VWS V14.01,2013-02-11 16:51:00,
2013-02-11 09:52:00,19.4,12.8,30.49,East,101,5.0,5.0,75,0.00,,SKC,0.00,VWS V14.01,2013-02-11 16:52:00,
2013-02-11 09:53:00,19.4,14.8,30.49,ESE,121,3.0,5.0,82,0.00,,SKC,0.00,VWS V14.01,2013-02-11 16:53:00,
2013-02-11 09:54:00,19.3,12.7,30.49,ESE,112,3.0,5.0,75,0.00,,SKC,0.00,VWS V14.01,2013-02-11 16:54:00,
2013-02-11 09:55:00,19.3,12.4,30.49,ESE,113,2.0,5.0,74,0.00,,SKC,0.00,VWS V14.01,2013-02-11 16:55:00,
2013-02-11 09:56:00,19.3,12.4,30.49,ENE,68,3.0,6.0,74,0.00,,SKC,0.00,VWS V14.01,2013-02-11 16:56:00,
2013-02-11 09:57:00,19.3,12.4,30.49,ENE,68,3.0,6.0,74,0.00,,SKC,0.00,VWS V14.01,2013-02-11 16:57:00,
2013-02-11 09:58:00,19.2,12.3,30.49,East,89,2.0,5.0,74,0.00,,SKC,0.00,VWS V14.01,2013-02-11 16:58:00,
2013-02-11 09:59:00,19.2,12.6,30.49,ESE,108,5.0,7.0,75,0.00,,SKC,0.00,VWS V14.01,2013-02-11 16:59:00,
2013-02-11 10:00:00,19.2,12.3,30.49,ESE,119,6.0,6.0,74,0.00,,SKC,0.00,VWS V14.01,2013-02-11 17:00:00,
2013-02-11 10:01:00,19.1,11.9,30.49,SE,126,3.0,10.0,73,0.00,,SKC,0.00,VWS V14.01,2013-02-11 17:01:00,
2013-02-11 10:02:00,19.0,11.8,30.49,SE,134,7.0,7.0,73,0.00,,SKC,0.00,VWS V14.01,2013-02-11 17:02:00,
2013-02-11 10:03:00,19.0,11.8,30.49,SE,134,7.0,7.0,73,0.00,,SKC,0.00,VWS V14.01,2013-02-11 17:03:00,
2013-02-11 10:04:00,18.9,12.0,30.49,SE,143,7.0,7.0,74,0.00,,SKC,0.00,VWS V14.01,2013-02-11 17:04:00,
2013-02-11 10:05:00,18.8,11.9,30.49,SE,128,6.0,10.0,74,0.00,,SKC,0.00,VWS V14.01,2013-02-11 17:05:00,
2013-02-11 10:06:00,18.7,12.4,30.49,SE,128,5.0,6.0,76,0.00,,SKC,0.00,VWS V14.01,2013-02-11 17:06:00,
2013-02-11 10:07:00,18.7,12.4,30.49,SE,126,4.0,5.0,76,0.00,,SKC,0.00,VWS V14.01,2013-02-11 17:07:00,
2013-02-11 10:08:00,18.7,12.4,30.49,SE,133,5.0,9.0,76,0.00,,SKC,0.00,VWS V14.01,2013-02-11 17:08:00,
2013-02-11 10:09:00,18.7,12.1,30.49,SE,131,5.0,7.0,75,0.00,,SKC,0.00,VWS V14.01,2013-02-11 17:09:00,
2013-02-11 10:10:00,18.6,12.0,30.49,SE,135,5.0,5.0,75,0.00,,SKC,0.00,VWS V14.01,2013-02-11 17:10:00,
2013-02-11 10:11:00,18.5,12.2,30.49,North,360,6.0,10.0,76,0.00,,SKC,0.00,VWS V14.01,2013-02-11 17:11:00,
2013-02-11 10:12:00,18.5,12.2,30.49,SE,144,3.0,9.0,76,0.00,,SKC,0.00,VWS V14.01,2013-02-11 17:12:00,
2013-02-11 10:13:00,18.4,12.1,30.49,SE,126,4.0,9.0,76,0.00,,SKC,0.00,VWS V14.01,2013-02-11 17:13:00,
2013-02-11 10:14:00,18.4,12.1,30.49,North,360,4.0,7.0,76,0.00,,SKC,0.00,VWS V14.01,2013-02-11 17:14:00,
2013-02-11 10:15:00,18.3,11.7,30.49,SE,126,2.0,7.0,75,0.00,,SKC,0.00,VWS V14.01,2013-02-11 17:15:00,
2013-02-11 10:16:00,18.2,11.6,30.49,SE,134,3.0,5.0,75,0.00,,SKC,0.00,VWS V14.01,2013-02-11 17:16:00,
2013-02-11 10:17:00,18.2,11.9,30.49,SE,136,5.0,7.0,76,0.00,,SKC,0.00,VWS V14.01,2013-02-11 17:17:00,
2013-02-11 10:18:00,18.1,11.8,30.49,SE,134,9.0,9.0,76,0.00,,SKC,0.00,VWS V14.01,2013-02-11 17:18:00,
2013-02-11 10:19:00,18.1,11.8,30.49,SE,134,7.0,10.0,76,0.00,,SKC,0.00,VWS V14.01,2013-02-11 17:19:00,
2013-02-11 10:20:00,18.0,11.7,30.49,SE,126,6.0,7.0,76,0.00,,SKC,0.00,VWS V14.01,2013-02-11 17:20:00,
2013-02-11 10:21:00,17.9,11.6,30.49,ESE,117,6.0,9.0,76,0.00,,SKC,0.00,VWS V14.01,2013-02-11 17:21:00,
2013-02-11 10:22:00,17.7,11.1,30.49,SE,130,4.0,10.0,75,0.00,,SKC,0.00,VWS V14.01,2013-02-11 17:22:00,
2013-02-11 10:23:00,17.6,11.3,30.49,SE,130,3.0,7.0,76,0.00,,SKC,0.00,VWS V14.01,2013-02-11 17:23:00,
2013-02-11 10:24:00,17.6,11.3,30.49,SE,130,3.0,7.0,76,0.00,,SKC,0.00,VWS V14.01,2013-02-11 17:24:00,
2013-02-11 10:25:00,17.5,11.2,30.49,SE,128,9.0,10.0,76,0.00,,SKC,0.00,VWS V14.01,2013-02-11 17:25:00,
2013-02-11 10:26:00,17.5,11.5,30.49,ESE,123,4.0,9.0,77,0.00,,SKC,0.00,VWS V14.01,2013-02-11 17:26:00,
2013-02-11 10:27:00,17.5,11.8,30.50,ESE,122,6.0,9.0,78,0.00,,SKC,0.00,VWS V14.01,2013-02-11 17:27:00,
2013-02-11 10:28:00,17.4,11.4,30.50,SE,135,6.0,10.0,77,0.00,,SKC,0.00,VWS V14.01,2013-02-11 17:28:00,
2013-02-11 10:29:00,17.3,11.3,30.50,SE,129,6.0,7.0,77,0.00,,SKC,0.00,VWS V14.01,2013-02-11 17:29:00,
2013-02-11 10:30:00,17.3,11.3,30.50,SE,131,4.0,7.0,77,0.00,,SKC,0.00,VWS V14.01,2013-02-11 17:30:00,
2013-02-11 10:31:00,17.3,11.6,30.49,SE,135,4.0,8.0,78,0.00,,SKC,0.00,VWS V14.01,2013-02-11 17:31:00,
2013-02-11 10:32:00,17.3,11.6,30.50,SE,137,4.0,5.0,78,0.00,,SKC,0.00,VWS V14.01,2013-02-11 17:32:00,
2013-02-11 10:33:00,17.3,11.6,30.49,SE,141,5.0,7.0,78,0.00,,SKC,0.00,VWS V14.01,2013-02-11 17:33:00,
2013-02-11 10:34:00,17.3,11.6,30.50,SE,135,4.0,7.0,78,0.00,,SKC,0.00,VWS V14.01,2013-02-11 17:34:00,
2013-02-11 10:35:00,17.3,11.6,30.50,SE,140,8.0,8.0,78,0.00,,SKC,0.00,VWS V14.01,2013-02-11 17:35:00,
2013-02-11 10:36:00,17.3,11.9,30.50,SE,137,2.0,8.0,79,0.00,,SKC,0.00,VWS V14.01,2013-02-11 17:36:00,
2013-02-11 10:37:00,17.3,11.9,30.50,SE,144,5.0,5.0,79,0.00,,SKC,0.00,VWS V14.01,2013-02-11 17:37:00,
2013-02-11 10:38:00,17.3,12.2,30.50,SE,134,4.0,6.0,80,0.00,,SKC,0.00,VWS V14.01,2013-02-11 17:38:00,
2013-02-11 10:39:00,17.4,12.0,30.50,SE,130,5.0,7.0,79,0.00,,SKC,0.00,VWS V14.01,2013-02-11 17:39:00,
2013-02-11 10:40:00,17.4,12.0,30.50,SE,130,5.0,7.0,79,0.00,,SKC,0.00,VWS V14.01,2013-02-11 17:40:00,
2013-02-11 10:41:00,17.4,12.0,30.50,SE,138,4.0,7.0,79,0.00,,SKC,0.00,VWS V14.01,2013-02-11 17:41:00,
2013-02-11 10:42:00,17.4,12.0,30.50,SE,144,4.0,5.0,79,0.00,,SKC,0.00,VWS V14.01,2013-02-11 17:42:00,
2013-02-11 10:43:00,17.4,12.0,30.50,SE,142,4.0,5.0,79,0.00,,SKC,0.00,VWS V14.01,2013-02-11 17:43:00,
2013-02-11 10:44:00,17.3,11.6,30.50,SE,144,3.0,5.0,78,0.00,,SKC,0.00,VWS V14.01,2013-02-11 17:44:00,
2013-02-11 10:45:00,17.3,11.6,30.50,SE,146,2.0,4.0,78,0.00,,SKC,0.00,VWS V14.01,2013-02-11 17:45:00,
2013-02-11 10:46:00,17.3,11.6,30.50,SE,146,2.0,4.0,78,0.00,,SKC,0.00,VWS V14.01,2013-02-11 17:46:00,
2013-02-11 10:47:00,17.1,11.4,30.50,SSE,149,3.0,5.0,78,0.00,,SKC,0.00,VWS V14.01,2013-02-11 17:47:00,
2013-02-11 10:48:00,17.1,11.4,30.50,SE,143,5.0,5.0,78,0.00,,SKC,0.00,VWS V14.01,2013-02-11 17:48:00,
2013-02-11 10:49:00,17.0,11.3,30.50,SE,139,6.0,6.0,78,0.00,,SKC,0.00,VWS V14.01,2013-02-11 17:49:00,
2013-02-11 10:50:00,16.9,11.2,30.50,SE,146,4.0,7.0,78,0.00,,SKC,0.00,VWS V14.01,2013-02-11 17:50:00,
2013-02-11 10:51:00,16.9,11.2,30.50,SE,146,4.0,7.0,78,0.00,,SKC,0.00,VWS V14.01,2013-02-11 17:51:00,
2013-02-11 10:52:00,16.7,11.1,30.50,SE,143,5.0,5.0,78,0.00,,SKC,0.00,VWS V14.01,2013-02-11 17:52:00,
2013-02-11 10:53:00,16.7,11.3,30.49,SSE,151,5.0,5.0,79,0.00,,SKC,0.00,VWS V14.01,2013-02-11 17:53:00,
2013-02-11 10:54:00,16.8,11.7,30.50,North,360,3.0,5.0,80,0.00,,SKC,0.00,VWS V14.01,2013-02-11 17:54:00,
2013-02-11 10:55:00,16.9,11.5,30.50,SE,144,2.0,4.0,79,0.00,,SKC,0.00,VWS V14.01,2013-02-11 17:55:00,
2013-02-11 10:56:00,16.9,11.5,30.49,SE,146,4.0,4.0,79,0.00,,SKC,0.00,VWS V14.01,2013-02-11 17:56:00,
2013-02-11 10:57:00,17.0,11.9,30.49,SE,140,2.0,6.0,80,0.00,,SKC,0.00,VWS V14.01,2013-02-11 17:57:00,
2013-02-11 10:58:00,17.2,12.4,30.49,SE,144,2.0,4.0,81,0.00,,SKC,0.00,VWS V14.01,2013-02-11 17:58:00,
2013-02-11 10:59:00,17.3,12.2,30.49,North,360,4.0,6.0,80,0.00,,SKC,0.00,VWS V14.01,2013-02-11 17:59:00,
2013-02-11 11:00:00,17.5,12.4,30.49,ESE,108,2.0,6.0,80,0.00,,SKC,0.00,VWS V14.01,2013-02-11 18:00:00,
2013-02-11 11:01:00,17.7,12.9,30.49,ESE,111,4.0,4.0,81,0.00,,SKC,0.00,VWS V14.01,2013-02-11 18:01:00,
2013-02-11 11:02:00,17.7,12.9,30.49,ESE,111,4.0,4.0,81,0.00,,SKC,0.00,VWS V14.01,2013-02-11 18:02:00,
2013-02-11 11:03:00,18.2,13.4,30.49,ESE,118,4.0,4.0,81,0.00,,SKC,0.00,VWS V14.01,2013-02-11 18:03:00,
2013-02-11 11:04:00,18.4,13.6,30.49,ESE,121,2.0,4.0,81,0.00,,SKC,0.00,VWS V14.01,2013-02-11 18:04:00,
2013-02-11 11:05:00,18.7,14.1,30.49,ESE,119,4.0,5.0,82,0.00,,SKC,0.00,VWS V14.01,2013-02-11 18:05:00,
2013-02-11 11:06:00,19.0,14.1,30.49,East,99,4.0,8.0,81,0.00,,SKC,0.00,VWS V14.01,2013-02-11 18:06:00,
2013-02-11 11:07:00,19.3,14.4,30.49,ESE,103,4.0,6.0,81,0.00,,SKC,0.00,VWS V14.01,2013-02-11 18:07:00,
2013-02-11 11:08:00,19.3,14.4,30.49,ESE,103,4.0,6.0,81,0.00,,SKC,0.00,VWS V14.01,2013-02-11 18:08:00,
2013-02-11 11:09:00,19.7,14.8,30.49,SE,125,5.0,6.0,81,0.00,,SKC,0.00,VWS V14.01,2013-02-11 18:09:00,
2013-02-11 11:10:00,19.9,15.0,30.49,ESE,117,2.0,5.0,81,0.00,,SKC,0.00,VWS V14.01,2013-02-11 18:10:00,
2013-02-11 11:11:00,20.1,15.2,30.49,SE,133,6.0,7.0,81,0.00,,SKC,0.00,VWS V14.01,2013-02-11 18:11:00,
2013-02-11 11:12:00,20.3,15.4,30.49,SE,128,9.0,10.0,81,0.00,,SKC,0.00,VWS V14.01,2013-02-11 18:12:00,
2013-02-11 11:13:00,20.4,15.5,30.49,SE,132,5.0,9.0,81,0.00,,SKC,0.00,VWS V14.01,2013-02-11 18:13:00,
2013-02-11 11:14:00,20.4,15.5,30.49,SE,132,5.0,9.0,81,0.00,,SKC,0.00,VWS V14.01,2013-02-11 18:14:00,
2013-02-11 11:15:00,20.7,15.5,30.49,ESE,115,3.0,6.0,80,0.00,,SKC,0.00,VWS V14.01,2013-02-11 18:15:00,
2013-02-11 11:16:00,20.8,15.3,30.49,ESE,109,3.0,5.0,79,0.00,,SKC,0.00,VWS V14.01,2013-02-11 18:16:00,
2013-02-11 11:17:00,20.8,14.7,30.49,North,360,5.0,5.0,77,0.00,,SKC,0.00,VWS V14.01,2013-02-11 18:17:00,
2013-02-11 11:18:00,20.8,14.7,30.49,ESE,123,3.0,5.0,77,0.00,,SKC,0.00,VWS V14.01,2013-02-11 18:18:00,
2013-02-11 11:19:00,20.9,14.8,30.49,ESE,119,1.0,4.0,77,0.00,,SKC,0.00,VWS V14.01,2013-02-11 18:19:00,
2013-02-11 11:20:00,20.9,14.5,30.49,ESE,123,3.0,4.0,76,0.00,,SKC,0.00,VWS V14.01,2013-02-11 18:20:00,
2013-02-11 11:21:00,20.9,14.5,30.49,East,101,2.0,3.0,76,0.00,,SKC,0.00,VWS V14.01,2013-02-11 18:21:00,
2013-02-11 11:22:00,20.9,14.5,30.49,East,95,4.0,6.0,76,0.00,,SKC,0.00,VWS V14.01,2013-02-11 18:22:00,
2013-02-11 11:23:00,20.9,14.2,30.49,East,97,6.0,6.0,75,0.00,,SKC,0.00,VWS V14.01,2013-02-11 18:23:00,
2013-02-11 11:24:00,20.9,14.2,30.49,East,100,4.0,7.0,75,0.00,,SKC,0.00,VWS V14.01,2013-02-11 18:24:00,
2013-02-11 11:25:00,20.9,14.2,30.49,East,98,3.0,7.0,75,0.00,,SKC,0.00,VWS V14.01,2013-02-11 18:25:00,
2013-02-11 11:26:00,20.8,14.1,30.49,East,84,8.0,8.0,75,0.00,,SKC,0.00,VWS V14.01,2013-02-11 18:26:00,
2013-02-11 11:27:00,20.8,13.8,30.49,East,83,4.0,8.0,74,0.00,,SKC,0.00,VWS V14.01,2013-02-11 18:27:00,
2013-02-11 11:28:00,20.7,13.7,30.49,East,92,3.0,5.0,74,0.00,,SKC,0.00,VWS V14.01,2013-02-11 18:28:00,
2013-02-11 11:29:00,20.7,13.7,30.49,ESE,107,3.0,7.0,74,0.00,,SKC,0.00,VWS V14.01,2013-02-11 18:29:00,
2013-02-11 11:30:00,20.7,13.7,30.49,ESE,107,3.0,7.0,74,0.00,,SKC,0.00,VWS V14.01,2013-02-11 18:30:00,
2013-02-11 11:31:00,20.6,13.6,30.48,ESE,111,7.0,11.0,74,0.00,,SKC,0.00,VWS V14.01,2013-02-11 18:31:00,
2013-02-11 11:32:00,20.6,13.6,30.48,ESE,103,3.0,7.0,74,0.00,,SKC,0.00,VWS V14.01,2013-02-11 18:32:00,
2013-02-11 11:33:00,20.6,13.6,30.48,ENE,78,6.0,6.0,74,0.00,,SKC,0.00,VWS V14.01,2013-02-11 18:33:00,
2013-02-11 11:34:00,20.5,13.6,30.49,ESE,123,5.0,6.0,74,0.00,,SKC,0.00,VWS V14.01,2013-02-11 18:34:00,
2013-02-11 11:35:00,20.5,13.6,30.48,ESE,116,6.0,6.0,74,0.00,,SKC,0.00,VWS V14.01,2013-02-11 18:35:00,
2013-02-11 11:36:00,20.5,13.5,30.48,ESE,116,6.0,6.0,74,0.00,,SKC,0.00,VWS V14.01,2013-02-11 18:36:00,
2013-02-11 11:37:00,20.4,13.8,30.49,North,360,1.0,5.0,75,0.00,,SKC,0.00,VWS V14.01,2013-02-11 18:37:00,
2013-02-11 11:38:00,20.4,13.4,30.49,ESE,110,3.0,5.0,74,0.00,,SKC,0.00,VWS V14.01,2013-02-11 18:38:00,
2013-02-11 11:39:00,20.4,13.4,30.49,ESE,109,6.0,6.0,74,0.00,,SKC,0.00,VWS V14.01,2013-02-11 18:39:00,
2013-02-11 11:40:00,20.3,13.4,30.49,ESE,106,4.0,6.0,74,0.00,,SKC,0.00,VWS V14.01,2013-02-11 18:40:00,
2013-02-11 11:41:00,20.3,13.4,30.49,ESE,106,4.0,6.0,74,0.00,,SKC,0.00,VWS V14.01,2013-02-11 18:41:00,
2013-02-11 11:42:00,20.3,13.4,30.49,ESE,107,3.0,4.0,74,0.00,,SKC,0.00,VWS V14.01,2013-02-11 18:42:00,
2013-02-11 11:43:00,20.2,13.6,30.49,ESE,106,4.0,4.0,75,0.00,,SKC,0.00,VWS V14.01,2013-02-11 18:43:00,
2013-02-11 11:44:00,20.2,13.6,30.49,ESE,107,2.0,4.0,75,0.00,,SKC,0.00,VWS V14.01,2013-02-11 18:44:00,
2013-02-11 11:45:00,20.2,13.6,30.49,ESE,115,2.0,3.0,75,0.00,,SKC,0.00,VWS V14.01,2013-02-11 18:45:00,
2013-02-11 11:46:00,20.1,13.5,30.49,ESE,103,2.0,6.0,75,0.00,,SKC,0.00,VWS V14.01,2013-02-11 18:46:00,
2013-02-11 11:47:00,20.1,13.5,30.49,ESE,103,2.0,6.0,75,0.00,,SKC,0.00,VWS V14.01,2013-02-11 18:47:00,
2013-02-11 11:48:00,19.9,13.6,30.48,SE,134,5.0,6.0,76,0.00,,SKC,0.00,VWS V14.01,2013-02-11 18:48:00,
2013-02-11 11:49:00,19.9,13.6,30.48,SE,134,2.0,5.0,76,0.00,,SKC,0.00,VWS V14.01,2013-02-11 18:49:00,
2013-02-11 11:50:00,19.9,13.6,30.48,SE,137,3.0,5.0,76,0.00,,SKC,0.00,VWS V14.01,2013-02-11 18:50:00,
2013-02-11 11:51:00,19.8,13.5,30.48,SE,130,2.0,4.0,76,0.00,,SKC,0.00,VWS V14.01,2013-02-11 18:51:00,
2013-02-11 11:52:00,19.8,13.5,30.48,SE,130,2.0,4.0,76,0.00,,SKC,0.00,VWS V14.01,2013-02-11 18:52:00,
2013-02-11 11:53:00,19.7,13.4,30.48,SE,131,3.0,3.0,76,0.00,,SKC,0.00,VWS V14.01,2013-02-11 18:53:00,
2013-02-11 11:54:00,19.7,13.7,30.48,SE,137,4.0,5.0,77,0.00,,SKC,0.00,VWS V14.01,2013-02-11 18:54:00,
2013-02-11 11:55:00,19.7,13.7,30.48,SE,133,6.0,6.0,77,0.00,,SKC,0.00,VWS V14.01,2013-02-11 18:55:00,
2013-02-11 11:56:00,19.7,13.4,30.48,North,360,5.0,7.0,76,0.00,,SKC,0.00,VWS V14.01,2013-02-11 18:56:00,
2013-02-11 11:57:00,19.5,13.2,30.48,ESE,123,4.0,6.0,76,0.00,,SKC,0.00,VWS V14.01,2013-02-11 18:57:00,
2013-02-11 11:58:00,19.3,13.3,30.48,SE,128,6.0,7.0,77,0.00,,SKC,0.00,VWS V14.01,2013-02-11 18:58:00,
2013-02-11 11:59:00,19.2,12.9,30.48,SE,136,2.0,6.0,76,0.00,,SKC,0.00,VWS V14.01,2013-02-11 18:59:00,
2013-02-11 12:00:00,19.1,12.8,30.48,SE,137,6.0,6.0,76,0.00,,SKC,0.00,VWS V14.01,2013-02-11 19:00:00,
2013-02-11 12:01:00,19.1,13.1,30.48,ESE,122,3.0,7.0,77,0.00,,SKC,0.00,VWS V14.01,2013-02-11 19:01:00,
2013-02-11 12:02:00,19.0,13.3,30.48,ESE,118,5.0,7.0,78,0.00,,SKC,0.00,VWS V14.01,2013-02-11 19:02:00,
2013-02-11 12:03:00,19.0,13.6,30.48,ESE,120,5.0,6.0,79,0.00,,SKC,0.00,VWS V14.01,2013-02-11 19:03:00,
2013-02-11 12:04:00,19.0,13.6,30.48,SE,124,2.0,5.0,79,0.00,,SKC,0.00,VWS V14.01,2013-02-11 19:04:00,
2013-02-11 12:05:00,19.1,13.7,30.48,SE,130,1.0,3.0,79,0.00,,SKC,0.00,VWS V14.01,2013-02-11 19:05:00,
2013-02-11 12:06:00,19.1,13.7,30.48,SE,125,2.0,3.0,79,0.00,,SKC,0.00,VWS V14.01,2013-02-11 19:06:00,
2013-02-11 12:07:00,19.1,13.7,30.48,SE,126,4.0,4.0,79,0.00,,SKC,0.00,VWS V14.01,2013-02-11 19:07:00,
2013-02-11 12:08:00,19.1,13.7,30.48,ESE,121,1.0,4.0,79,0.00,,SKC,0.00,VWS V14.01,2013-02-11 19:08:00,
2013-02-11 12:09:00,19.1,13.7,30.48,ESE,121,2.0,3.0,79,0.00,,SKC,0.00,VWS V14.01,2013-02-11 19:09:00,
2013-02-11 12:10:00,19.1,13.7,30.48,ESE,117,1.0,4.0,79,0.00,,SKC,0.00,VWS V14.01,2013-02-11 19:10:00,
2013-02-11 12:11:00,19.2,13.8,30.48,ESE,119,3.0,4.0,79,0.00,,SKC,0.00,VWS V14.01,2013-02-11 19:11:00,
2013-02-11 12:12:00,19.2,13.8,30.48,SE,124,3.0,3.0,79,0.00,,SKC,0.00,VWS V14.01,2013-02-11 19:12:00,
2013-02-11 12:13:00,19.2,13.8,30.48,ESE,116,2.0,3.0,79,0.00,,SKC,0.00,VWS V14.01,2013-02-11 19:13:00,
2013-02-11 12:14:00,19.2,13.8,30.48,ESE,120,2.0,2.0,79,0.00,,SKC,0.00,VWS V14.01,2013-02-11 19:14:00,
2013-02-11 12:15:00,19.3,13.9,30.48,ESE,118,3.0,3.0,79,0.00,,SKC,0.00,VWS V14.01,2013-02-11 19:15:00,
2013-02-11 12:16:00,19.2,13.5,30.48,ESE,123,5.0,7.0,78,0.00,,SKC,0.00,VWS V14.01,2013-02-11 19:16:00,
2013-02-11 12:17:00,19.3,13.6,30.48,SE,134,5.0,7.0,78,0.00,,SKC,0.00,VWS V14.01,2013-02-11 19:17:00,
2013-02-11 12:18:00,19.2,13.5,30.48,SE,135,3.0,7.0,78,0.00,,SKC,0.00,VWS V14.01,2013-02-11 19:18:00,
2013-02-11 12:19:00,19.1,13.1,30.48,SE,134,5.0,7.0,77,0.00,,SKC,0.00,VWS V14.01,2013-02-11 19:19:00,
2013-02-11 12:20:00,18.9,12.9,30.48,SE,132,4.0,7.0,77,0.00,,SKC,0.00,VWS V14.01,2013-02-11 19:20:00,
2013-02-11 12:21:00,18.9,12.9,30.48,SE,129,3.0,5.0,77,0.00,,SKC,0.00,VWS V14.01,2013-02-11 19:21:00,
2013-02-11 12:22:00,18.8,12.8,30.48,SE,132,5.0,6.0,77,0.00,,SKC,0.00,VWS V14.01,2013-02-11 19:22:00,
2013-02-11 12:23:00,18.7,13.0,30.48,SE,128,6.0,6.0,78,0.00,,SKC,0.00,VWS V14.01,2013-02-11 19:23:00,
2013-02-11 12:24:00,18.6,12.9,30.48,SE,127,4.0,8.0,78,0.00,,SKC,0.00,VWS V14.01,2013-02-11 19:24:00,
2013-02-11 12:25:00,18.5,12.8,30.48,SE,128,4.0,7.0,78,0.00,,SKC,0.00,VWS V14.01,2013-02-11 19:25:00,
2013-02-11 12:26:00,18.4,12.7,30.48,SE,134,2.0,6.0,78,0.00,,SKC,0.00,VWS V14.01,2013-02-11 19:26:00,
2013-02-11 12:27:00,18.3,12.6,30.48,SE,135,4.0,5.0,78,0.00,,SKC,0.00,VWS V14.01,2013-02-11 19:27:00,
2013-02-11 12:28:00,18.3,12.6,30.48,SE,130,6.0,8.0,78,0.00,,SKC,0.00,VWS V14.01,2013-02-11 19:28:00,
2013-02-11 12:29:00,18.2,12.5,30.47,SE,131,6.0,7.0,78,0.00,,SKC,0.00,VWS V14.01,2013-02-11 19:29:00,
2013-02-11 12:30:00,18.1,12.4,30.48,SE,130,4.0,6.0,78,0.00,,SKC,0.00,VWS V14.01,2013-02-11 19:30:00,
2013-02-11 12:31:00,18.1,12.4,30.47,SE,139,2.0,8.0,78,0.00,,SKC,0.00,VWS V14.01,2013-02-11 19:31:00,
2013-02-11 12:32:00,18.0,12.6,30.48,SSE,147,3.0,6.0,79,0.00,,SKC,0.00,VWS V14.01,2013-02-11 19:32:00,
2013-02-11 12:33:00,18.0,12.6,30.48,SSE,149,2.0,4.0,79,0.00,,SKC,0.00,VWS V14.01,2013-02-11 19:33:00,
2013-02-11 12:34:00,18.0,12.6,30.48,SSE,149,2.0,4.0,79,0.00,,SKC,0.00,VWS V14.01,2013-02-11 19:34:00,
2013-02-11 12:35:00,18.0,12.9,30.47,SE,144,3.0,4.0,80,0.00,,SKC,0.00,VWS V14.01,2013-02-11 19:35:00,
2013-02-11 12:36:00,18.1,13.0,30.47,SE,142,3.0,4.0,80,0.00,,SKC,0.00,VWS V14.01,2013-02-11 19:36:00,
2013-02-11 12:37:00,18.1,13.0,30.47,SE,140,4.0,5.0,80,0.00,,SKC,0.00,VWS V14.01,2013-02-11 19:37:00,
2013-02-11 12:38:00,18.1,13.0,30.47,SE,143,2.0,5.0,80,0.00,,SKC,0.00,VWS V14.01,2013-02-11 19:38:00,
2013-02-11 12:39:00,18.2,13.4,30.47,SE,143,3.0,5.0,81,0.00,,SKC,0.00,VWS V14.01,2013-02-11 19:39:00,
2013-02-11 12:40:00,18.2,13.4,30.47,SE,144,2.0,5.0,81,0.00,,SKC,0.00,VWS V14.01,2013-02-11 19:40:00,
2013-02-11 12:41:00,18.2,13.1,30.47,SE,143,3.0,6.0,80,0.00,,SKC,0.00,VWS V14.01,2013-02-11 19:41:00,
2013-02-11 12:42:00,18.2,13.1,30.47,SE,146,4.0,5.0,80,0.00,,SKC,0.00,VWS V14.01,2013-02-11 19:42:00,
2013-02-11 12:43:00,18.3,13.2,30.47,SSE,147,4.0,6.0,80,0.00,,SKC,0.00,VWS V14.01,2013-02-11 19:43:00,
2013-02-11 12:44:00,18.3,13.2,30.47,SSE,148,3.0,5.0,80,0.00,,SKC,0.00,VWS V14.01,2013-02-11 19:44:00,
2013-02-11 12:45:00,18.2,12.8,30.47,SE,127,5.0,8.0,79,0.00,,SKC,0.00,VWS V14.01,2013-02-11 19:45:00,
2013-02-11 12:46:00,18.1,12.7,30.47,SE,133,9.0,9.0,79,0.00,,SKC,0.00,VWS V14.01,2013-02-11 19:46:00,
2013-02-11 12:47:00,18.0,12.3,30.47,SE,136,7.0,9.0,78,0.00,,SKC,0.00,VWS V14.01,2013-02-11 19:47:00,
2013-02-11 12:48:00,17.9,12.5,30.47,North,360,4.0,7.0,79,0.00,,SKC,0.00,VWS V14.01,2013-02-11 19:48:00,
2013-02-11 12:49:00,17.9,12.5,30.47,SE,136,5.0,9.0,79,0.00,,SKC,0.00,VWS V14.01,2013-02-11 19:49:00,
2013-02-11 12:50:00,17.8,12.4,30.47,SE,126,4.0,7.0,79,0.00,,SKC,0.00,VWS V14.01,2013-02-11 19:50:00,
2013-02-11 12:51:00,17.8,12.4,30.47,SE,126,4.0,7.0,79,0.00,,SKC,0.00,VWS V14.01,2013-02-11 19:51:00,
2013-02-11 12:52:00,17.7,12.6,30.47,SE,143,3.0,8.0,80,0.00,,SKC,0.00,VWS V14.01,2013-02-11 19:52:00,
2013-02-11 12:53:00,17.7,12.9,30.47,SE,135,2.0,6.0,81,0.00,,SKC,0.00,VWS V14.01,2013-02-11 19:53:00,
2013-02-11 12:54:00,17.7,12.9,30.47,SE,139,2.0,5.0,81,0.00,,SKC,0.00,VWS V14.01,2013-02-11 19:54:00,
2013-02-11 12:55:00,17.8,13.0,30.47,SE,140,4.0,5.0,81,0.00,,SKC,0.00,VWS V14.01,2013-02-11 19:55:00,
2013-02-11 12:56:00,17.8,13.2,30.47,SE,139,6.0,6.0,82,0.00,,SKC,0.00,VWS V14.01,2013-02-11 19:56:00,
2013-02-11 12:57:00,17.8,13.2,30.47,SE,139,6.0,6.0,82,0.00,,SKC,0.00,VWS V14.01,2013-02-11 19:57:00,
2013-02-11 12:58:00,18.0,13.4,30.47,SE,142,4.0,8.0,82,0.00,,SKC,0.00,VWS V14.01,2013-02-11 19:58:00,
2013-02-11 12:59:00,18.0,13.4,30.47,SE,131,1.0,6.0,82,0.00,,SKC,0.00,VWS V14.01,2013-02-11 19:59:00,
2013-02-11 13:00:00,18.0,13.2,30.47,SE,130,4.0,5.0,81,0.00,,SKC,0.00,VWS V14.01,2013-02-11 20:00:00,
2013-02-11 13:01:00,18.0,13.2,30.47,SE,138,3.0,4.0,81,0.00,,SKC,0.00,VWS V14.01,2013-02-11 20:01:00,
2013-02-11 13:02:00,18.0,13.2,30.47,ESE,118,5.0,6.0,81,0.00,,SKC,0.00,VWS V14.01,2013-02-11 20:02:00,
2013-02-11 13:03:00,18.0,13.2,30.47,ESE,118,5.0,6.0,81,0.00,,SKC,0.00,VWS V14.01,2013-02-11 20:03:00,
2013-02-11 13:04:00,18.1,13.5,30.47,ESE,119,4.0,5.0,82,0.00,,SKC,0.00,VWS V14.01,2013-02-11 20:04:00,
2013-02-11 13:05:00,18.2,13.6,30.47,ESE,107,4.0,4.0,82,0.00,,SKC,0.00,VWS V14.01,2013-02-11 20:05:00,
2013-02-11 13:06:00,18.2,13.4,30.47,ESE,103,4.0,5.0,81,0.00,,SKC,0.00,VWS V14.01,2013-02-11 20:06:00,
2013-02-11 13:07:00,18.2,13.4,30.47,ESE,102,4.0,5.0,81,0.00,,SKC,0.00,VWS V14.01,2013-02-11 20:07:00,
2013-02-11 13:08:00,18.2,13.4,30.47,East,100,3.0,5.0,81,0.00,,SKC,0.00,VWS V14.01,2013-02-11 20:08:00,
2013-02-11 13:09:00,18.2,13.4,30.47,East,100,3.0,5.0,81,0.00,,SKC,0.00,VWS V14.01,2013-02-11 20:09:00,
2013-02-11 13:10:00,18.2,13.4,30.47,East,98,3.0,4.0,81,0.00,,SKC,0.00,VWS V14.01,2013-02-11 20:10:00,
2013-02-11 13:11:00,18.3,13.5,30.47,East,99,3.0,5.0,81,0.00,,SKC,0.00,VWS V14.01,2013-02-11 20:11:00,
2013-02-11 13:12:00,18.3,13.5,30.47,East,98,3.0,4.0,81,0.00,,SKC,0.00,VWS V14.01,2013-02-11 20:12:00,
2013-02-11 13:13:00,18.4,13.6,30.47,ESE,105,2.0,3.0,81,0.00,,SKC,0.00,VWS V14.01,2013-02-11 20:13:00,
2013-02-11 13:14:00,18.4,13.6,30.47,ESE,111,3.0,5.0,81,0.00,,SKC,0.00,VWS V14.01,2013-02-11 20:14:00,
2013-02-11 13:15:00,18.4,13.6,30.47,ESE,111,3.0,5.0,81,0.00,,SKC,0.00,VWS V14.01,2013-02-11 20:15:00,
2013-02-11 13:16:00,18.5,13.6,30.47,ESE,111,1.0,4.0,81,0.00,,SKC,0.00,VWS V14.01,2013-02-11 20:16:00,
2013-02-11 13:17:00,18.5,13.9,30.47,ESE,115,3.0,4.0,82,0.00,,SKC,0.00,VWS V14.01,2013-02-11 20:17:00,
2013-02-11 13:18:00,18.5,15.8,30.47,ESE,116,2.0,4.0,89,0.00,,SKC,0.00,VWS V14.01,2013-02-11 20:18:00,
2013-02-11 13:19:00,18.6,13.8,30.47,ESE,113,2.0,4.0,81,0.00,,SKC,0.00,VWS V14.01,2013-02-11 20:19:00,
2013-02-11 13:20:00,18.6,13.8,30.47,ESE,113,2.0,4.0,81,0.00,,SKC,0.00,VWS V14.01,2013-02-11 20:20:00,
2013-02-11 13:21:00,18.7,13.9,30.47,SE,138,6.0,6.0,81,0.00,,SKC,0.00,VWS V14.01,2013-02-11 20:21:00,
2013-02-11 13:22:00,18.7,13.9,30.47,SE,138,3.0,6.0,81,0.00,,SKC,0.00,VWS V14.01,2013-02-11 20:22:00,
2013-02-11 13:23:00,18.8,13.9,30.47,SE,136,3.0,5.0,81,0.00,,SKC,0.00,VWS V14.01,2013-02-11 20:23:00,
2013-02-11 13:24:00,18.8,13.9,30.47,SE,140,3.0,5.0,81,0.00,,SKC,0.00,VWS V14.01,2013-02-11 20:24:00,
2013-02-11 13:25:00,18.8,13.7,30.47,SE,139,3.0,4.0,80,0.00,,SKC,0.00,VWS V14.01,2013-02-11 20:25:00,
2013-02-11 13:26:00,18.8,13.7,30.47,SE,136,3.0,3.0,80,0.00,,SKC,0.00,VWS V14.01,2013-02-11 20:26:00,
2013-02-11 13:27:00,18.8,13.7,30.47,SE,136,3.0,5.0,80,0.00,,SKC,0.00,VWS V14.01,2013-02-11 20:27:00,
2013-02-11 13:28:00,18.8,13.7,30.46,SE,133,4.0,6.0,80,0.00,,SKC,0.00,VWS V14.01,2013-02-11 20:28:00,
2013-02-11 13:29:00,18.7,13.3,30.46,SE,141,5.0,5.0,79,0.00,,SKC,0.00,VWS V14.01,2013-02-11 20:29:00,
2013-02-11 13:30:00,18.6,13.2,30.47,SE,135,2.0,6.0,79,0.00,,SKC,0.00,VWS V14.01,2013-02-11 20:30:00,
2013-02-11 13:31:00,18.6,13.2,30.47,SE,142,1.0,6.0,79,0.00,,SKC,0.00,VWS V14.01,2013-02-11 20:31:00,
2013-02-11 13:32:00,18.5,13.4,30.47,SE,132,3.0,5.0,80,0.00,,SKC,0.00,VWS V14.01,2013-02-11 20:32:00,
2013-02-11 13:33:00,18.5,13.1,30.47,SE,137,4.0,6.0,79,0.00,,SKC,0.00,VWS V14.01,2013-02-11 20:33:00,
2013-02-11 13:34:00,18.4,13.0,30.46,SE,129,5.0,7.0,79,0.00,,SKC,0.00,VWS V14.01,2013-02-11 20:34:00,
2013-02-11 13:35:00,18.4,13.0,30.46,SE,126,6.0,7.0,79,0.00,,SKC,0.00,VWS V14.01,2013-02-11 20:35:00,
2013-02-11 13:36:00,18.3,13.2,30.46,SE,128,4.0,6.0,80,0.00,,SKC,0.00,VWS V14.01,2013-02-11 20:36:00,
2013-02-11 13:37:00,18.3,13.2,30.46,SE,132,2.0,7.0,80,0.00,,SKC,0.00,VWS V14.01,2013-02-11 20:37:00,
2013-02-11 13:38:00,18.3,13.2,30.46,SE,130,2.0,4.0,80,0.00,,SKC,0.00,VWS V14.01,2013-02-11 20:38:00,
2013-02-11 13:39:00,18.4,13.6,30.46,SE,131,2.0,2.0,81,0.00,,SKC,0.00,VWS V14.01,2013-02-11 20:39:00,
2013-02-11 13:40:00,18.4,13.6,30.46,SE,129,5.0,6.0,81,0.00,,SKC,0.00,VWS V14.01,2013-02-11 20:40:00,
2013-02-11 13:41:00,18.5,13.6,30.46,SE,130,4.0,5.0,81,0.00,,SKC,0.00,VWS V14.01,2013-02-11 20:41:00,
2013-02-11 13:42:00,18.6,13.8,30.46,SE,132,2.0,5.0,81,0.00,,SKC,0.00,VWS V14.01,2013-02-11 20:42:00,
2013-02-11 13:43:00,18.6,13.8,30.46,SE,134,3.0,4.0,81,0.00,,SKC,0.00,VWS V14.01,2013-02-11 20:43:00,
2013-02-11 13:44:00,18.7,13.9,30.46,SE,130,2.0,3.0,81,0.00,,SKC,0.00,VWS V14.01,2013-02-11 20:44:00,
2013-02-11 13:45:00,18.8,13.9,30.46,SE,128,3.0,3.0,81,0.00,,SKC,0.00,VWS V14.01,2013-02-11 20:45:00,
2013-02-11 13:46:00,18.9,14.0,30.46,SE,130,1.0,3.0,81,0.00,,SKC,0.00,VWS V14.01,2013-02-11 20:46:00,
2013-02-11 13:47:00,18.9,14.1,30.46,SE,131,3.0,4.0,81,0.00,,SKC,0.00,VWS V14.01,2013-02-11 20:47:00,
2013-02-11 13:48:00,19.0,14.1,30.46,SE,127,3.0,5.0,81,0.00,,SKC,0.00,VWS V14.01,2013-02-11 20:48:00,
2013-02-11 13:49:00,19.1,14.2,30.46,SE,138,7.0,7.0,81,0.00,,SKC,0.00,VWS V14.01,2013-02-11 20:49:00,
2013-02-11 13:50:00,19.1,14.2,30.46,SE,134,3.0,7.0,81,0.00,,SKC,0.00,VWS V14.01,2013-02-11 20:50:00,
2013-02-11 13:51:00,19.1,14.0,30.46,SE,130,4.0,4.0,80,0.00,,SKC,0.00,VWS V14.01,2013-02-11 20:51:00,
2013-02-11 13:52:00,19.1,14.0,30.46,SE,126,4.0,6.0,80,0.00,,SKC,0.00,VWS V14.01,2013-02-11 20:52:00,
2013-02-11 13:53:00,19.1,14.0,30.46,SE,128,5.0,5.0,80,0.00,,SKC,0.00,VWS V14.01,2013-02-11 20:53:00,
2013-02-11 13:54:00,19.1,14.0,30.46,SE,127,4.0,5.0,80,0.00,,SKC,0.00,VWS V14.01,2013-02-11 20:54:00,
2013-02-11 13:55:00,19.1,14.0,30.46,SE,126,2.0,4.0,80,0.00,,SKC,0.00,VWS V14.01,2013-02-11 20:55:00,
2013-02-11 13:56:00,19.2,14.1,30.46,SE,127,2.0,4.0,80,0.00,,SKC,0.00,VWS V14.01,2013-02-11 20:56:00,
2013-02-11 13:57:00,19.2,14.1,30.46,SE,125,3.0,3.0,80,0.00,,SKC,0.00,VWS V14.01,2013-02-11 20:57:00,
2013-02-11 13:58:00,19.3,14.1,30.46,SE,127,5.0,5.0,80,0.00,,SKC,0.00,VWS V14.01,2013-02-11 20:58:00,
2013-02-11 13:59:00,19.3,13.9,30.46,SE,128,3.0,5.0,79,0.00,,SKC,0.00,VWS V14.01,2013-02-11 20:59:00,
2013-02-11 14:00:00,19.3,13.9,30.46,SE,130,5.0,5.0,79,0.00,,SKC,0.00,VWS V14.01,2013-02-11 21:00:00,
2013-02-11 14:01:00,19.2,13.8,30.46,SE,136,3.0,7.0,79,0.00,,SKC,0.00,VWS V14.01,2013-02-11 21:01:00,
2013-02-11 14:02:00,19.1,13.4,30.46,SE,137,6.0,7.0,78,0.00,,SKC,0.00,VWS V14.01,2013-02-11 21:02:00,
2013-02-11 14:03:00,19.1,13.4,30.46,SE,134,5.0,6.0,78,0.00,,SKC,0.00,VWS V14.01,2013-02-11 21:03:00,
2013-02-11 14:04:00,19.1,13.7,30.46,SE,133,5.0,6.0,79,0.00,,SKC,0.00,VWS V14.01,2013-02-11 21:04:00,
2013-02-11 14:05:00,19.0,13.3,30.46,SE,132,3.0,6.0,78,0.00,,SKC,0.00,VWS V14.01,2013-02-11 21:05:00,
2013-02-11 14:06:00,18.9,13.2,30.46,SE,133,3.0,5.0,78,0.00,,SKC,0.00,VWS V14.01,2013-02-11 21:06:00,
2013-02-11 14:07:00,18.8,13.1,30.46,SE,134,3.0,5.0,78,0.00,,SKC,0.00,VWS V14.01,2013-02-11 21:07:00,
2013-02-11 14:08:00,18.7,13.0,30.46,SE,136,2.0,5.0,78,0.00,,SKC,0.00,VWS V14.01,2013-02-11 21:08:00,
2013-02-11 14:09:00,18.7,13.3,30.46,SE,140,6.0,6.0,79,0.00,,SKC,0.00,VWS V14.01,2013-02-11 21:09:00,
2013-02-11 14:10:00,18.7,13.3,30.46,SE,134,5.0,6.0,79,0.00,,SKC,0.00,VWS V14.01,2013-02-11 21:10:00,
2013-02-11 14:11:00,18.7,13.3,30.46,SE,134,3.0,5.0,79,0.00,,SKC,0.00,VWS V14.01,2013-02-11 21:11:00,
2013-02-11 14:12:00,18.7,13.3,30.46,SE,134,2.0,5.0,79,0.00,,SKC,0.00,VWS V14.01,2013-02-11 21:12:00,
2013-02-11 14:13:00,18.7,13.3,30.46,SE,132,4.0,6.0,79,0.00,,SKC,0.00,VWS V14.01,2013-02-11 21:13:00,
2013-02-11 14:14:00,18.6,12.9,30.46,SE,138,6.0,6.0,78,0.00,,SKC,0.00,VWS V14.01,2013-02-11 21:14:00,
2013-02-11 14:15:00,18.6,12.9,30.46,SE,135,3.0,7.0,78,0.00,,SKC,0.00,VWS V14.01,2013-02-11 21:15:00,
2013-02-11 14:16:00,18.5,13.1,30.45,SE,138,6.0,6.0,79,0.00,,SKC,0.00,VWS V14.01,2013-02-11 21:16:00,
2013-02-11 14:17:00,18.5,13.1,30.45,SE,137,3.0,6.0,79,0.00,,SKC,0.00,VWS V14.01,2013-02-11 21:17:00,
2013-02-11 14:18:00,18.4,13.0,30.45,SSE,148,5.0,5.0,79,0.00,,SKC,0.00,VWS V14.01,2013-02-11 21:18:00,
2013-02-11 14:19:00,18.4,13.0,30.45,SSE,148,5.0,5.0,79,0.00,,SKC,0.00,VWS V14.01,2013-02-11 21:19:00,
2013-02-11 14:20:00,18.3,12.9,30.45,SSE,150,4.0,6.0,79,0.00,,SKC,0.00,VWS V14.01,2013-02-11 21:20:00,
2013-02-11 14:21:00,18.2,12.8,30.45,SE,143,3.0,5.0,79,0.00,,SKC,0.00,VWS V14.01,2013-02-11 21:21:00,
2013-02-11 14:22:00,18.2,12.8,30.46,SSE,148,2.0,5.0,79,0.00,,SKC,0.00,VWS V14.01,2013-02-11 21:22:00,
2013-02-11 14:23:00,18.2,12.8,30.45,SE,144,5.0,6.0,79,0.00,,SKC,0.00,VWS V14.01,2013-02-11 21:23:00,
2013-02-11 14:24:00,18.2,13.1,30.45,SE,146,3.0,7.0,80,0.00,,SKC,0.00,VWS V14.01,2013-02-11 21:24:00,
2013-02-11 14:25:00,18.2,13.1,30.46,SE,143,4.0,6.0,80,0.00,,SKC,0.00,VWS V14.01,2013-02-11 21:25:00,
2013-02-11 14:26:00,18.2,13.1,30.46,SE,146,2.0,4.0,80,0.00,,SKC,0.00,VWS V14.01,2013-02-11 21:26:00,
2013-02-11 14:27:00,18.3,13.5,30.45,SE,146,3.0,5.0,81,0.00,,SKC,0.00,VWS V14.01,2013-02-11 21:27:00,
2013-02-11 14:28:00,18.3,13.2,30.45,SE,141,3.0,5.0,80,0.00,,SKC,0.00,VWS V14.01,2013-02-11 21:28:00,
2013-02-11 14:29:00,18.3,13.2,30.45,SSE,147,5.0,6.0,80,0.00,,SKC,0.00,VWS V14.01,2013-02-11 21:29:00,
2013-02-11 14:30:00,18.4,13.6,30.46,SE,144,4.0,6.0,81,0.00,,SKC,0.00,VWS V14.01,2013-02-11 21:30:00,
2013-02-11 14:31:00,18.5,13.6,30.45,SSE,152,4.0,6.0,81,0.00,,SKC,0.00,VWS V14.01,2013-02-11 21:31:00,
2013-02-11 14:32:00,18.6,14.0,30.46,SSE,150,5.0,5.0,82,0.00,,SKC,0.00,VWS V14.01,2013-02-11 21:32:00,
2013-02-11 14:33:00,18.7,14.1,30.45,SSE,152,4.0,5.0,82,0.00,,SKC,0.00,VWS V14.01,2013-02-11 21:33:00,
2013-02-11 14:34:00,18.8,13.9,30.45,SE,146,4.0,5.0,81,0.00,,SKC,0.00,VWS V14.01,2013-02-11 21:34:00,
2013-02-11 14:35:00,18.8,13.9,30.46,SE,146,4.0,4.0,81,0.00,,SKC,0.00,VWS V14.01,2013-02-11 21:35:00,
2013-02-11 14:36:00,18.9,14.1,30.46,SE,146,4.0,5.0,81,0.00,,SKC,0.00,VWS V14.01,2013-02-11 21:36:00,
2013-02-11 14:37:00,18.9,14.1,30.46,SE,143,2.0,4.0,81,0.00,,SKC,0.00,VWS V14.01,2013-02-11 21:37:00,
2013-02-11 14:38:00,19.0,14.1,30.46,SE,143,3.0,5.0,81,0.00,,SKC,0.00,VWS V14.01,2013-02-11 21:38:00,
2013-02-11 14:39:00,19.0,13.9,30.46,SE,145,5.0,5.0,80,0.00,,SKC,0.00,VWS V14.01,2013-02-11 21:39:00,
2013-02-11 14:40:00,19.0,13.6,30.45,SSE,147,4.0,6.0,79,0.00,,SKC,0.00,VWS V14.01,2013-02-11 21:40:00,
2013-02-11 14:41:00,19.0,13.6,30.45,SSE,147,4.0,6.0,79,0.00,,SKC,0.00,VWS V14.01,2013-02-11 21:41:00,
2013-02-11 14:42:00,18.8,13.4,30.46,SE,139,5.0,10.0,79,0.00,,SKC,0.00,VWS V14.01,2013-02-11 21:42:00,
2013-02-11 14:43:00,18.8,13.4,30.46,SE,140,5.0,6.0,79,0.00,,SKC,0.00,VWS V14.01,2013-02-11 21:43:00,
2013-02-11 14:44:00,18.7,13.3,30.46,SE,140,5.0,6.0,79,0.00,,SKC,0.00,VWS V14.01,2013-02-11 21:44:00,
2013-02-11 14:45:00,18.5,13.1,30.46,SE,136,6.0,6.0,79,0.00,,SKC,0.00,VWS V14.01,2013-02-11 21:45:00,
2013-02-11 14:46:00,18.4,13.0,30.46,SE,134,6.0,7.0,79,0.00,,SKC,0.00,VWS V14.01,2013-02-11 21:46:00,
2013-02-11 14:47:00,18.4,13.0,30.46,SE,134,6.0,7.0,79,0.00,,SKC,0.00,VWS V14.01,2013-02-11 21:47:00,
2013-02-11 14:48:00,18.3,13.2,30.46,SE,137,2.0,6.0,80,0.00,,SKC,0.00,VWS V14.01,2013-02-11 21:48:00,
2013-02-11 14:49:00,18.3,13.2,30.46,SE,132,4.0,4.0,80,0.00,,SKC,0.00,VWS V14.01,2013-02-11 21:49:00,
2013-02-11 14:50:00,18.3,13.2,30.46,SE,138,3.0,5.0,80,0.00,,SKC,0.00,VWS V14.01,2013-02-11 21:50:00,
2013-02-11 14:51:00,18.4,13.6,30.46,SE,140,3.0,5.0,81,0.00,,SKC,0.00,VWS V14.01,2013-02-11 21:51:00,
2013-02-11 14:52:00,18.4,13.6,30.46,SE,144,3.0,6.0,81,0.00,,SKC,0.00,VWS V14.01,2013-02-11 21:52:00,
2013-02-11 14:53:00,18.4,13.6,30.46,SE,137,2.0,7.0,81,0.00,,SKC,0.00,VWS V14.01,2013-02-11 21:53:00,
2013-02-11 14:54:00,18.4,13.6,30.46,SE,137,3.0,4.0,81,0.00,,SKC,0.00,VWS V14.01,2013-02-11 21:54:00,
2013-02-11 14:55:00,18.4,13.6,30.46,SE,137,2.0,3.0,81,0.00,,SKC,0.00,VWS V14.01,2013-02-11 21:55:00,
2013-02-11 14:57:00,18.6,15.9,30.46,SE,141,4.0,5.0,89,0.00,,SKC,0.00,VWS V14.01,2013-02-11 21:57:00,
2013-02-11 14:58:00,18.6,14.0,30.46,SE,141,4.0,5.0,82,0.00,,SKC,0.00,VWS V14.01,2013-02-11 21:58:00,
2013-02-11 14:59:00,18.7,14.1,30.46,SE,137,5.0,5.0,82,0.00,,SKC,0.00,VWS V14.01,2013-02-11 21:59:00,
2013-02-11 15:00:00,18.8,14.2,30.46,SE,139,6.0,6.0,82,0.00,,SKC,0.00,VWS V14.01,2013-02-11 22:00:00,
2013-02-11 15:01:00,18.9,14.1,30.46,SE,140,6.0,6.0,81,0.00,,SKC,0.00,VWS V14.01,2013-02-11 22:01:00,
2013-02-11 15:02:00,18.9,14.1,30.46,SE,143,3.0,7.0,81,0.00,,SKC,0.00,VWS V14.01,2013-02-11 22:02:00,
2013-02-11 15:03:00,18.8,13.7,30.46,SE,138,3.0,7.0,80,0.00,,SKC,0.00,VWS V14.01,2013-02-11 22:03:00,
2013-02-11 15:04:00,18.8,13.7,30.46,SE,138,3.0,7.0,80,0.00,,SKC,0.00,VWS V14.01,2013-02-11 22:04:00,
2013-02-11 15:05:00,18.7,13.6,30.46,SE,137,6.0,6.0,80,0.00,,SKC,0.00,VWS V14.01,2013-02-11 22:05:00,
2013-02-11 15:06:00,18.6,13.5,30.46,SE,142,4.0,7.0,80,0.00,,SKC,0.00,VWS V14.01,2013-02-11 22:06:00,
2013-02-11 15:07:00,18.6,13.2,30.46,SE,142,4.0,5.0,79,0.00,,SKC,0.00,VWS V14.01,2013-02-11 22:07:00,
2013-02-11 15:08:00,18.5,13.4,30.46,SE,144,3.0,6.0,80,0.00,,SKC,0.00,VWS V14.01,2013-02-11 22:08:00,
2013-02-11 15:09:00,18.4,13.3,30.46,SE,142,2.0,4.0,80,0.00,,SKC,0.00,VWS V14.01,2013-02-11 22:09:00,
2013-02-11 15:10:00,18.4,13.3,30.46,SE,140,6.0,6.0,80,0.00,,SKC,0.00,VWS V14.01,2013-02-11 22:10:00,
2013-02-11 15:11:00,18.4,13.3,30.46,SE,134,2.0,6.0,80,0.00,,SKC,0.00,VWS V14.01,2013-02-11 22:11:00,
2013-02-11 15:12:00,18.3,13.2,30.46,SE,142,4.0,4.0,80,0.00,,SKC,0.00,VWS V14.01,2013-02-11 22:12:00,
2013-02-11 15:13:00,18.3,13.2,30.47,SE,132,5.0,5.0,80,0.00,,SKC,0.00,VWS V14.01,2013-02-11 22:13:00,
2013-02-11 15:14:00,18.3,13.2,30.47,SE,140,4.0,5.0,80,0.00,,SKC,0.00,VWS V14.01,2013-02-11 22:14:00,
2013-02-11 15:15:00,18.3,13.2,30.47,SE,144,4.0,4.0,80,0.00,,SKC,0.00,VWS V14.01,2013-02-11 22:15:00,
2013-02-11 15:16:00,18.3,13.2,30.47,SE,140,4.0,5.0,80,0.00,,SKC,0.00,VWS V14.01,2013-02-11 22:16:00,
2013-02-11 15:17:00,18.3,13.5,30.47,SE,139,2.0,4.0,81,0.00,,SKC,0.00,VWS V14.01,2013-02-11 22:17:00,
2013-02-11 15:18:00,18.4,13.6,30.47,SE,138,2.0,5.0,81,0.00,,SKC,0.00,VWS V14.01,2013-02-11 22:18:00,
2013-02-11 15:19:00,18.4,13.6,30.47,SE,140,2.0,3.0,81,0.00,,SKC,0.00,VWS V14.01,2013-02-11 22:19:00,
2013-02-11 15:20:00,18.4,13.6,30.47,SE,139,4.0,4.0,81,0.00,,SKC,0.00,VWS V14.01,2013-02-11 22:20:00,
2013-02-11 15:21:00,18.5,13.4,30.47,SE,137,4.0,5.0,80,0.00,,SKC,0.00,VWS V14.01,2013-02-11 22:21:00,
2013-02-11 15:22:00,18.5,13.4,30.47,SE,137,4.0,4.0,80,0.00,,SKC,0.00,VWS V14.01,2013-02-11 22:22:00,
2013-02-11 15:23:00,18.4,13.3,30.47,SE,144,3.0,5.0,80,0.00,,SKC,0.00,VWS V14.01,2013-02-11 22:23:00,
2013-02-11 15:24:00,18.5,13.4,30.47,SE,140,4.0,4.0,80,0.00,,SKC,0.00,VWS V14.01,2013-02-11 22:24:00,
2013-02-11 15:25:00,18.5,13.4,30.46,SE,138,4.0,5.0,80,0.00,,SKC,0.00,VWS V14.01,2013-02-11 22:25:00,
2013-02-11 15:26:00,18.5,13.4,30.47,SE,143,1.0,4.0,80,0.00,,SKC,0.00,VWS V14.01,2013-02-11 22:26:00,
2013-02-11 15:27:00,18.5,13.4,30.47,SE,141,2.0,3.0,80,0.00,,SKC,0.00,VWS V14.01,2013-02-11 22:27:00,
2013-02-11 15:28:00,18.5,13.4,30.47,SE,143,2.0,3.0,80,0.00,,SKC,0.00,VWS V14.01,2013-02-11 22:28:00,
2013-02-11 15:29:00,18.5,13.1,30.47,SE,138,1.0,3.0,79,0.00,,SKC,0.00,VWS V14.01,2013-02-11 22:29:00,
2013-02-11 15:30:00,18.5,13.1,30.46,SE,141,3.0,4.0,79,0.00,,SKC,0.00,VWS V14.01,2013-02-11 22:30:00,
2013-02-11 15:31:00,18.5,13.4,30.47,SE,136,3.0,4.0,80,0.00,,SKC,0.00,VWS V14.01,2013-02-11 22:31:00,
2013-02-11 15:32:00,18.6,13.8,30.47,SE,138,5.0,6.0,81,0.00,,SKC,0.00,VWS V14.01,2013-02-11 22:32:00,
2013-02-11 15:33:00,18.6,13.5,30.47,SE,133,4.0,5.0,80,0.00,,SKC,0.00,VWS V14.01,2013-02-11 22:33:00,
2013-02-11 15:34:00,18.7,13.6,30.47,SE,136,3.0,5.0,80,0.00,,SKC,0.00,VWS V14.01,2013-02-11 22:34:00,
2013-02-11 15:35:00,18.7,13.6,30.47,SE,139,3.0,5.0,80,0.00,,SKC,0.00,VWS V14.01,2013-02-11 22:35:00,
2013-02-11 15:36:00,18.8,13.9,30.47,SE,136,4.0,6.0,81,0.00,,SKC,0.00,VWS V14.01,2013-02-11 22:36:00,
2013-02-11 15:37:00,18.9,14.1,30.47,SE,144,4.0,5.0,81,0.00,,SKC,0.00,VWS V14.01,2013-02-11 22:37:00,
2013-02-11 15:38:00,18.9,14.1,30.47,SE,137,3.0,4.0,81,0.00,,SKC,0.00,VWS V14.01,2013-02-11 22:38:00,
2013-02-11 15:39:00,19.0,14.1,30.47,SE,138,3.0,3.0,81,0.00,,SKC,0.00,VWS V14.01,2013-02-11 22:39:00,
2013-02-11 15:40:00,19.1,14.2,30.47,SE,138,2.0,3.0,81,0.00,,SKC,0.00,VWS V14.01,2013-02-11 22:40:00,
2013-02-11 15:41:00,19.1,14.2,30.47,SE,135,4.0,5.0,81,0.00,,SKC,0.00,VWS V14.01,2013-02-11 22:41:00,
2013-02-11 15:42:00,19.2,14.3,30.47,SE,135,6.0,6.0,81,0.00,,SKC,0.00,VWS V14.01,2013-02-11 22:42:00,
2013-02-11 15:43:00,19.3,14.4,30.47,SE,136,3.0,6.0,81,0.00,,SKC,0.00,VWS V14.01,2013-02-11 22:43:00,
2013-02-11 15:44:00,19.3,14.4,30.47,SE,138,6.0,6.0,81,0.00,,SKC,0.00,VWS V14.01,2013-02-11 22:44:00,
2013-02-11 15:45:00,19.4,14.2,30.47,SE,135,2.0,7.0,80,0.00,,SKC,0.00,VWS V14.01,2013-02-11 22:45:00,
2013-02-11 15:46:00,19.5,14.4,30.47,SE,131,2.0,5.0,80,0.00,,SKC,0.00,VWS V14.01,2013-02-11 22:46:00,
2013-02-11 15:47:00,19.5,14.4,30.47,SE,136,3.0,4.0,80,0.00,,SKC,0.00,VWS V14.01,2013-02-11 22:47:00,
2013-02-11 15:48:00,19.6,14.4,30.47,SE,131,3.0,4.0,80,0.00,,SKC,0.00,VWS V14.01,2013-02-11 22:48:00,
2013-02-11 15:49:00,19.6,14.4,30.47,SE,128,2.0,3.0,80,0.00,,SKC,0.00,VWS V14.01,2013-02-11 22:49:00,
2013-02-11 15:50:00,19.7,14.5,30.47,SE,136,1.0,2.0,80,0.00,,SKC,0.00,VWS V14.01,2013-02-11 22:50:00,
2013-02-11 15:51:00,19.7,14.5,30.47,SE,130,4.0,4.0,80,0.00,,SKC,0.00,VWS V14.01,2013-02-11 22:51:00,
2013-02-11 15:52:00,19.7,14.5,30.47,SE,133,2.0,5.0,80,0.00,,SKC,0.00,VWS V14.01,2013-02-11 22:52:00,
2013-02-11 15:53:00,19.7,14.5,30.47,SE,132,3.0,4.0,80,0.00,,SKC,0.00,VWS V14.01,2013-02-11 22:53:00,
2013-02-11 15:54:00,19.7,14.5,30.47,SE,136,2.0,5.0,80,0.00,,SKC,0.00,VWS V14.01,2013-02-11 22:54:00,
2013-02-11 15:56:00,19.7,14.5,30.47,SE,128,3.0,5.0,80,0.00,,SKC,0.00,VWS V14.01,2013-02-11 22:56:00,
2013-02-11 15:57:00,19.7,14.5,30.47,SE,132,2.0,4.0,80,0.00,,SKC,0.00,VWS V14.01,2013-02-11 22:57:00,
2013-02-11 15:58:00,19.7,14.5,30.47,SE,134,2.0,3.0,80,0.00,,SKC,0.00,VWS V14.01,2013-02-11 22:58:00,
2013-02-11 15:59:00,19.8,14.6,30.47,SE,132,6.0,6.0,80,0.00,,SKC,0.00,VWS V14.01,2013-02-11 22:59:00,
2013-02-11 16:00:00,19.7,14.3,30.47,SE,134,3.0,7.0,79,0.00,,SKC,0.00,VWS V14.01,2013-02-11 23:00:00,
2013-02-11 16:01:00,19.7,14.0,30.47,SE,134,4.0,5.0,78,0.00,,SKC,0.00,VWS V14.01,2013-02-11 23:01:00,
2013-02-11 16:02:00,19.7,14.0,30.47,SE,134,3.0,5.0,78,0.00,,SKC,0.00,VWS V14.01,2013-02-11 23:02:00,
2013-02-11 16:03:00,19.7,14.3,30.47,SE,130,1.0,6.0,79,0.00,,SKC,0.00,VWS V14.01,2013-02-11 23:03:00,
2013-02-11 16:04:00,19.7,14.3,30.47,SE,128,3.0,4.0,79,0.00,,SKC,0.00,VWS V14.01,2013-02-11 23:04:00,
2013-02-11 16:05:00,19.7,14.3,30.47,SE,127,2.0,4.0,79,0.00,,SKC,0.00,VWS V14.01,2013-02-11 23:05:00,
2013-02-11 16:06:00,19.7,14.3,30.47,SE,124,2.0,3.0,79,0.00,,SKC,0.00,VWS V14.01,2013-02-11 23:06:00,
2013-02-11 16:07:00,19.7,14.3,30.47,SE,126,3.0,4.0,79,0.00,,SKC,0.00,VWS V14.01,2013-02-11 23:07:00,
2013-02-11 16:08:00,19.7,14.3,30.48,SE,128,3.0,3.0,79,0.00,,SKC,0.00,VWS V14.01,2013-02-11 23:08:00,
2013-02-11 16:09:00,19.7,14.3,30.48,SE,132,0.0,3.0,79,0.00,,SKC,0.00,VWS V14.01,2013-02-11 23:09:00,
2013-02-11 16:10:00,19.7,14.3,30.48,SE,128,1.0,1.0,79,0.00,,SKC,0.00,VWS V14.01,2013-02-11 23:10:00,
2013-02-11 16:11:00,19.6,14.2,30.48,SE,124,3.0,3.0,79,0.00,,SKC,0.00,VWS V14.01,2013-02-11 23:11:00,
2013-02-11 16:12:00,19.6,14.2,30.48,SE,128,2.0,4.0,79,0.00,,SKC,0.00,VWS V14.01,2013-02-11 23:12:00,
2013-02-11 16:13:00,19.6,14.2,30.48,SE,131,4.0,4.0,79,0.00,,SKC,0.00,VWS V14.01,2013-02-11 23:13:00,
2013-02-11 16:14:00,19.6,14.2,30.48,SE,131,4.0,4.0,79,0.00,,SKC,0.00,VWS V14.01,2013-02-11 23:14:00,
2013-02-11 16:15:00,19.6,14.2,30.48,SE,126,2.0,4.0,79,0.00,,SKC,0.00,VWS V14.01,2013-02-11 23:15:00,
2013-02-11 16:16:00,19.5,14.1,30.48,SE,125,3.0,4.0,79,0.00,,SKC,0.00,VWS V14.01,2013-02-11 23:16:00,
2013-02-11 16:17:00,19.5,14.1,30.48,SE,127,1.0,4.0,79,0.00,,SKC,0.00,VWS V14.01,2013-02-11 23:17:00,
2013-02-11 16:18:00,19.5,14.1,30.48,SE,125,3.0,3.0,79,0.00,,SKC,0.00,VWS V14.01,2013-02-11 23:18:00,
2013-02-11 16:19:00,19.4,13.7,30.48,SE,128,3.0,3.0,78,0.00,,SKC,0.00,VWS V14.01,2013-02-11 23:19:00,
2013-02-11 16:20:00,19.4,13.7,30.48,SE,128,3.0,3.0,78,0.00,,SKC,0.00,VWS V14.01,2013-02-11 23:20:00,
2013-02-11 16:21:00,19.3,13.6,30.48,SE,126,2.0,3.0,78,0.00,,SKC,0.00,VWS V14.01,2013-02-11 23:21:00,
2013-02-11 16:22:00,19.2,13.5,30.48,North,360,2.0,2.0,78,0.00,,SKC,0.00,VWS V14.01,2013-02-11 23:22:00,
2013-02-11 16:23:00,19.1,13.4,30.48,SE,130,1.0,2.0,78,0.00,,SKC,0.00,VWS V14.01,2013-02-11 23:23:00,
2013-02-11 16:24:00,19.0,13.3,30.48,SE,128,3.0,3.0,78,0.00,,SKC,0.00,VWS V14.01,2013-02-11 23:24:00,
2013-02-11 16:25:00,19.0,13.3,30.48,SE,128,3.0,3.0,78,0.00,,SKC,0.00,VWS V14.01,2013-02-11 23:25:00,
2013-02-11 16:26:00,19.0,13.6,30.48,SE,126,1.0,3.0,79,0.00,,SKC,0.00,VWS V14.01,2013-02-11 23:26:00,
2013-02-11 16:27:00,19.0,13.6,30.48,North,360,4.0,4.0,79,0.00,,SKC,0.00,VWS V14.01,2013-02-11 23:27:00,
2013-02-11 16:28:00,19.0,13.6,30.48,North,360,1.0,4.0,79,0.00,,SKC,0.00,VWS V14.01,2013-02-11 23:28:00,
2013-02-11 16:29:00,19.0,13.9,30.48,SE,129,2.0,3.0,80,0.00,,SKC,0.00,VWS V14.01,2013-02-11 23:29:00,
2013-02-11 16:30:00,19.0,13.9,30.48,SE,128,1.0,2.0,80,0.00,,SKC,0.00,VWS V14.01,2013-02-11 23:30:00,
2013-02-11 16:31:00,19.0,13.9,30.48,SE,128,1.0,2.0,80,0.00,,SKC,0.00,VWS V14.01,2013-02-11 23:31:00,
2013-02-11 16:32:00,19.0,13.9,30.48,SE,130,2.0,2.0,80,0.00,,SKC,0.00,VWS V14.01,2013-02-11 23:32:00,
2013-02-11 16:33:00,19.1,14.0,30.48,SE,126,2.0,3.0,80,0.00,,SKC,0.00,VWS V14.01,2013-02-11 23:33:00,
2013-02-11 16:34:00,19.1,14.0,30.48,SE,125,0.0,3.0,80,0.00,,SKC,0.00,VWS V14.01,2013-02-11 23:34:00,
2013-02-11 16:35:00,19.1,14.0,30.48,ESE,123,2.0,3.0,80,0.00,,SKC,0.00,VWS V14.01,2013-02-11 23:35:00,
2013-02-11 16:36:00,19.1,14.0,30.48,ESE,123,2.0,3.0,80,0.00,,SKC,0.00,VWS V14.01,2013-02-11 23:36:00,
2013-02-11 16:37:00,19.0,13.6,30.49,SE,129,3.0,3.0,79,0.00,,SKC,0.00,VWS V14.01,2013-02-11 23:37:00,
2013-02-11 16:38:00,18.9,13.5,30.48,SE,130,3.0,4.0,79,0.00,,SKC,0.00,VWS V14.01,2013-02-11 23:38:00,
2013-02-11 16:39:00,18.9,13.5,30.49,SE,126,2.0,3.0,79,0.00,,SKC,0.00,VWS V14.01,2013-02-11 23:39:00,
2013-02-11 16:40:00,18.8,13.1,30.48,SE,130,4.0,4.0,78,0.00,,SKC,0.00,VWS V14.01,2013-02-11 23:40:00,
2013-02-11 16:41:00,18.7,13.3,30.48,ESE,123,4.0,4.0,79,0.00,,SKC,0.00,VWS V14.01,2013-02-11 23:41:00,
2013-02-11 16:42:00,18.6,13.2,30.48,North,360,3.0,5.0,79,0.00,,SKC,0.00,VWS V14.01,2013-02-11 23:42:00,
2013-02-11 16:44:00,18.5,13.1,30.49,SE,129,2.0,4.0,79,0.00,,SKC,0.00,VWS V14.01,2013-02-11 23:44:00,
2013-02-11 16:45:00,18.4,13.0,30.48,North,360,4.0,5.0,79,0.00,,SKC,0.00,VWS V14.01,2013-02-11 23:45:00,
2013-02-11 16:46:00,18.3,12.9,30.49,SE,128,3.0,4.0,79,0.00,,SKC,0.00,VWS V14.01,2013-02-11 23:46:00,
2013-02-11 16:47:00,18.3,13.2,30.49,SE,127,3.0,5.0,80,0.00,,SKC,0.00,VWS V14.01,2013-02-11 23:47:00,
2013-02-11 16:48:00,18.3,13.2,30.49,SE,127,3.0,4.0,80,0.00,,SKC,0.00,VWS V14.01,2013-02-11 23:48:00,
2013-02-11 16:49:00,18.2,13.1,30.49,SE,129,1.0,4.0,80,0.00,,SKC,0.00,VWS V14.01,2013-02-11 23:49:00,
2013-02-11 16:50:00,18.2,13.1,30.49,SE,132,1.0,2.0,80,0.00,,SKC,0.00,VWS V14.01,2013-02-11 23:50:00,
2013-02-11 16:51:00,18.2,13.1,30.49,ESE,123,1.0,3.0,80,0.00,,SKC,0.00,VWS V14.01,2013-02-11 23:51:00,
2013-02-11 16:52:00,18.2,13.1,30.49,SE,127,3.0,3.0,80,0.00,,SKC,0.00,VWS V14.01,2013-02-11 23:52:00,
2013-02-11 16:53:00,18.2,13.1,30.49,SE,129,4.0,4.0,80,0.00,,SKC,0.00,VWS V14.01,2013-02-11 23:53:00,
2013-02-11 16:54:00,18.3,13.2,30.49,SE,125,2.0,4.0,80,0.00,,SKC,0.00,VWS V14.01,2013-02-11 23:54:00,
2013-02-11 16:55:00,18.2,13.1,30.49,SE,134,2.0,2.0,80,0.00,,SKC,0.00,VWS V14.01,2013-02-11 23:55:00,
2013-02-11 16:56:00,18.2,13.1,30.49,SE,127,3.0,4.0,80,0.00,,SKC,0.00,VWS V14.01,2013-02-11 23:56:00,
2013-02-11 16:57:00,18.2,13.1,30.49,SE,131,0.0,3.0,80,0.00,,SKC,0.00,VWS V14.01,2013-02-11 23:57:00,
2013-02-11 16:58:00,18.2,13.1,30.49,SE,129,1.0,2.0,80,0.00,,SKC,0.00,VWS V14.01,2013-02-11 23:58:00,
2013-02-11 16:59:00,18.2,13.1,30.48,SE,131,1.0,3.0,80,0.00,,SKC,0.00,VWS V14.01,2013-02-11 23:59:00,
2013-02-11 17:00:00,18.1,13.0,30.49,SE,136,2.0,2.0,80,0.00,,SKC,0.00,VWS V14.01,2013-02-12 00:00:00,
2013-02-11 17:01:00,18.1,13.0,30.49,SE,129,2.0,2.0,80,0.00,,SKC,0.00,VWS V14.01,2013-02-12 00:01:00,
2013-02-11 17:02:00,18.1,13.0,30.49,SE,131,1.0,3.0,80,0.00,,SKC,0.00,VWS V14.01,2013-02-12 00:02:00,
2013-02-11 17:03:00,18.1,13.0,30.49,ESE,123,2.0,2.0,80,0.00,,SKC,0.00,VWS V14.01,2013-02-12 00:03:00,
2013-02-11 17:04:00,18.0,12.9,30.49,SE,126,1.0,2.0,80,0.00,,SKC,0.00,VWS V14.01,2013-02-12 00:04:00,
2013-02-11 17:05:00,18.0,12.9,30.49,SE,126,2.0,3.0,80,0.00,,SKC,0.00,VWS V14.01,2013-02-12 00:05:00,
2013-02-11 17:06:00,18.0,13.2,30.49,SE,127,1.0,2.0,81,0.00,,SKC,0.00,VWS V14.01,2013-02-12 00:06:00,
2013-02-11 17:07:00,18.0,13.2,30.49,SE,130,2.0,2.0,81,0.00,,SKC,0.00,VWS V14.01,2013-02-12 00:07:00,
2013-02-11 17:08:00,18.0,12.9,30.49,SE,127,1.0,3.0,80,0.00,,SKC,0.00,VWS V14.01,2013-02-12 00:08:00,
2013-02-11 17:09:00,18.0,12.9,30.49,SE,128,1.0,1.0,80,0.00,,SKC,0.00,VWS V14.01,2013-02-12 00:09:00,
2013-02-11 17:10:00,18.0,12.9,30.49,SE,126,0.0,2.0,80,0.00,,SKC,0.00,VWS V14.01,2013-02-12 00:10:00,
2013-02-11 17:11:00,17.9,12.8,30.49,SE,133,0.0,1.0,80,0.00,,SKC,0.00,VWS V14.01,2013-02-12 00:11:00,
2013-02-11 17:12:00,17.9,12.8,30.49,SE,124,0.0,1.0,80,0.00,,SKC,0.00,VWS V14.01,2013-02-12 00:12:00,
2013-02-11 17:13:00,17.9,12.8,30.49,SE,127,1.0,2.0,80,0.00,,SKC,0.00,VWS V14.01,2013-02-12 00:13:00,
2013-02-11 17:14:00,17.9,12.8,30.49,SE,130,1.0,1.0,80,0.00,,SKC,0.00,VWS V14.01,2013-02-12 00:14:00,
2013-02-11 17:15:00,17.9,12.8,30.49,SE,127,1.0,2.0,80,0.00,,SKC,0.00,VWS V14.01,2013-02-12 00:15:00,
2013-02-11 17:16:00,17.8,12.7,30.49,SE,126,3.0,4.0,80,0.00,,SKC,0.00,VWS V14.01,2013-02-12 00:16:00,
2013-02-11 17:17:00,17.8,12.7,30.49,SE,128,2.0,3.0,80,0.00,,SKC,0.00,VWS V14.01,2013-02-12 00:17:00,
2013-02-11 17:18:00,17.7,12.6,30.49,SE,132,1.0,2.0,80,0.00,,SKC,0.00,VWS V14.01,2013-02-12 00:18:00,
2013-02-11 17:19:00,17.7,12.6,30.49,SE,128,2.0,2.0,80,0.00,,SKC,0.00,VWS V14.01,2013-02-12 00:19:00,
2013-02-11 17:20:00,17.6,12.5,30.49,SE,128,0.0,3.0,80,0.00,,SKC,0.00,VWS V14.01,2013-02-12 00:20:00,
2013-02-11 17:21:00,17.6,12.5,30.50,SE,127,1.0,2.0,80,0.00,,SKC,0.00,VWS V14.01,2013-02-12 00:21:00,
2013-02-11 17:22:00,17.6,12.5,30.50,SE,132,2.0,2.0,80,0.00,,SKC,0.00,VWS V14.01,2013-02-12 00:22:00,
2013-02-11 17:23:00,17.5,12.4,30.50,SE,130,1.0,2.0,80,0.00,,SKC,0.00,VWS V14.01,2013-02-12 00:23:00,
2013-02-11 17:24:00,17.5,12.7,30.50,SE,129,1.0,2.0,81,0.00,,SKC,0.00,VWS V14.01,2013-02-12 00:24:00,
2013-02-11 17:25:00,17.5,12.7,30.50,ESE,122,0.0,1.0,81,0.00,,SKC,0.00,VWS V14.01,2013-02-12 00:25:00,
2013-02-11 17:26:00,17.4,12.6,30.50,SE,126,0.0,0.0,81,0.00,,SKC,0.00,VWS V14.01,2013-02-12 00:26:00,
2013-02-11 17:27:00,17.4,12.6,30.50,SE,136,0.0,1.0,81,0.00,,SKC,0.00,VWS V14.01,2013-02-12 00:27:00,
2013-02-11 17:28:00,17.3,12.5,30.50,SE,130,1.0,1.0,81,0.00,,SKC,0.00,VWS V14.01,2013-02-12 00:28:00,
2013-02-11 17:29:00,17.3,12.5,30.50,SE,125,1.0,3.0,81,0.00,,SKC,0.00,VWS V14.01,2013-02-12 00:29:00,
2013-02-11 17:30:00,17.3,12.5,30.50,SE,125,1.0,3.0,81,0.00,,SKC,0.00,VWS V14.01,2013-02-12 00:30:00,
2013-02-11 17:31:00,17.2,12.4,30.50,SE,130,1.0,4.0,81,0.00,,SKC,0.00,VWS V14.01,2013-02-12 00:31:00,
2013-02-11 17:32:00,17.2,12.4,30.50,SE,128,2.0,2.0,81,0.00,,SKC,0.00,VWS V14.01,2013-02-12 00:32:00,
2013-02-11 17:33:00,17.1,12.3,30.50,SE,129,0.0,2.0,81,0.00,,SKC,0.00,VWS V14.01,2013-02-12 00:33:00,
2013-02-11 17:34:00,17.1,12.3,30.51,SE,130,0.0,0.0,81,0.00,,SKC,0.00,VWS V14.01,2013-02-12 00:34:00,
2013-02-11 17:35:00,17.1,12.3,30.51,SE,135,0.0,0.0,81,0.00,,SKC,0.00,VWS V14.01,2013-02-12 00:35:00,
2013-02-11 17:36:00,17.1,12.3,30.51,SE,128,0.0,0.0,81,0.00,,SKC,0.00,VWS V14.01,2013-02-12 00:36:00,
2013-02-11 17:37:00,17.0,12.2,30.51,SE,126,0.0,0.0,81,0.00,,SKC,0.00,VWS V14.01,2013-02-12 00:37:00,
2013-02-11 17:38:00,17.0,12.2,30.51,SE,132,0.0,0.0,81,0.00,,SKC,0.00,VWS V14.01,2013-02-12 00:38:00,
2013-02-11 17:39:00,17.0,12.5,30.51,SE,131,0.0,0.0,82,0.00,,SKC,0.00,VWS V14.01,2013-02-12 00:39:00,
2013-02-11 17:40:00,17.0,12.2,30.51,SE,130,0.0,0.0,81,0.00,,SKC,0.00,VWS V14.01,2013-02-12 00:40:00,
2013-02-11 17:41:00,17.0,12.2,30.51,ESE,123,1.0,1.0,81,0.00,,SKC,0.00,VWS V14.01,2013-02-12 00:41:00,
2013-02-11 17:42:00,16.9,12.4,30.51,ESE,121,0.0,1.0,82,0.00,,SKC,0.00,VWS V14.01,2013-02-12 00:42:00,
2013-02-11 17:43:00,16.9,12.4,30.51,SE,125,0.0,1.0,82,0.00,,SKC,0.00,VWS V14.01,2013-02-12 00:43:00,
2013-02-11 17:44:00,16.9,12.4,30.51,SE,135,1.0,1.0,82,0.00,,SKC,0.00,VWS V14.01,2013-02-12 00:44:00,
2013-02-11 17:45:00,16.8,12.3,30.51,SE,128,0.0,1.0,82,0.00,,SKC,0.00,VWS V14.01,2013-02-12 00:45:00,
2013-02-11 17:46:00,16.8,12.3,30.51,SE,124,0.0,1.0,82,0.00,,SKC,0.00,VWS V14.01,2013-02-12 00:46:00,
2013-02-11 17:47:00,16.8,12.3,30.51,SE,132,0.0,1.0,82,0.00,,SKC,0.00,VWS V14.01,2013-02-12 00:47:00,
2013-02-11 17:48:00,16.8,12.3,30.51,SE,127,0.0,1.0,82,0.00,,SKC,0.00,VWS V14.01,2013-02-12 00:48:00,
2013-02-11 17:49:00,16.7,12.2,30.51,SE,132,1.0,1.0,82,0.00,,SKC,0.00,VWS V14.01,2013-02-12 00:49:00,
2013-02-11 17:50:00,16.7,12.2,30.51,ESE,122,1.0,2.0,82,0.00,,SKC,0.00,VWS V14.01,2013-02-12 00:50:00,
2013-02-11 17:51:00,16.7,12.2,30.51,ESE,122,1.0,2.0,82,0.00,,SKC,0.00,VWS V14.01,2013-02-12 00:51:00,
2013-02-11 17:52:00,16.7,12.2,30.51,North,360,0.0,1.0,82,0.00,,SKC,0.00,VWS V14.01,2013-02-12 00:52:00,
2013-02-11 17:53:00,16.7,12.2,30.52,SE,124,0.0,0.0,82,0.00,,SKC,0.00,VWS V14.01,2013-02-12 00:53:00,
2013-02-11 17:54:00,16.6,12.1,30.51,SE,130,0.0,0.0,82,0.00,,SKC,0.00,VWS V14.01,2013-02-12 00:54:00,
2013-02-11 17:55:00,16.6,12.1,30.52,SE,129,0.0,0.0,82,0.00,,SKC,0.00,VWS V14.01,2013-02-12 00:55:00,
2013-02-11 17:56:00,16.6,12.1,30.52,SE,129,0.0,0.0,82,0.00,,SKC,0.00,VWS V14.01,2013-02-12 00:56:00,
2013-02-11 17:57:00,16.6,12.1,30.52,SE,128,0.0,0.0,82,0.00,,SKC,0.00,VWS V14.01,2013-02-12 00:57:00,
2013-02-11 17:58:00,16.5,12.0,30.52,SE,126,0.0,0.0,82,0.00,,SKC,0.00,VWS V14.01,2013-02-12 00:58:00,
2013-02-11 17:59:00,16.5,12.0,30.52,SE,124,0.0,0.0,82,0.00,,SKC,0.00,VWS V14.01,2013-02-12 00:59:00,
2013-02-11 18:00:00,16.5,12.0,30.52,SE,124,0.0,0.0,82,0.00,,SKC,0.00,VWS V14.01,2013-02-12 01:00:00,
2013-02-11 18:01:00,16.4,11.9,30.52,SE,128,0.0,0.0,82,0.00,,SKC,0.00,VWS V14.01,2013-02-12 01:01:00,
2013-02-11 18:02:00,16.4,11.9,30.52,SE,127,0.0,0.0,82,0.00,,SKC,0.00,VWS V14.01,2013-02-12 01:02:00,
2013-02-11 18:03:00,16.4,11.9,30.52,SE,128,0.0,0.0,82,0.00,,SKC,0.00,VWS V14.01,2013-02-12 01:03:00,
2013-02-11 18:04:00,16.3,11.8,30.52,SE,129,0.0,1.0,82,0.00,,SKC,0.00,VWS V14.01,2013-02-12 01:04:00,
2013-02-11 18:05:00,16.3,11.8,30.52,SE,128,0.0,1.0,82,0.00,,SKC,0.00,VWS V14.01,2013-02-12 01:05:00,
2013-02-11 18:06:00,16.2,12.0,30.52,SE,130,0.0,1.0,83,0.00,,SKC,0.00,VWS V14.01,2013-02-12 01:06:00,
2013-02-11 18:07:00,16.1,11.9,30.52,SE,126,0.0,0.0,83,0.00,,SKC,0.00,VWS V14.01,2013-02-12 01:07:00,
2013-02-11 18:08:00,16.1,11.9,30.52,SE,129,0.0,0.0,83,0.00,,SKC,0.00,VWS V14.01,2013-02-12 01:08:00,
2013-02-11 18:09:00,16.1,11.9,30.52,SE,128,0.0,0.0,83,0.00,,SKC,0.00,VWS V14.01,2013-02-12 01:09:00,
2013-02-11 18:10:00,16.0,11.8,30.52,SE,129,0.0,0.0,83,0.00,,SKC,0.00,VWS V14.01,2013-02-12 01:10:00,
2013-02-11 18:11:00,16.0,11.8,30.52,SE,129,0.0,0.0,83,0.00,,SKC,0.00,VWS V14.01,2013-02-12 01:11:00,
2013-02-11 18:12:00,15.9,11.7,30.52,SE,130,0.0,0.0,83,0.00,,SKC,0.00,VWS V14.01,2013-02-12 01:12:00,
2013-02-11 18:13:00,15.9,11.7,30.52,SE,128,0.0,0.0,83,0.00,,SKC,0.00,VWS V14.01,2013-02-12 01:13:00,
2013-02-11 18:14:00,15.9,11.7,30.52,SE,127,0.0,1.0,83,0.00,,SKC,0.00,VWS V14.01,2013-02-12 01:14:00,
2013-02-11 18:15:00,15.8,11.6,30.52,SE,127,0.0,0.0,83,0.00,,SKC,0.00,VWS V14.01,2013-02-12 01:15:00,
2013-02-11 18:16:00,15.8,11.6,30.52,SE,128,0.0,0.0,83,0.00,,SKC,0.00,VWS V14.01,2013-02-12 01:16:00,
2013-02-11 18:17:00,15.8,11.6,30.52,ESE,121,0.0,0.0,83,0.00,,SKC,0.00,VWS V14.01,2013-02-12 01:17:00,
2013-02-11 18:18:00,15.7,11.5,30.52,ESE,123,0.0,0.0,83,0.00,,SKC,0.00,VWS V14.01,2013-02-12 01:18:00,
2013-02-11 18:19:00,15.7,11.5,30.52,SE,126,0.0,0.0,83,0.00,,SKC,0.00,VWS V14.01,2013-02-12 01:19:00,
2013-02-11 18:20:00,15.6,11.4,30.52,SE,132,0.0,0.0,83,0.00,,SKC,0.00,VWS V14.01,2013-02-12 01:20:00,
2013-02-11 18:21:00,15.6,11.4,30.52,ESE,123,0.0,0.0,83,0.00,,SKC,0.00,VWS V14.01,2013-02-12 01:21:00,
2013-02-11 18:22:00,15.6,11.4,30.53,SE,129,0.0,0.0,83,0.00,,SKC,0.00,VWS V14.01,2013-02-12 01:22:00,
2013-02-11 18:23:00,15.5,11.5,30.53,SE,128,0.0,0.0,84,0.00,,SKC,0.00,VWS V14.01,2013-02-12 01:23:00,
2013-02-11 18:24:00,15.5,11.5,30.53,SE,128,0.0,0.0,84,0.00,,SKC,0.00,VWS V14.01,2013-02-12 01:24:00,
2013-02-11 18:25:00,15.5,11.5,30.53,SE,130,0.0,0.0,84,0.00,,SKC,0.00,VWS V14.01,2013-02-12 01:25:00,
2013-02-11 18:26:00,15.5,11.5,30.53,ESE,121,0.0,0.0,84,0.00,,SKC,0.00,VWS V14.01,2013-02-12 01:26:00,
2013-02-11 18:27:00,15.4,11.4,30.53,SE,129,0.0,0.0,84,0.00,,SKC,0.00,VWS V14.01,2013-02-12 01:27:00,
2013-02-11 18:28:00,15.4,11.4,30.53,SE,130,0.0,0.0,84,0.00,,SKC,0.00,VWS V14.01,2013-02-12 01:28:00,
2013-02-11 18:29:00,15.4,11.4,30.53,SE,130,0.0,0.0,84,0.00,,SKC,0.00,VWS V14.01,2013-02-12 01:29:00,
2013-02-11 18:30:00,15.3,11.1,30.53,SE,128,0.0,1.0,83,0.00,,SKC,0.00,VWS V14.01,2013-02-12 01:30:00,
2013-02-11 18:31:00,15.3,11.3,30.53,SE,128,0.0,0.0,84,0.00,,SKC,0.00,VWS V14.01,2013-02-12 01:31:00,
2013-02-11 18:32:00,15.3,11.3,30.53,SE,128,0.0,0.0,84,0.00,,SKC,0.00,VWS V14.01,2013-02-12 01:32:00,
2013-02-11 18:33:00,15.2,11.2,30.53,SE,126,0.0,0.0,84,0.00,,SKC,0.00,VWS V14.01,2013-02-12 01:33:00,
2013-02-11 18:34:00,15.2,11.2,30.54,SE,124,0.0,0.0,84,0.00,,SKC,0.00,VWS V14.01,2013-02-12 01:34:00,
2013-02-11 18:35:00,15.2,11.2,30.54,SE,129,0.0,0.0,84,0.00,,SKC,0.00,VWS V14.01,2013-02-12 01:35:00,
2013-02-11 18:36:00,15.1,11.1,30.54,SE,133,0.0,0.0,84,0.00,,SKC,0.00,VWS V14.01,2013-02-12 01:36:00,
2013-02-11 18:37:00,15.1,13.2,30.54,SE,125,0.0,0.0,92,0.00,,SKC,0.00,VWS V14.01,2013-02-12 01:37:00,
2013-02-11 18:38:00,15.0,11.1,30.54,SE,128,0.0,0.0,84,0.00,,SKC,0.00,VWS V14.01,2013-02-12 01:38:00,
2013-02-11 18:39:00,15.0,11.1,30.54,SE,130,0.0,0.0,84,0.00,,SKC,0.00,VWS V14.01,2013-02-12 01:39:00,
2013-02-11 18:40:00,15.0,11.1,30.54,SE,130,0.0,0.0,84,0.00,,SKC,0.00,VWS V14.01,2013-02-12 01:40:00,
2013-02-11 18:41:00,15.0,11.1,30.54,SE,128,0.0,0.0,84,0.00,,SKC,0.00,VWS V14.01,2013-02-12 01:41:00,
2013-02-11 18:42:00,14.9,10.9,30.54,SE,128,0.0,0.0,84,0.00,,SKC,0.00,VWS V14.01,2013-02-12 01:42:00,
2013-02-11 18:43:00,14.9,10.9,30.54,SE,128,0.0,0.0,84,0.00,,SKC,0.00,VWS V14.01,2013-02-12 01:43:00,
2013-02-11 18:44:00,14.8,10.9,30.54,SE,128,0.0,0.0,84,0.00,,SKC,0.00,VWS V14.01,2013-02-12 01:44:00,
2013-02-11 18:45:00,14.8,10.9,30.54,SE,126,0.0,0.0,84,0.00,,SKC,0.00,VWS V14.01,2013-02-12 01:45:00,
2013-02-11 18:46:00,14.7,10.8,30.54,SE,134,0.0,0.0,84,0.00,,SKC,0.00,VWS V14.01,2013-02-12 01:46:00,
2013-02-11 18:47:00,14.7,10.8,30.54,SE,127,0.0,0.0,84,0.00,,SKC,0.00,VWS V14.01,2013-02-12 01:47:00,
2013-02-11 18:48:00,14.7,10.8,30.54,SE,126,0.0,0.0,84,0.00,,SKC,0.00,VWS V14.01,2013-02-12 01:48:00,
2013-02-11 18:49:00,14.6,10.6,30.54,SE,128,0.0,0.0,84,0.00,,SKC,0.00,VWS V14.01,2013-02-12 01:49:00,
2013-02-11 18:50:00,14.6,10.6,30.55,SE,128,0.0,0.0,84,0.00,,SKC,0.00,VWS V14.01,2013-02-12 01:50:00,
2013-02-11 18:51:00,14.6,10.7,30.55,SE,128,0.0,0.0,84,0.00,,SKC,0.00,VWS V14.01,2013-02-12 01:51:00,
2013-02-11 18:52:00,14.5,10.6,30.55,SE,130,0.0,0.0,84,0.00,,SKC,0.00,VWS V14.01,2013-02-12 01:52:00,
2013-02-11 18:53:00,14.5,10.6,30.55,SE,126,0.0,0.0,84,0.00,,SKC,0.00,VWS V14.01,2013-02-12 01:53:00,
2013-02-11 18:54:00,14.5,10.6,30.55,SE,128,0.0,0.0,84,0.00,,SKC,0.00,VWS V14.01,2013-02-12 01:54:00,
2013-02-11 18:55:00,14.4,10.5,30.55,SE,126,0.0,0.0,84,0.00,,SKC,0.00,VWS V14.01,2013-02-12 01:55:00,
2013-02-11 18:56:00,14.4,10.5,30.55,SE,127,0.0,0.0,84,0.00,,SKC,0.00,VWS V14.01,2013-02-12 01:56:00,
2013-02-11 18:57:00,14.4,10.5,30.55,SE,127,0.0,0.0,84,0.00,,SKC,0.00,VWS V14.01,2013-02-12 01:57:00,
2013-02-11 18:58:00,14.3,10.4,30.55,SE,127,0.0,0.0,84,0.00,,SKC,0.00,VWS V14.01,2013-02-12 01:58:00,
2013-02-11 18:59:00,14.3,10.4,30.55,SE,130,0.0,0.0,84,0.00,,SKC,0.00,VWS V14.01,2013-02-12 01:59:00,
2013-02-11 19:00:00,14.3,10.4,30.55,SE,126,0.0,0.0,84,0.00,,SKC,0.00,VWS V14.01,2013-02-12 02:00:00,
2013-02-11 19:01:00,14.2,10.3,30.55,SE,128,0.0,0.0,84,0.00,,SKC,0.00,VWS V14.01,2013-02-12 02:01:00,
2013-02-11 19:02:00,14.2,10.3,30.55,SE,127,0.0,0.0,84,0.00,,SKC,0.00,VWS V14.01,2013-02-12 02:02:00,
2013-02-11 19:03:00,14.1,10.2,30.55,SE,126,0.0,0.0,84,0.00,,SKC,0.00,VWS V14.01,2013-02-12 02:03:00,
2013-02-11 19:04:00,14.1,10.2,30.55,SE,126,0.0,0.0,84,0.00,,SKC,0.00,VWS V14.01,2013-02-12 02:04:00,
2013-02-11 19:05:00,14.1,10.2,30.55,SE,126,0.0,0.0,84,0.00,,SKC,0.00,VWS V14.01,2013-02-12 02:05:00,
2013-02-11 19:06:00,14.0,10.1,30.55,SE,126,0.0,0.0,84,0.00,,SKC,0.00,VWS V14.01,2013-02-12 02:06:00,
2013-02-11 19:07:00,14.0,10.1,30.55,SE,126,0.0,0.0,84,0.00,,SKC,0.00,VWS V14.01,2013-02-12 02:07:00,
2013-02-11 19:08:00,13.9,10.0,30.55,SE,133,0.0,0.0,84,0.00,,SKC,0.00,VWS V14.01,2013-02-12 02:08:00,
2013-02-11 19:09:00,13.8,9.9,30.55,SE,131,0.0,0.0,84,0.00,,SKC,0.00,VWS V14.01,2013-02-12 02:09:00,
2013-02-11 19:10:00,13.7,9.8,30.55,SE,135,0.0,0.0,84,0.00,,SKC,0.00,VWS V14.01,2013-02-12 02:10:00,
2013-02-11 19:11:00,13.7,9.8,30.55,SE,128,0.0,0.0,84,0.00,,SKC,0.00,VWS V14.01,2013-02-12 02:11:00,
2013-02-11 19:12:00,13.6,9.7,30.55,SE,129,0.0,0.0,84,0.00,,SKC,0.00,VWS V14.01,2013-02-12 02:12:00,
2013-02-11 19:13:00,13.6,9.9,30.55,SE,132,0.0,0.0,85,0.00,,SKC,0.00,VWS V14.01,2013-02-12 02:13:00,
2013-02-11 19:14:00,13.6,9.9,30.55,SE,127,0.0,0.0,85,0.00,,SKC,0.00,VWS V14.01,2013-02-12 02:14:00,
2013-02-11 19:15:00,13.6,9.9,30.55,SE,129,0.0,0.0,85,0.00,,SKC,0.00,VWS V14.01,2013-02-12 02:15:00,
2013-02-11 19:16:00,13.6,10.2,30.55,SE,132,0.0,0.0,86,0.00,,SKC,0.00,VWS V14.01,2013-02-12 02:16:00,
2013-02-11 19:17:00,13.6,10.2,30.55,SE,128,0.0,0.0,86,0.00,,SKC,0.00,VWS V14.01,2013-02-12 02:17:00,
2013-02-11 19:18:00,13.7,10.3,30.55,SE,124,0.0,0.0,86,0.00,,SKC,0.00,VWS V14.01,2013-02-12 02:18:00,
2013-02-11 19:19:00,13.7,10.3,30.55,SE,130,0.0,0.0,86,0.00,,SKC,0.00,VWS V14.01,2013-02-12 02:19:00,
2013-02-11 19:20:00,13.7,10.3,30.55,SE,126,0.0,0.0,86,0.00,,SKC,0.00,VWS V14.01,2013-02-12 02:20:00,
2013-02-11 19:21:00,13.7,10.0,30.55,SE,132,0.0,0.0,85,0.00,,SKC,0.00,VWS V14.01,2013-02-12 02:21:00,
2013-02-11 19:22:00,13.6,9.9,30.55,SE,131,0.0,0.0,85,0.00,,SKC,0.00,VWS V14.01,2013-02-12 02:22:00,
2013-02-11 19:23:00,13.6,10.2,30.55,SE,130,0.0,0.0,86,0.00,,SKC,0.00,VWS V14.01,2013-02-12 02:23:00,
2013-02-11 19:24:00,13.7,10.3,30.55,SE,130,0.0,0.0,86,0.00,,SKC,0.00,VWS V14.01,2013-02-12 02:24:00,
2013-02-11 19:25:00,13.7,10.3,30.55,SE,130,0.0,0.0,86,0.00,,SKC,0.00,VWS V14.01,2013-02-12 02:25:00,
2013-02-11 19:26:00,13.8,10.4,30.55,SE,127,0.0,0.0,86,0.00,,SKC,0.00,VWS V14.01,2013-02-12 02:26:00,
2013-02-11 19:27:00,13.8,10.4,30.56,SE,130,0.0,0.0,86,0.00,,SKC,0.00,VWS V14.01,2013-02-12 02:27:00,
2013-02-11 19:28:00,13.7,10.0,30.56,SE,130,0.0,0.0,85,0.00,,SKC,0.00,VWS V14.01,2013-02-12 02:28:00,
2013-02-11 19:29:00,13.7,10.0,30.56,SE,137,0.0,0.0,85,0.00,,SKC,0.00,VWS V14.01,2013-02-12 02:29:00,
2013-02-11 19:30:00,13.6,9.9,30.56,SE,133,0.0,0.0,85,0.00,,SKC,0.00,VWS V14.01,2013-02-12 02:30:00,
2013-02-11 19:31:00,13.6,9.9,30.55,SE,126,0.0,0.0,85,0.00,,SKC,0.00,VWS V14.01,2013-02-12 02:31:00,
2013-02-11 19:32:00,13.5,9.8,30.56,North,360,0.0,0.0,85,0.00,,SKC,0.00,VWS V14.01,2013-02-12 02:32:00,
2013-02-11 19:33:00,13.5,9.8,30.56,North,360,0.0,0.0,85,0.00,,SKC,0.00,VWS V14.01,2013-02-12 02:33:00,
2013-02-11 19:34:00,13.4,9.7,30.56,ESE,123,0.0,0.0,85,0.00,,SKC,0.00,VWS V14.01,2013-02-12 02:34:00,
2013-02-11 19:36:00,13.3,9.6,30.56,SE,128,0.0,0.0,85,0.00,,SKC,0.00,VWS V14.01,2013-02-12 02:36:00,
2013-02-11 19:37:00,13.3,9.6,30.56,SE,132,0.0,0.0,85,0.00,,SKC,0.00,VWS V14.01,2013-02-12 02:37:00,
2013-02-11 19:38:00,13.2,9.6,30.56,SE,129,0.0,0.0,85,0.00,,SKC,0.00,VWS V14.01,2013-02-12 02:38:00,
2013-02-11 19:39:00,13.1,9.4,30.56,SE,130,0.0,0.0,85,0.00,,SKC,0.00,VWS V14.01,2013-02-12 02:39:00,
2013-02-11 19:40:00,13.1,9.4,30.56,SE,126,0.0,0.0,85,0.00,,SKC,0.00,VWS V14.01,2013-02-12 02:40:00,
2013-02-11 19:41:00,13.1,9.4,30.56,ESE,123,0.0,0.0,85,0.00,,SKC,0.00,VWS V14.01,2013-02-12 02:41:00,
2013-02-11 19:42:00,13.0,9.4,30.56,SE,130,0.0,0.0,85,0.00,,SKC,0.00,VWS V14.01,2013-02-12 02:42:00,
2013-02-11 19:43:00,13.0,9.4,30.55,SE,125,0.0,0.0,85,0.00,,SKC,0.00,VWS V14.01,2013-02-12 02:43:00,
2013-02-11 19:44:00,13.0,9.4,30.55,SE,125,0.0,0.0,85,0.00,,SKC,0.00,VWS V14.01,2013-02-12 02:44:00,
2013-02-11 19:45:00,12.9,9.2,30.55,SE,125,0.0,0.0,85,0.00,,SKC,0.00,VWS V14.01,2013-02-12 02:45:00,
2013-02-11 19:46:00,12.9,9.2,30.56,SE,132,0.0,0.0,85,0.00,,SKC,0.00,VWS V14.01,2013-02-12 02:46:00,
2013-02-11 19:47:00,12.8,8.9,30.56,SE,132,0.0,0.0,84,0.00,,SKC,0.00,VWS V14.01,2013-02-12 02:47:00,
2013-02-11 19:48:00,12.7,8.8,30.56,SE,128,2.0,2.0,84,0.00,,SKC,0.00,VWS V14.01,2013-02-12 02:48:00,
2013-02-11 19:49:00,12.7,8.8,30.56,SE,128,2.0,2.0,84,0.00,,SKC,0.00,VWS V14.01,2013-02-12 02:49:00,
2013-02-11 19:50:00,12.7,9.1,30.56,SE,126,1.0,1.0,85,0.00,,SKC,0.00,VWS V14.01,2013-02-12 02:50:00,
2013-02-11 19:51:00,12.6,9.0,30.56,SE,128,0.0,2.0,85,0.00,,SKC,0.00,VWS V14.01,2013-02-12 02:51:00,
2013-02-11 19:52:00,12.6,8.7,30.56,SE,130,0.0,1.0,84,0.00,,SKC,0.00,VWS V14.01,2013-02-12 02:52:00,
2013-02-11 19:53:00,12.6,9.0,30.56,SE,130,0.0,0.0,85,0.00,,SKC,0.00,VWS V14.01,2013-02-12 02:53:00,
2013-02-11 19:54:00,12.6,9.0,30.56,SE,130,0.0,0.0,85,0.00,,SKC,0.00,VWS V14.01,2013-02-12 02:54:00,
2013-02-11 19:55:00,12.5,8.9,30.56,SE,134,0.0,0.0,85,0.00,,SKC,0.00,VWS V14.01,2013-02-12 02:55:00,
2013-02-11 20:00:00,12.6,9.0,30.56,SE,129,0.0,0.0,85,0.00,,SKC,0.00,VWS V14.01,2013-02-12 03:00:00,
2013-02-11 20:04:00,12.8,9.4,30.56,SE,134,0.0,0.0,86,0.00,,SKC,0.00,VWS V14.01,2013-02-12 03:04:00,
2013-02-11 20:05:00,12.6,9.0,30.56,SE,130,0.0,0.0,85,0.00,,SKC,0.00,VWS V14.01,2013-02-12 03:05:00,
2013-02-11 20:06:00,12.9,9.5,30.56,SE,129,0.0,0.0,86,0.00,,SKC,0.00,VWS V14.01,2013-02-12 03:06:00,
2013-02-11 20:07:00,13.0,9.4,30.56,SE,131,0.0,0.0,85,0.00,,SKC,0.00,VWS V14.01,2013-02-12 03:07:00,
2013-02-11 20:08:00,13.0,9.4,30.56,SE,137,0.0,0.0,85,0.00,,SKC,0.00,VWS V14.01,2013-02-12 03:08:00,
2013-02-11 20:09:00,13.0,9.4,30.56,SE,130,0.0,0.0,85,0.00,,SKC,0.00,VWS V14.01,2013-02-12 03:09:00,
2013-02-11 20:18:00,13.0,9.4,30.56,SE,132,0.0,0.0,85,0.00,,SKC,0.00,VWS V14.01,2013-02-12 03:18:00,
2013-02-11 20:24:00,13.1,9.2,30.56,SE,134,0.0,0.0,84,0.00,,SKC,0.00,VWS V14.01,2013-02-12 03:24:00,
2013-02-11 20:30:00,12.9,9.0,30.56,SE,140,0.0,0.0,84,0.00,,SKC,0.00,VWS V14.01,2013-02-12 03:30:00,
2013-02-11 20:35:00,12.8,8.6,30.56,SE,128,0.0,1.0,83,0.00,,SKC,0.00,VWS V14.01,2013-02-12 03:35:00,
2013-02-11 20:40:00,12.7,8.5,30.56,SE,129,0.0,0.0,83,0.00,,SKC,0.00,VWS V14.01,2013-02-12 03:40:00,
2013-02-11 20:46:00,12.6,8.2,30.56,SE,131,0.0,0.0,82,0.00,,SKC,0.00,VWS V14.01,2013-02-12 03:46:00,
2013-02-11 20:51:00,12.4,8.0,30.56,SE,135,0.0,0.0,82,0.00,,SKC,0.00,VWS V14.01,2013-02-12 03:51:00,
2013-02-11 20:55:00,12.3,7.9,30.56,SE,126,0.0,0.0,82,0.00,,SKC,0.00,VWS V14.01,2013-02-12 03:55:00,
2013-02-11 21:01:00,12.2,7.8,30.56,SE,130,0.0,0.0,82,0.00,,SKC,0.00,VWS V14.01,2013-02-12 04:01:00,
2013-02-11 21:06:00,12.0,7.6,30.56,SE,137,0.0,0.0,82,0.00,,SKC,0.00,VWS V14.01,2013-02-12 04:06:00,
2013-02-11 21:11:00,12.1,7.9,30.56,SE,127,0.0,0.0,83,0.00,,SKC,0.00,VWS V14.01,2013-02-12 04:11:00,
2013-02-11 21:17:00,12.1,7.7,30.56,SE,130,0.0,0.0,82,0.00,,SKC,0.00,VWS V14.01,2013-02-12 04:17:00,
2013-02-11 21:22:00,12.0,7.8,30.56,SE,132,0.0,0.0,83,0.00,,SKC,0.00,VWS V14.01,2013-02-12 04:22:00,
2013-02-11 21:26:00,11.9,7.5,30.56,SE,130,1.0,2.0,82,0.00,,SKC,0.00,VWS V14.01,2013-02-12 04:26:00,
2013-02-11 21:32:00,11.9,7.5,30.56,SE,132,0.0,0.0,82,0.00,,SKC,0.00,VWS V14.01,2013-02-12 04:32:00,
2013-02-11 21:37:00,11.9,7.5,30.56,SE,128,0.0,2.0,82,0.00,,SKC,0.00,VWS V14.01,2013-02-12 04:37:00,
2013-02-11 21:44:00,11.9,7.2,30.56,SE,133,0.0,0.0,81,0.00,,SKC,0.00,VWS V14.01,2013-02-12 04:44:00,
2013-02-11 21:49:00,11.5,6.5,30.56,SE,131,0.0,1.0,80,0.00,,SKC,0.00,VWS V14.01,2013-02-12 04:49:00,
2013-02-11 21:54:00,11.2,6.2,30.56,SE,132,0.0,0.0,80,0.00,,SKC,0.00,VWS V14.01,2013-02-12 04:54:00,
2013-02-11 22:00:00,10.8,6.1,30.57,SE,133,0.0,0.0,81,0.00,,SKC,0.00,VWS V14.01,2013-02-12 05:00:00,
2013-02-11 22:01:00,10.8,6.1,30.57,SE,128,0.0,0.0,81,0.00,,SKC,0.00,VWS V14.01,2013-02-12 05:01:00,
2013-02-11 22:02:00,10.8,6.4,30.57,SE,131,0.0,0.0,82,0.00,,SKC,0.00,VWS V14.01,2013-02-12 05:02:00,
2013-02-11 22:04:00,10.7,6.0,30.57,SE,132,0.0,2.0,81,0.00,,SKC,0.00,VWS V14.01,2013-02-12 05:04:00,
2013-02-11 22:10:00,10.4,5.7,30.57,SE,134,0.0,0.0,81,0.00,,SKC,0.00,VWS V14.01,2013-02-12 05:10:00,
2013-02-11 22:15:00,10.4,6.0,30.57,SE,133,0.0,0.0,82,0.00,,SKC,0.00,VWS V14.01,2013-02-12 05:15:00,
2013-02-11 22:21:00,10.4,5.7,30.58,SE,128,0.0,0.0,81,0.00,,SKC,0.00,VWS V14.01,2013-02-12 05:21:00,
2013-02-11 22:26:00,10.3,5.6,30.58,SE,134,0.0,0.0,81,0.00,,SKC,0.00,VWS V14.01,2013-02-12 05:26:00,
2013-02-11 22:31:00,10.0,5.1,30.58,SE,131,0.0,0.0,80,0.00,,SKC,0.00,VWS V14.01,2013-02-12 05:31:00,
2013-02-11 22:37:00,9.8,4.9,30.58,SE,131,0.0,0.0,80,0.00,,SKC,0.00,VWS V14.01,2013-02-12 05:37:00,
2013-02-11 22:43:00,9.5,4.9,30.58,SE,130,1.0,1.0,81,0.00,,SKC,0.00,VWS V14.01,2013-02-12 05:43:00,
2013-02-11 22:48:00,9.7,5.3,30.58,NNE,28,0.0,0.0,82,0.00,,SKC,0.00,VWS V14.01,2013-02-12 05:48:00,
2013-02-11 22:53:00,9.8,5.2,30.58,NNE,28,1.0,1.0,81,0.00,,SKC,0.00,VWS V14.01,2013-02-12 05:53:00,
2013-02-11 22:59:00,9.9,5.2,30.57,NNE,30,2.0,2.0,81,0.00,,SKC,0.00,VWS V14.01,2013-02-12 05:59:00,
2013-02-11 23:04:00,9.8,4.9,30.58,NNE,22,0.0,0.0,80,0.00,,SKC,0.00,VWS V14.01,2013-02-12 06:04:00,
2013-02-11 23:09:00,9.6,4.7,30.58,NNE,26,0.0,1.0,80,0.00,,SKC,0.00,VWS V14.01,2013-02-12 06:09:00,
2013-02-11 23:14:00,9.4,4.2,30.58,NNE,28,0.0,0.0,79,0.00,,SKC,0.00,VWS V14.01,2013-02-12 06:14:00,
2013-02-11 23:20:00,9.1,3.9,30.58,NNE,24,0.0,0.0,79,0.00,,SKC,0.00,VWS V14.01,2013-02-12 06:20:00,
2013-02-11 23:25:00,9.0,4.1,30.58,NNE,23,0.0,0.0,80,0.00,,SKC,0.00,VWS V14.01,2013-02-12 06:25:00,
2013-02-11 23:30:00,9.1,4.5,30.58,NNE,30,0.0,0.0,81,0.00,,SKC,0.00,VWS V14.01,2013-02-12 06:30:00,
2013-02-11 23:35:00,9.6,4.9,30.58,NNE,29,0.0,1.0,81,0.00,,SKC,0.00,VWS V14.01,2013-02-12 06:35:00,
2013-02-11 23:40:00,9.9,4.4,30.58,NNE,26,0.0,1.0,78,0.00,,SKC,0.00,VWS V14.01,2013-02-12 06:40:00,
2013-02-11 23:46:00,9.9,4.2,30.58,NNE,22,0.0,0.0,77,0.00,,SKC,0.00,VWS V14.01,2013-02-12 06:46:00,
2013-02-11 23:52:00,9.9,3.6,30.58,NNE,25,1.0,2.0,75,0.00,,SKC,0.00,VWS V14.01,2013-02-12 06:52:00,
2013-02-11 23:58:00,9.9,3.6,30.58,NNE,23,0.0,1.0,75,0.00,,SKC,0.00,VWS V14.01,2013-02-12 06:58:00,